Wetterdaten: Donnerstag, 15.09.2016
Datum Zeit Temp. A. Temp. A. max Feuchte A. Luftdruck Regen Wind Richtung Richtung Sonnenschein ET UV Solar Taupunkt Windben
15.09.2016 00:00 13,9 C 13,9 C 92 % 1009,9 hPa 0,0 mm 0,1 km/h (0 Bft) W 279 0 min 0,000 mm 0,0 UV-I 0 W/m 12,6 C 1,6 km/h (1 Bft)
15.09.2016 00:01 13,9 C 14,0 C 92 % 1009,9 hPa 0,0 mm 0,8 km/h (0 Bft) W 279 0 min 0,000 mm 0,0 UV-I 0 W/m 12,6 C 1,6 km/h (1 Bft)
15.09.2016 00:02 14,1 C 14,1 C 92 % 1009,9 hPa 0,0 mm 1,6 km/h (1 Bft) W 279 0 min 0,000 mm 0,0 UV-I 0 W/m 12,8 C 3,2 km/h (1 Bft)
15.09.2016 00:03 14,1 C 14,1 C 93 % 1009,9 hPa 0,0 mm 0,6 km/h (0 Bft) W 279 0 min 0,000 mm 0,0 UV-I 0 W/m 13,0 C 1,6 km/h (1 Bft)
15.09.2016 00:04 14,2 C 14,2 C 93 % 1009,9 hPa 0,0 mm 2,8 km/h (1 Bft) SW 217 0 min 0,000 mm 0,0 UV-I 0 W/m 13,1 C 3,2 km/h (1 Bft)
15.09.2016 00:05 14,3 C 14,3 C 93 % 1009,9 hPa 0,0 mm 3,6 km/h (1 Bft) SW 217 0 min 0,000 mm 0,0 UV-I 0 W/m 13,2 C 4,8 km/h (1 Bft)
15.09.2016 00:06 14,4 C 14,4 C 91 % 1009,9 hPa 0,0 mm 3,7 km/h (1 Bft) SW 217 0 min 0,000 mm 0,0 UV-I 0 W/m 12,9 C 4,8 km/h (1 Bft)
15.09.2016 00:07 14,3 C 14,4 C 91 % 1009,8 hPa 0,0 mm 3,2 km/h (1 Bft) SW 217 0 min 0,000 mm 0,0 UV-I 0 W/m 12,8 C 4,8 km/h (1 Bft)
15.09.2016 00:08 14,4 C 14,4 C 91 % 1009,8 hPa 0,0 mm 1,9 km/h (1 Bft) SW 217 0 min 0,000 mm 0,0 UV-I 0 W/m 12,9 C 3,2 km/h (1 Bft)
15.09.2016 00:09 14,4 C 14,4 C 90 % 1009,8 hPa 0,0 mm 0,8 km/h (0 Bft) SW 217 0 min 0,000 mm 0,0 UV-I 0 W/m 12,8 C 1,6 km/h (1 Bft)
15.09.2016 00:10 14,3 C 14,4 C 90 % 1009,8 hPa 0,0 mm 0,0 km/h (0 Bft) SW 217 0 min 0,000 mm 0,0 UV-I 0 W/m 12,7 C 0,0 km/h (0 Bft)
15.09.2016 00:11 14,2 C 14,3 C 90 % 1009,8 hPa 0,0 mm 0,4 km/h (0 Bft) SW 217 0 min 0,000 mm 0,0 UV-I 0 W/m 12,6 C 1,6 km/h (1 Bft)
15.09.2016 00:12 14,1 C 14,2 C 90 % 1009,8 hPa 0,0 mm 0,0 km/h (0 Bft) SW 217 0 min 0,000 mm 0,0 UV-I 0 W/m 12,5 C 0,0 km/h (0 Bft)
15.09.2016 00:13 13,9 C 14,1 C 90 % 1009,8 hPa 0,0 mm 0,0 km/h (0 Bft) SW 217 0 min 0,000 mm 0,0 UV-I 0 W/m 12,3 C 0,0 km/h (0 Bft)
15.09.2016 00:14 13,8 C 13,9 C 90 % 1009,8 hPa 0,0 mm 0,0 km/h (0 Bft) SW 217 0 min 0,000 mm 0,0 UV-I 0 W/m 12,2 C 0,0 km/h (0 Bft)
15.09.2016 00:15 13,7 C 13,8 C 91 % 1009,8 hPa 0,0 mm 0,0 km/h (0 Bft) SW 217 0 min 0,000 mm 0,0 UV-I 0 W/m 12,3 C 0,0 km/h (0 Bft)
15.09.2016 00:16 13,7 C 13,7 C 92 % 1009,7 hPa 0,0 mm 0,4 km/h (0 Bft) SW 217 0 min 0,000 mm 0,0 UV-I 0 W/m 12,4 C 1,6 km/h (1 Bft)
15.09.2016 00:17 13,7 C 13,7 C 92 % 1009,7 hPa 0,0 mm 1,2 km/h (1 Bft) SW 217 0 min 0,000 mm 0,0 UV-I 0 W/m 12,4 C 1,6 km/h (1 Bft)
15.09.2016 00:18 13,7 C 13,7 C 92 % 1009,7 hPa 0,0 mm 0,9 km/h (0 Bft) SW 217 0 min 0,000 mm 0,0 UV-I 0 W/m 12,4 C 1,6 km/h (1 Bft)
15.09.2016 00:19 13,7 C 13,7 C 92 % 1009,7 hPa 0,0 mm 0,1 km/h (0 Bft) SW 217 0 min 0,000 mm 0,0 UV-I 0 W/m 12,4 C 1,6 km/h (1 Bft)
15.09.2016 00:20 13,7 C 13,7 C 93 % 1009,7 hPa 0,0 mm 0,5 km/h (0 Bft) SW 217 0 min 0,000 mm 0,0 UV-I 0 W/m 12,6 C 1,6 km/h (1 Bft)
15.09.2016 00:21 13,8 C 13,8 C 93 % 1009,7 hPa 0,0 mm 0,3 km/h (0 Bft) SW 217 0 min 0,000 mm 0,0 UV-I 0 W/m 12,7 C 1,6 km/h (1 Bft)
15.09.2016 00:22 13,8 C 13,8 C 93 % 1009,7 hPa 0,0 mm 2,1 km/h (1 Bft) SW 218 0 min 0,000 mm 0,0 UV-I 0 W/m 12,7 C 3,2 km/h (1 Bft)
15.09.2016 00:23 13,8 C 13,8 C 92 % 1009,8 hPa 0,0 mm 1,9 km/h (1 Bft) SW 218 0 min 0,000 mm 0,0 UV-I 0 W/m 12,5 C 3,2 km/h (1 Bft)
15.09.2016 00:24 13,7 C 13,8 C 92 % 1009,7 hPa 0,0 mm 0,4 km/h (0 Bft) SW 218 0 min 0,000 mm 0,0 UV-I 0 W/m 12,4 C 1,6 km/h (1 Bft)
15.09.2016 00:25 13,7 C 13,7 C 92 % 1009,8 hPa 0,0 mm 0,0 km/h (0 Bft) SW 218 0 min 0,000 mm 0,0 UV-I 0 W/m 12,4 C 0,0 km/h (0 Bft)
15.09.2016 00:26 13,6 C 13,7 C 92 % 1009,8 hPa 0,0 mm 0,0 km/h (0 Bft) SW 218 0 min 0,000 mm 0,0 UV-I 0 W/m 12,3 C 0,0 km/h (0 Bft)
15.09.2016 00:27 13,6 C 13,6 C 93 % 1009,8 hPa 0,0 mm 0,0 km/h (0 Bft) SW 218 0 min 0,000 mm 0,0 UV-I 0 W/m 12,5 C 0,0 km/h (0 Bft)
15.09.2016 00:28 13,6 C 13,6 C 93 % 1009,7 hPa 0,0 mm 1,4 km/h (1 Bft) SW 218 0 min 0,000 mm 0,0 UV-I 0 W/m 12,5 C 3,2 km/h (1 Bft)
15.09.2016 00:29 13,7 C 13,7 C 93 % 1009,7 hPa 0,0 mm 0,6 km/h (0 Bft) SW 218 0 min 0,000 mm 0,0 UV-I 0 W/m 12,6 C 1,6 km/h (1 Bft)
15.09.2016 00:30 13,8 C 13,8 C 94 % 1009,7 hPa 0,0 mm 0,9 km/h (0 Bft) SW 218 0 min 0,000 mm 0,0 UV-I 0 W/m 12,9 C 1,6 km/h (1 Bft)
15.09.2016 00:31 14,0 C 14,0 C 94 % 1009,7 hPa 0,0 mm 0,9 km/h (0 Bft) SW 218 0 min 0,000 mm 0,0 UV-I 0 W/m 13,0 C 1,6 km/h (1 Bft)
15.09.2016 00:32 14,1 C 14,1 C 94 % 1009,7 hPa 0,0 mm 0,1 km/h (0 Bft) SW 218 0 min 0,000 mm 0,0 UV-I 0 W/m 13,1 C 1,6 km/h (1 Bft)
15.09.2016 00:33 14,1 C 14,1 C 94 % 1009,7 hPa 0,0 mm 0,2 km/h (0 Bft) SW 218 0 min 0,000 mm 0,0 UV-I 0 W/m 13,1 C 1,6 km/h (1 Bft)
15.09.2016 00:34 14,1 C 14,1 C 94 % 1009,7 hPa 0,0 mm 0,0 km/h (0 Bft) SW 218 0 min 0,000 mm 0,0 UV-I 0 W/m 13,1 C 0,0 km/h (0 Bft)
15.09.2016 00:35 14,0 C 14,1 C 92 % 1009,7 hPa 0,0 mm 0,0 km/h (0 Bft) SW 218 0 min 0,000 mm 0,0 UV-I 0 W/m 12,7 C 0,0 km/h (0 Bft)
15.09.2016 00:36 13,8 C 14,0 C 91 % 1009,7 hPa 0,0 mm 0,0 km/h (0 Bft) SW 218 0 min 0,000 mm 0,0 UV-I 0 W/m 12,4 C 0,0 km/h (0 Bft)
15.09.2016 00:37 13,7 C 13,8 C 92 % 1009,7 hPa 0,0 mm 0,0 km/h (0 Bft) SW 218 0 min 0,000 mm 0,0 UV-I 0 W/m 12,4 C 0,0 km/h (0 Bft)
15.09.2016 00:38 13,6 C 13,7 C 92 % 1009,7 hPa 0,0 mm 0,1 km/h (0 Bft) SW 218 0 min 0,000 mm 0,0 UV-I 0 W/m 12,3 C 1,6 km/h (1 Bft)
15.09.2016 00:39 13,6 C 13,6 C 92 % 1009,7 hPa 0,0 mm 0,0 km/h (0 Bft) SW 218 0 min 0,000 mm 0,0 UV-I 0 W/m 12,3 C 0,0 km/h (0 Bft)
15.09.2016 00:40 13,6 C 13,6 C 93 % 1009,7 hPa 0,0 mm 0,0 km/h (0 Bft) SW 218 0 min 0,000 mm 0,0 UV-I 0 W/m 12,5 C 0,0 km/h (0 Bft)
15.09.2016 00:41 13,6 C 13,6 C 93 % 1009,7 hPa 0,0 mm 0,0 km/h (0 Bft) SW 218 0 min 0,000 mm 0,0 UV-I 0 W/m 12,5 C 0,0 km/h (0 Bft)
15.09.2016 00:42 13,6 C 13,6 C 94 % 1009,7 hPa 0,0 mm 0,0 km/h (0 Bft) SW 218 0 min 0,000 mm 0,0 UV-I 0 W/m 12,7 C 0,0 km/h (0 Bft)
15.09.2016 00:43 13,6 C 13,7 C 94 % 1009,6 hPa 0,0 mm 0,1 km/h (0 Bft) SW 218 0 min 0,000 mm 0,0 UV-I 0 W/m 12,7 C 1,6 km/h (1 Bft)
15.09.2016 00:44 13,7 C 13,7 C 94 % 1009,7 hPa 0,0 mm 0,7 km/h (0 Bft) SW 218 0 min 0,000 mm 0,0 UV-I 0 W/m 12,8 C 1,6 km/h (1 Bft)
15.09.2016 00:45 13,6 C 13,7 C 93 % 1009,7 hPa 0,0 mm 0,3 km/h (0 Bft) SW 218 0 min 0,000 mm 0,0 UV-I 0 W/m 12,5 C 1,6 km/h (1 Bft)
15.09.2016 00:46 13,6 C 13,6 C 93 % 1009,7 hPa 0,0 mm 0,0 km/h (0 Bft) SW 218 0 min 0,000 mm 0,0 UV-I 0 W/m 12,5 C 0,0 km/h (0 Bft)
15.09.2016 00:47 13,6 C 13,6 C 94 % 1009,5 hPa 0,0 mm 0,0 km/h (0 Bft) SW 218 0 min 0,000 mm 0,0 UV-I 0 W/m 12,7 C 0,0 km/h (0 Bft)
15.09.2016 00:48 13,6 C 13,6 C 94 % 1009,6 hPa 0,0 mm 0,0 km/h (0 Bft) SW 218 0 min 0,000 mm 0,0 UV-I 0 W/m 12,7 C 0,0 km/h (0 Bft)
15.09.2016 00:49 13,7 C 13,7 C 94 % 1009,5 hPa 0,0 mm 0,2 km/h (0 Bft) SW 218 0 min 0,000 mm 0,0 UV-I 0 W/m 12,8 C 1,6 km/h (1 Bft)
15.09.2016 00:50 13,6 C 13,7 C 94 % 1009,5 hPa 0,0 mm 2,8 km/h (1 Bft) SW 219 0 min 0,000 mm 0,0 UV-I 0 W/m 12,7 C 4,8 km/h (1 Bft)
15.09.2016 00:51 13,6 C 13,7 C 94 % 1009,5 hPa 0,0 mm 3,7 km/h (1 Bft) SW 219 0 min 0,000 mm 0,0 UV-I 0 W/m 12,7 C 4,8 km/h (1 Bft)
15.09.2016 00:52 13,6 C 13,6 C 94 % 1009,5 hPa 0,0 mm 2,0 km/h (1 Bft) SW 219 0 min 0,000 mm 0,0 UV-I 0 W/m 12,7 C 4,8 km/h (1 Bft)
15.09.2016 00:53 13,6 C 13,6 C 94 % 1009,5 hPa 0,0 mm 0,3 km/h (0 Bft) SW 219 0 min 0,000 mm 0,0 UV-I 0 W/m 12,7 C 1,6 km/h (1 Bft)
15.09.2016 00:54 13,5 C 13,6 C 94 % 1009,5 hPa 0,0 mm 0,7 km/h (0 Bft) SW 219 0 min 0,000 mm 0,0 UV-I 0 W/m 12,6 C 1,6 km/h (1 Bft)
15.09.2016 00:55 13,4 C 13,5 C 94 % 1009,5 hPa 0,0 mm 1,3 km/h (1 Bft) SW 216 0 min 0,000 mm 0,0 UV-I 0 W/m 12,5 C 3,2 km/h (1 Bft)
15.09.2016 00:56 13,4 C 13,4 C 94 % 1009,5 hPa 0,0 mm 2,0 km/h (1 Bft) SW 215 0 min 0,000 mm 0,0 UV-I 0 W/m 12,5 C 3,2 km/h (1 Bft)
15.09.2016 00:57 13,3 C 13,4 C 94 % 1009,4 hPa 0,0 mm 0,4 km/h (0 Bft) SW 215 0 min 0,000 mm 0,0 UV-I 0 W/m 12,4 C 1,6 km/h (1 Bft)
15.09.2016 00:58 13,4 C 13,4 C 94 % 1009,4 hPa 0,0 mm 0,0 km/h (0 Bft) SW 215 0 min 0,000 mm 0,0 UV-I 0 W/m 12,5 C 0,0 km/h (0 Bft)
15.09.2016 00:59 13,3 C 13,4 C 94 % 1009,4 hPa 0,0 mm 0,0 km/h (0 Bft) SW 215 0 min 0,000 mm 0,0 UV-I 0 W/m 12,4 C 0,0 km/h (0 Bft)
15.09.2016 01:00 13,2 C 13,3 C 93 % 1009,4 hPa 0,0 mm 0,0 km/h (0 Bft) SW 215 0 min 0,000 mm 0,0 UV-I 0 W/m 12,1 C 0,0 km/h (0 Bft)
15.09.2016 01:01 13,2 C 13,3 C 93 % 1009,4 hPa 0,0 mm 0,4 km/h (0 Bft) SW 215 0 min 0,000 mm 0,0 UV-I 0 W/m 12,1 C 1,6 km/h (1 Bft)
15.09.2016 01:02 13,3 C 13,3 C 94 % 1009,4 hPa 0,0 mm 0,8 km/h (0 Bft) SW 215 0 min 0,000 mm 0,0 UV-I 0 W/m 12,4 C 1,6 km/h (1 Bft)
15.09.2016 01:03 13,2 C 13,3 C 94 % 1009,4 hPa 0,0 mm 0,0 km/h (0 Bft) SW 215 0 min 0,000 mm 0,0 UV-I 0 W/m 12,3 C 0,0 km/h (0 Bft)
15.09.2016 01:04 13,1 C 13,2 C 93 % 1009,4 hPa 0,0 mm 0,0 km/h (0 Bft) SW 215 0 min 0,000 mm 0,0 UV-I 0 W/m 12,0 C 0,0 km/h (0 Bft)
15.09.2016 01:05 13,1 C 13,1 C 93 % 1009,4 hPa 0,0 mm 0,0 km/h (0 Bft) SW 215 0 min 0,000 mm 0,0 UV-I 0 W/m 12,0 C 0,0 km/h (0 Bft)
15.09.2016 01:06 13,1 C 13,1 C 93 % 1009,4 hPa 0,0 mm 0,0 km/h (0 Bft) SW 215 0 min 0,000 mm 0,0 UV-I 0 W/m 12,0 C 0,0 km/h (0 Bft)
15.09.2016 01:07 13,1 C 13,1 C 94 % 1009,4 hPa 0,0 mm 0,7 km/h (0 Bft) SW 215 0 min 0,000 mm 0,0 UV-I 0 W/m 12,2 C 1,6 km/h (1 Bft)
15.09.2016 01:08 13,1 C 13,1 C 94 % 1009,5 hPa 0,0 mm 0,7 km/h (0 Bft) SW 215 0 min 0,000 mm 0,0 UV-I 0 W/m 12,2 C 1,6 km/h (1 Bft)
15.09.2016 01:09 13,2 C 13,2 C 94 % 1009,4 hPa 0,0 mm 0,0 km/h (0 Bft) SW 215 0 min 0,000 mm 0,0 UV-I 0 W/m 12,3 C 0,0 km/h (0 Bft)
15.09.2016 01:10 13,1 C 13,2 C 94 % 1009,4 hPa 0,0 mm 0,3 km/h (0 Bft) SW 215 0 min 0,000 mm 0,0 UV-I 0 W/m 12,2 C 1,6 km/h (1 Bft)
15.09.2016 01:11 13,0 C 13,1 C 94 % 1009,4 hPa 0,0 mm 0,8 km/h (0 Bft) SW 215 0 min 0,000 mm 0,0 UV-I 0 W/m 12,1 C 1,6 km/h (1 Bft)
15.09.2016 01:12 12,9 C 13,0 C 93 % 1009,5 hPa 0,0 mm 0,1 km/h (0 Bft) SW 215 0 min 0,000 mm 0,0 UV-I 0 W/m 11,8 C 1,6 km/h (1 Bft)
15.09.2016 01:13 12,9 C 12,9 C 94 % 1009,4 hPa 0,0 mm 0,6 km/h (0 Bft) SW 215 0 min 0,000 mm 0,0 UV-I 0 W/m 12,0 C 1,6 km/h (1 Bft)
15.09.2016 01:14 12,9 C 12,9 C 94 % 1009,4 hPa 0,0 mm 1,7 km/h (1 Bft) SW 215 0 min 0,000 mm 0,0 UV-I 0 W/m 12,0 C 3,2 km/h (1 Bft)
15.09.2016 01:15 12,9 C 12,9 C 94 % 1009,4 hPa 0,0 mm 0,5 km/h (0 Bft) SW 215 0 min 0,000 mm 0,0 UV-I 0 W/m 12,0 C 1,6 km/h (1 Bft)
15.09.2016 01:16 12,8 C 12,9 C 94 % 1009,4 hPa 0,0 mm 1,7 km/h (1 Bft) SW 215 0 min 0,000 mm 0,0 UV-I 0 W/m 11,9 C 3,2 km/h (1 Bft)
15.09.2016 01:17 12,8 C 12,8 C 94 % 1009,4 hPa 0,0 mm 0,6 km/h (0 Bft) SW 215 0 min 0,000 mm 0,0 UV-I 0 W/m 11,9 C 1,6 km/h (1 Bft)
15.09.2016 01:18 12,8 C 12,8 C 94 % 1009,4 hPa 0,0 mm 0,4 km/h (0 Bft) SW 215 0 min 0,000 mm 0,0 UV-I 0 W/m 11,9 C 1,6 km/h (1 Bft)
15.09.2016 01:19 12,8 C 12,8 C 94 % 1009,4 hPa 0,0 mm 0,1 km/h (0 Bft) SW 215 0 min 0,000 mm 0,0 UV-I 0 W/m 11,9 C 1,6 km/h (1 Bft)
15.09.2016 01:20 12,8 C 12,8 C 94 % 1009,4 hPa 0,0 mm 0,0 km/h (0 Bft) SW 215 0 min 0,000 mm 0,0 UV-I 0 W/m 11,9 C 0,0 km/h (0 Bft)
15.09.2016 01:21 12,8 C 12,8 C 94 % 1009,4 hPa 0,0 mm 0,0 km/h (0 Bft) SW 215 0 min 0,000 mm 0,0 UV-I 0 W/m 11,9 C 0,0 km/h (0 Bft)
15.09.2016 01:22 12,9 C 12,9 C 95 % 1009,4 hPa 0,0 mm 0,0 km/h (0 Bft) SW 215 0 min 0,000 mm 0,0 UV-I 0 W/m 12,1 C 0,0 km/h (0 Bft)
15.09.2016 01:23 12,9 C 12,9 C 95 % 1009,4 hPa 0,0 mm 0,0 km/h (0 Bft) SW 215 0 min 0,000 mm 0,0 UV-I 0 W/m 12,1 C 0,0 km/h (0 Bft)
15.09.2016 01:24 13,1 C 13,1 C 95 % 1009,3 hPa 0,0 mm 0,1 km/h (0 Bft) SW 215 0 min 0,000 mm 0,0 UV-I 0 W/m 12,3 C 1,6 km/h (1 Bft)
15.09.2016 01:25 13,1 C 13,1 C 95 % 1009,4 hPa 0,0 mm 0,0 km/h (0 Bft) SW 215 0 min 0,000 mm 0,0 UV-I 0 W/m 12,3 C 0,0 km/h (0 Bft)
15.09.2016 01:26 12,9 C 13,1 C 94 % 1009,4 hPa 0,0 mm 0,6 km/h (0 Bft) SW 215 0 min 0,000 mm 0,0 UV-I 0 W/m 12,0 C 1,6 km/h (1 Bft)
15.09.2016 01:27 12,8 C 12,9 C 94 % 1009,4 hPa 0,0 mm 0,8 km/h (0 Bft) SW 215 0 min 0,000 mm 0,0 UV-I 0 W/m 11,9 C 1,6 km/h (1 Bft)
15.09.2016 01:28 12,8 C 12,8 C 93 % 1009,3 hPa 0,0 mm 1,2 km/h (1 Bft) SW 215 0 min 0,000 mm 0,0 UV-I 0 W/m 11,7 C 1,6 km/h (1 Bft)
15.09.2016 01:29 12,7 C 12,8 C 93 % 1009,4 hPa 0,0 mm 0,0 km/h (0 Bft) SW 215 0 min 0,000 mm 0,0 UV-I 0 W/m 11,6 C 0,0 km/h (0 Bft)
15.09.2016 01:30 12,7 C 12,7 C 93 % 1009,3 hPa 0,0 mm 0,0 km/h (0 Bft) SW 215 0 min 0,000 mm 0,0 UV-I 0 W/m 11,6 C 0,0 km/h (0 Bft)
15.09.2016 01:31 12,6 C 12,7 C 94 % 1009,3 hPa 0,0 mm 0,0 km/h (0 Bft) SW 215 0 min 0,000 mm 0,0 UV-I 0 W/m 11,7 C 0,0 km/h (0 Bft)
15.09.2016 01:32 12,7 C 12,7 C 94 % 1009,3 hPa 0,0 mm 0,0 km/h (0 Bft) SW 215 0 min 0,000 mm 0,0 UV-I 0 W/m 11,8 C 0,0 km/h (0 Bft)
15.09.2016 01:33 12,7 C 12,7 C 94 % 1009,3 hPa 0,0 mm 0,6 km/h (0 Bft) SW 215 0 min 0,000 mm 0,0 UV-I 0 W/m 11,8 C 1,6 km/h (1 Bft)
15.09.2016 01:34 12,7 C 12,7 C 94 % 1009,2 hPa 0,0 mm 1,1 km/h (1 Bft) SW 215 0 min 0,000 mm 0,0 UV-I 0 W/m 11,8 C 1,6 km/h (1 Bft)
15.09.2016 01:35 12,7 C 12,7 C 94 % 1009,2 hPa 0,0 mm 0,0 km/h (0 Bft) SW 215 0 min 0,000 mm 0,0 UV-I 0 W/m 11,8 C 0,0 km/h (0 Bft)
15.09.2016 01:36 12,6 C 12,7 C 94 % 1009,2 hPa 0,0 mm 0,0 km/h (0 Bft) SW 215 0 min 0,000 mm 0,0 UV-I 0 W/m 11,7 C 0,0 km/h (0 Bft)
15.09.2016 01:37 12,6 C 12,6 C 94 % 1009,1 hPa 0,0 mm 0,6 km/h (0 Bft) SW 215 0 min 0,000 mm 0,0 UV-I 0 W/m 11,7 C 1,6 km/h (1 Bft)
15.09.2016 01:38 12,7 C 12,7 C 94 % 1009,2 hPa 0,0 mm 1,5 km/h (1 Bft) SW 215 0 min 0,000 mm 0,0 UV-I 0 W/m 11,8 C 3,2 km/h (1 Bft)
15.09.2016 01:39 12,7 C 12,7 C 94 % 1009,2 hPa 0,0 mm 2,5 km/h (1 Bft) SW 216 0 min 0,000 mm 0,0 UV-I 0 W/m 11,8 C 3,2 km/h (1 Bft)
15.09.2016 01:40 12,6 C 12,7 C 94 % 1009,3 hPa 0,0 mm 1,2 km/h (1 Bft) SW 216 0 min 0,000 mm 0,0 UV-I 0 W/m 11,7 C 1,6 km/h (1 Bft)
15.09.2016 01:41 12,5 C 12,6 C 94 % 1009,2 hPa 0,0 mm 0,1 km/h (0 Bft) SW 216 0 min 0,000 mm 0,0 UV-I 0 W/m 11,6 C 1,6 km/h (1 Bft)
15.09.2016 01:42 12,4 C 12,5 C 94 % 1009,2 hPa 0,0 mm 1,0 km/h (0 Bft) SW 216 0 min 0,000 mm 0,0 UV-I 0 W/m 11,5 C 1,6 km/h (1 Bft)
15.09.2016 01:43 12,4 C 12,4 C 93 % 1009,3 hPa 0,0 mm 1,0 km/h (0 Bft) SW 216 0 min 0,000 mm 0,0 UV-I 0 W/m 11,3 C 1,6 km/h (1 Bft)
15.09.2016 01:44 12,3 C 12,4 C 94 % 1009,2 hPa 0,0 mm 1,9 km/h (1 Bft) SW 216 0 min 0,000 mm 0,0 UV-I 0 W/m 11,4 C 3,2 km/h (1 Bft)
15.09.2016 01:45 12,4 C 12,4 C 94 % 1009,3 hPa 0,0 mm 1,3 km/h (1 Bft) SW 216 0 min 0,000 mm 0,0 UV-I 0 W/m 11,5 C 1,6 km/h (1 Bft)
15.09.2016 01:46 12,3 C 12,4 C 94 % 1009,2 hPa 0,0 mm 0,6 km/h (0 Bft) SW 216 0 min 0,000 mm 0,0 UV-I 0 W/m 11,4 C 1,6 km/h (1 Bft)
15.09.2016 01:47 12,3 C 12,4 C 94 % 1009,2 hPa 0,0 mm 2,1 km/h (1 Bft) SW 215 0 min 0,000 mm 0,0 UV-I 0 W/m 11,4 C 3,2 km/h (1 Bft)
15.09.2016 01:48 12,3 C 12,4 C 94 % 1009,3 hPa 0,0 mm 1,7 km/h (1 Bft) SW 215 0 min 0,000 mm 0,0 UV-I 0 W/m 11,4 C 3,2 km/h (1 Bft)
15.09.2016 01:49 12,3 C 12,4 C 94 % 1009,2 hPa 0,0 mm 1,6 km/h (1 Bft) SW 215 0 min 0,000 mm 0,0 UV-I 0 W/m 11,4 C 1,6 km/h (1 Bft)
15.09.2016 01:50 12,3 C 12,3 C 94 % 1009,2 hPa 0,0 mm 1,6 km/h (1 Bft) SW 215 0 min 0,000 mm 0,0 UV-I 0 W/m 11,4 C 3,2 km/h (1 Bft)
15.09.2016 01:51 12,3 C 12,3 C 94 % 1009,3 hPa 0,0 mm 0,2 km/h (0 Bft) SW 215 0 min 0,000 mm 0,0 UV-I 0 W/m 11,4 C 1,6 km/h (1 Bft)
15.09.2016 01:52 12,4 C 12,4 C 94 % 1009,3 hPa 0,0 mm 0,0 km/h (0 Bft) SW 215 0 min 0,000 mm 0,0 UV-I 0 W/m 11,5 C 0,0 km/h (0 Bft)
15.09.2016 01:53 12,4 C 12,4 C 95 % 1009,3 hPa 0,0 mm 0,0 km/h (0 Bft) SW 215 0 min 0,000 mm 0,0 UV-I 0 W/m 11,6 C 0,0 km/h (0 Bft)
15.09.2016 01:54 12,4 C 12,4 C 95 % 1009,3 hPa 0,0 mm 0,1 km/h (0 Bft) SW 215 0 min 0,000 mm 0,0 UV-I 0 W/m 11,6 C 1,6 km/h (1 Bft)
15.09.2016 01:55 12,5 C 12,5 C 95 % 1009,3 hPa 0,0 mm 0,0 km/h (0 Bft) SW 215 0 min 0,000 mm 0,0 UV-I 0 W/m 11,7 C 0,0 km/h (0 Bft)
15.09.2016 01:56 12,5 C 12,5 C 95 % 1009,3 hPa 0,0 mm 1,4 km/h (1 Bft) SW 215 0 min 0,000 mm 0,0 UV-I 0 W/m 11,7 C 3,2 km/h (1 Bft)
15.09.2016 01:57 12,6 C 12,6 C 95 % 1009,3 hPa 0,0 mm 2,5 km/h (1 Bft) SW 216 0 min 0,000 mm 0,0 UV-I 0 W/m 11,8 C 3,2 km/h (1 Bft)
15.09.2016 01:58 12,6 C 12,6 C 95 % 1009,3 hPa 0,0 mm 2,1 km/h (1 Bft) SW 216 0 min 0,000 mm 0,0 UV-I 0 W/m 11,8 C 3,2 km/h (1 Bft)
15.09.2016 01:59 12,7 C 12,7 C 95 % 1009,3 hPa 0,0 mm 0,7 km/h (0 Bft) SW 216 0 min 0,000 mm 0,0 UV-I 0 W/m 11,9 C 1,6 km/h (1 Bft)
15.09.2016 02:00 12,6 C 12,7 C 95 % 1009,3 hPa 0,0 mm 0,0 km/h (0 Bft) SW 216 0 min 0,000 mm 0,0 UV-I 0 W/m 11,8 C 0,0 km/h (0 Bft)
15.09.2016 02:01 12,6 C 12,7 C 95 % 1009,3 hPa 0,0 mm 0,0 km/h (0 Bft) SW 216 0 min 0,000 mm 0,0 UV-I 0 W/m 11,8 C 0,0 km/h (0 Bft)
15.09.2016 02:02 12,6 C 12,6 C 95 % 1009,3 hPa 0,0 mm 0,3 km/h (0 Bft) SW 216 0 min 0,000 mm 0,0 UV-I 0 W/m 11,8 C 1,6 km/h (1 Bft)
15.09.2016 02:03 12,6 C 12,6 C 94 % 1009,2 hPa 0,0 mm 2,0 km/h (1 Bft) SW 216 0 min 0,000 mm 0,0 UV-I 0 W/m 11,7 C 3,2 km/h (1 Bft)
15.09.2016 02:04 12,6 C 12,6 C 94 % 1009,2 hPa 0,0 mm 2,0 km/h (1 Bft) SW 216 0 min 0,000 mm 0,0 UV-I 0 W/m 11,7 C 3,2 km/h (1 Bft)
15.09.2016 02:05 12,6 C 12,6 C 94 % 1009,3 hPa 0,0 mm 1,7 km/h (1 Bft) SW 216 0 min 0,000 mm 0,0 UV-I 0 W/m 11,7 C 3,2 km/h (1 Bft)
15.09.2016 02:06 12,7 C 12,7 C 95 % 1009,2 hPa 0,0 mm 1,0 km/h (0 Bft) SW 216 0 min 0,000 mm 0,0 UV-I 0 W/m 11,9 C 1,6 km/h (1 Bft)
15.09.2016 02:07 12,8 C 12,8 C 95 % 1009,2 hPa 0,0 mm 0,2 km/h (0 Bft) SW 216 0 min 0,000 mm 0,0 UV-I 0 W/m 12,0 C 1,6 km/h (1 Bft)
15.09.2016 02:08 12,8 C 12,8 C 95 % 1009,2 hPa 0,0 mm 0,0 km/h (0 Bft) SW 216 0 min 0,000 mm 0,0 UV-I 0 W/m 12,0 C 0,0 km/h (0 Bft)
15.09.2016 02:09 12,8 C 12,8 C 94 % 1009,2 hPa 0,0 mm 0,0 km/h (0 Bft) SW 216 0 min 0,000 mm 0,0 UV-I 0 W/m 11,9 C 0,0 km/h (0 Bft)
15.09.2016 02:10 12,8 C 12,8 C 94 % 1009,1 hPa 0,0 mm 0,0 km/h (0 Bft) SW 216 0 min 0,000 mm 0,0 UV-I 0 W/m 11,9 C 0,0 km/h (0 Bft)
15.09.2016 02:11 12,7 C 12,8 C 93 % 1009,1 hPa 0,0 mm 0,0 km/h (0 Bft) SW 216 0 min 0,000 mm 0,0 UV-I 0 W/m 11,6 C 0,0 km/h (0 Bft)
15.09.2016 02:12 12,7 C 12,7 C 93 % 1009,1 hPa 0,0 mm 0,5 km/h (0 Bft) SW 216 0 min 0,000 mm 0,0 UV-I 0 W/m 11,6 C 1,6 km/h (1 Bft)
15.09.2016 02:13 12,4 C 12,7 C 93 % 1009,2 hPa 0,0 mm 1,1 km/h (1 Bft) SW 216 0 min 0,000 mm 0,0 UV-I 0 W/m 11,3 C 1,6 km/h (1 Bft)
15.09.2016 02:14 12,2 C 12,4 C 92 % 1009,1 hPa 0,0 mm 1,2 km/h (1 Bft) SW 216 0 min 0,000 mm 0,0 UV-I 0 W/m 10,9 C 3,2 km/h (1 Bft)
15.09.2016 02:15 12,1 C 12,2 C 92 % 1009,1 hPa 0,0 mm 0,0 km/h (0 Bft) SW 216 0 min 0,000 mm 0,0 UV-I 0 W/m 10,8 C 0,0 km/h (0 Bft)
15.09.2016 02:16 12,0 C 12,1 C 93 % 1009,1 hPa 0,0 mm 0,8 km/h (0 Bft) SW 216 0 min 0,000 mm 0,0 UV-I 0 W/m 10,9 C 1,6 km/h (1 Bft)
15.09.2016 02:17 12,0 C 12,0 C 94 % 1009,1 hPa 0,0 mm 1,5 km/h (1 Bft) SW 216 0 min 0,000 mm 0,0 UV-I 0 W/m 11,1 C 1,6 km/h (1 Bft)
15.09.2016 02:18 12,1 C 12,1 C 94 % 1009,1 hPa 0,0 mm 1,7 km/h (1 Bft) SW 216 0 min 0,000 mm 0,0 UV-I 0 W/m 11,2 C 3,2 km/h (1 Bft)
15.09.2016 02:19 12,2 C 12,2 C 95 % 1009,1 hPa 0,0 mm 2,2 km/h (1 Bft) SW 215 0 min 0,000 mm 0,0 UV-I 0 W/m 11,4 C 3,2 km/h (1 Bft)
15.09.2016 02:20 12,3 C 12,3 C 95 % 1009,1 hPa 0,0 mm 0,6 km/h (0 Bft) SW 215 0 min 0,000 mm 0,0 UV-I 0 W/m 11,5 C 1,6 km/h (1 Bft)
15.09.2016 02:21 12,3 C 12,3 C 95 % 1009,1 hPa 0,0 mm 0,0 km/h (0 Bft) SW 215 0 min 0,000 mm 0,0 UV-I 0 W/m 11,5 C 0,0 km/h (0 Bft)
15.09.2016 02:22 12,2 C 12,3 C 94 % 1009,1 hPa 0,0 mm 0,0 km/h (0 Bft) SW 215 0 min 0,000 mm 0,0 UV-I 0 W/m 11,3 C 0,0 km/h (0 Bft)
15.09.2016 02:23 12,3 C 12,3 C 94 % 1009,1 hPa 0,0 mm 0,1 km/h (0 Bft) SW 215 0 min 0,000 mm 0,0 UV-I 0 W/m 11,4 C 1,6 km/h (1 Bft)
15.09.2016 02:24 12,3 C 12,3 C 94 % 1009,0 hPa 0,0 mm 1,4 km/h (1 Bft) SW 215 0 min 0,000 mm 0,0 UV-I 0 W/m 11,4 C 1,6 km/h (1 Bft)
15.09.2016 02:25 12,3 C 12,3 C 94 % 1009,0 hPa 0,0 mm 0,3 km/h (0 Bft) SW 215 0 min 0,000 mm 0,0 UV-I 0 W/m 11,4 C 1,6 km/h (1 Bft)
15.09.2016 02:26 12,3 C 12,3 C 94 % 1009,0 hPa 0,0 mm 0,0 km/h (0 Bft) SW 215 0 min 0,000 mm 0,0 UV-I 0 W/m 11,4 C 0,0 km/h (0 Bft)
15.09.2016 02:27 12,3 C 12,3 C 95 % 1009,0 hPa 0,0 mm 0,0 km/h (0 Bft) SW 215 0 min 0,000 mm 0,0 UV-I 0 W/m 11,5 C 0,0 km/h (0 Bft)
15.09.2016 02:28 12,4 C 12,4 C 95 % 1009,1 hPa 0,0 mm 0,5 km/h (0 Bft) SW 215 0 min 0,000 mm 0,0 UV-I 0 W/m 11,6 C 1,6 km/h (1 Bft)
15.09.2016 02:29 12,4 C 12,4 C 95 % 1009,0 hPa 0,0 mm 2,0 km/h (1 Bft) S-SW 201 0 min 0,000 mm 0,0 UV-I 0 W/m 11,6 C 3,2 km/h (1 Bft)
15.09.2016 02:30 12,4 C 12,5 C 95 % 1009,0 hPa 0,0 mm 3,2 km/h (1 Bft) S 175 0 min 0,000 mm 0,0 UV-I 0 W/m 11,6 C 3,2 km/h (1 Bft)
15.09.2016 02:31 12,5 C 12,5 C 95 % 1009,0 hPa 0,0 mm 1,9 km/h (1 Bft) S 175 0 min 0,000 mm 0,0 UV-I 0 W/m 11,7 C 3,2 km/h (1 Bft)
15.09.2016 02:32 12,4 C 12,5 C 94 % 1009,0 hPa 0,0 mm 0,9 km/h (0 Bft) S 175 0 min 0,000 mm 0,0 UV-I 0 W/m 11,5 C 1,6 km/h (1 Bft)
15.09.2016 02:33 12,3 C 12,4 C 94 % 1009,1 hPa 0,0 mm 1,1 km/h (1 Bft) S 175 0 min 0,000 mm 0,0 UV-I 0 W/m 11,4 C 1,6 km/h (1 Bft)
15.09.2016 02:34 12,2 C 12,3 C 94 % 1009,0 hPa 0,0 mm 1,3 km/h (1 Bft) S 175 0 min 0,000 mm 0,0 UV-I 0 W/m 11,3 C 3,2 km/h (1 Bft)
15.09.2016 02:35 12,2 C 12,2 C 94 % 1009,1 hPa 0,0 mm 0,6 km/h (0 Bft) S 175 0 min 0,000 mm 0,0 UV-I 0 W/m 11,3 C 1,6 km/h (1 Bft)
15.09.2016 02:36 12,2 C 12,2 C 94 % 1009,0 hPa 0,0 mm 2,0 km/h (1 Bft) S 175 0 min 0,000 mm 0,0 UV-I 0 W/m 11,3 C 3,2 km/h (1 Bft)
15.09.2016 02:37 12,3 C 12,3 C 95 % 1009,0 hPa 0,0 mm 2,2 km/h (1 Bft) S 175 0 min 0,000 mm 0,0 UV-I 0 W/m 11,5 C 3,2 km/h (1 Bft)
15.09.2016 02:38 12,4 C 12,4 C 95 % 1009,0 hPa 0,0 mm 2,5 km/h (1 Bft) S 175 0 min 0,000 mm 0,0 UV-I 0 W/m 11,6 C 3,2 km/h (1 Bft)
15.09.2016 02:39 12,5 C 12,5 C 95 % 1009,0 hPa 0,0 mm 1,3 km/h (1 Bft) S 175 0 min 0,000 mm 0,0 UV-I 0 W/m 11,7 C 1,6 km/h (1 Bft)
15.09.2016 02:40 12,6 C 12,6 C 95 % 1008,9 hPa 0,0 mm 0,5 km/h (0 Bft) S 175 0 min 0,000 mm 0,0 UV-I 0 W/m 11,8 C 1,6 km/h (1 Bft)
15.09.2016 02:41 12,6 C 12,6 C 95 % 1008,9 hPa 0,0 mm 0,2 km/h (0 Bft) S 175 0 min 0,000 mm 0,0 UV-I 0 W/m 11,8 C 1,6 km/h (1 Bft)
15.09.2016 02:42 12,5 C 12,6 C 94 % 1008,9 hPa 0,0 mm 0,1 km/h (0 Bft) S 175 0 min 0,000 mm 0,0 UV-I 0 W/m 11,6 C 1,6 km/h (1 Bft)
15.09.2016 02:43 12,4 C 12,5 C 93 % 1008,9 hPa 0,0 mm 0,1 km/h (0 Bft) S 175 0 min 0,000 mm 0,0 UV-I 0 W/m 11,3 C 1,6 km/h (1 Bft)
15.09.2016 02:44 12,5 C 12,5 C 94 % 1008,9 hPa 0,0 mm 0,1 km/h (0 Bft) S 175 0 min 0,000 mm 0,0 UV-I 0 W/m 11,6 C 1,6 km/h (1 Bft)
15.09.2016 02:45 12,5 C 12,5 C 94 % 1008,9 hPa 0,0 mm 0,0 km/h (0 Bft) S 175 0 min 0,000 mm 0,0 UV-I 0 W/m 11,6 C 0,0 km/h (0 Bft)
15.09.2016 02:46 12,4 C 12,5 C 93 % 1008,9 hPa 0,0 mm 0,3 km/h (0 Bft) S 175 0 min 0,000 mm 0,0 UV-I 0 W/m 11,3 C 1,6 km/h (1 Bft)
15.09.2016 02:47 12,4 C 12,5 C 93 % 1008,9 hPa 0,0 mm 0,9 km/h (0 Bft) S 175 0 min 0,000 mm 0,0 UV-I 0 W/m 11,3 C 1,6 km/h (1 Bft)
15.09.2016 02:48 12,4 C 12,4 C 93 % 1008,9 hPa 0,0 mm 2,0 km/h (1 Bft) S 175 0 min 0,000 mm 0,0 UV-I 0 W/m 11,3 C 3,2 km/h (1 Bft)
15.09.2016 02:49 12,4 C 12,4 C 93 % 1008,9 hPa 0,0 mm 1,8 km/h (1 Bft) S 175 0 min 0,000 mm 0,0 UV-I 0 W/m 11,3 C 3,2 km/h (1 Bft)
15.09.2016 02:50 12,4 C 12,4 C 94 % 1008,9 hPa 0,0 mm 1,3 km/h (1 Bft) S 175 0 min 0,000 mm 0,0 UV-I 0 W/m 11,5 C 1,6 km/h (1 Bft)
15.09.2016 02:51 12,4 C 12,4 C 94 % 1008,9 hPa 0,0 mm 1,0 km/h (0 Bft) S 175 0 min 0,000 mm 0,0 UV-I 0 W/m 11,5 C 1,6 km/h (1 Bft)
15.09.2016 02:52 12,4 C 12,4 C 94 % 1008,9 hPa 0,0 mm 1,6 km/h (1 Bft) S 175 0 min 0,000 mm 0,0 UV-I 0 W/m 11,5 C 3,2 km/h (1 Bft)
15.09.2016 02:53 12,6 C 12,6 C 94 % 1008,9 hPa 0,0 mm 0,3 km/h (0 Bft) S 175 0 min 0,000 mm 0,0 UV-I 0 W/m 11,7 C 1,6 km/h (1 Bft)
15.09.2016 02:54 12,6 C 12,6 C 94 % 1008,9 hPa 0,0 mm 0,0 km/h (0 Bft) S 175 0 min 0,000 mm 0,0 UV-I 0 W/m 11,7 C 0,0 km/h (0 Bft)
15.09.2016 02:55 12,5 C 12,6 C 92 % 1008,9 hPa 0,0 mm 0,0 km/h (0 Bft) S 175 0 min 0,000 mm 0,0 UV-I 0 W/m 11,2 C 0,0 km/h (0 Bft)
15.09.2016 02:56 12,4 C 12,5 C 92 % 1008,9 hPa 0,0 mm 0,0 km/h (0 Bft) S 175 0 min 0,000 mm 0,0 UV-I 0 W/m 11,1 C 0,0 km/h (0 Bft)
15.09.2016 02:57 12,4 C 12,4 C 92 % 1008,9 hPa 0,0 mm 0,0 km/h (0 Bft) S 175 0 min 0,000 mm 0,0 UV-I 0 W/m 11,1 C 0,0 km/h (0 Bft)
15.09.2016 02:58 12,3 C 12,4 C 92 % 1008,9 hPa 0,0 mm 0,0 km/h (0 Bft) S 175 0 min 0,000 mm 0,0 UV-I 0 W/m 11,0 C 0,0 km/h (0 Bft)
15.09.2016 02:59 12,3 C 12,3 C 92 % 1008,9 hPa 0,0 mm 0,0 km/h (0 Bft) S 175 0 min 0,000 mm 0,0 UV-I 0 W/m 11,0 C 0,0 km/h (0 Bft)
15.09.2016 03:00 12,2 C 12,3 C 92 % 1008,8 hPa 0,0 mm 0,1 km/h (0 Bft) S 175 0 min 0,000 mm 0,0 UV-I 0 W/m 10,9 C 1,6 km/h (1 Bft)
15.09.2016 03:01 12,1 C 12,2 C 92 % 1008,8 hPa 0,0 mm 0,2 km/h (0 Bft) S 175 0 min 0,000 mm 0,0 UV-I 0 W/m 10,8 C 1,6 km/h (1 Bft)
15.09.2016 03:02 12,0 C 12,1 C 93 % 1008,8 hPa 0,0 mm 0,4 km/h (0 Bft) S 175 0 min 0,000 mm 0,0 UV-I 0 W/m 10,9 C 1,6 km/h (1 Bft)
15.09.2016 03:03 11,9 C 12,1 C 93 % 1008,7 hPa 0,0 mm 0,0 km/h (0 Bft) S 175 0 min 0,000 mm 0,0 UV-I 0 W/m 10,8 C 0,0 km/h (0 Bft)
15.09.2016 03:04 11,9 C 12,0 C 93 % 1008,8 hPa 0,0 mm 0,0 km/h (0 Bft) S 175 0 min 0,000 mm 0,0 UV-I 0 W/m 10,8 C 0,0 km/h (0 Bft)
15.09.2016 03:05 11,9 C 11,9 C 93 % 1008,7 hPa 0,0 mm 0,0 km/h (0 Bft) S 175 0 min 0,000 mm 0,0 UV-I 0 W/m 10,8 C 0,0 km/h (0 Bft)
15.09.2016 03:06 11,9 C 11,9 C 93 % 1008,7 hPa 0,0 mm 0,0 km/h (0 Bft) S 175 0 min 0,000 mm 0,0 UV-I 0 W/m 10,8 C 0,0 km/h (0 Bft)
15.09.2016 03:07 11,9 C 11,9 C 94 % 1008,7 hPa 0,0 mm 0,3 km/h (0 Bft) S 175 0 min 0,000 mm 0,0 UV-I 0 W/m 11,0 C 1,6 km/h (1 Bft)
15.09.2016 03:08 11,9 C 11,9 C 94 % 1008,7 hPa 0,0 mm 0,3 km/h (0 Bft) S 175 0 min 0,000 mm 0,0 UV-I 0 W/m 11,0 C 1,6 km/h (1 Bft)
15.09.2016 03:09 11,8 C 11,9 C 93 % 1008,7 hPa 0,0 mm 1,2 km/h (1 Bft) S 175 0 min 0,000 mm 0,0 UV-I 0 W/m 10,7 C 3,2 km/h (1 Bft)
15.09.2016 03:10 11,8 C 11,8 C 93 % 1008,8 hPa 0,0 mm 0,6 km/h (0 Bft) S 175 0 min 0,000 mm 0,0 UV-I 0 W/m 10,7 C 1,6 km/h (1 Bft)
15.09.2016 03:11 11,7 C 11,8 C 93 % 1008,6 hPa 0,0 mm 0,8 km/h (0 Bft) S 175 0 min 0,000 mm 0,0 UV-I 0 W/m 10,6 C 1,6 km/h (1 Bft)
15.09.2016 03:12 11,7 C 11,7 C 93 % 1008,7 hPa 0,0 mm 0,3 km/h (0 Bft) S 175 0 min 0,000 mm 0,0 UV-I 0 W/m 10,6 C 1,6 km/h (1 Bft)
15.09.2016 03:13 11,7 C 11,7 C 94 % 1008,7 hPa 0,0 mm 0,0 km/h (0 Bft) S 175 0 min 0,000 mm 0,0 UV-I 0 W/m 10,8 C 0,0 km/h (0 Bft)
15.09.2016 03:14 11,7 C 11,7 C 94 % 1008,7 hPa 0,0 mm 0,0 km/h (0 Bft) S 175 0 min 0,000 mm 0,0 UV-I 0 W/m 10,8 C 0,0 km/h (0 Bft)
15.09.2016 03:15 11,8 C 11,8 C 95 % 1008,6 hPa 0,0 mm 0,0 km/h (0 Bft) S 175 0 min 0,000 mm 0,0 UV-I 0 W/m 11,0 C 0,0 km/h (0 Bft)
15.09.2016 03:16 11,7 C 11,8 C 94 % 1008,6 hPa 0,0 mm 0,0 km/h (0 Bft) S 175 0 min 0,000 mm 0,0 UV-I 0 W/m 10,8 C 0,0 km/h (0 Bft)
15.09.2016 03:17 11,7 C 11,7 C 94 % 1008,6 hPa 0,0 mm 0,0 km/h (0 Bft) S 175 0 min 0,000 mm 0,0 UV-I 0 W/m 10,8 C 0,0 km/h (0 Bft)
15.09.2016 03:18 11,7 C 11,7 C 94 % 1008,6 hPa 0,0 mm 0,0 km/h (0 Bft) S 175 0 min 0,000 mm 0,0 UV-I 0 W/m 10,8 C 0,0 km/h (0 Bft)
15.09.2016 03:19 11,7 C 11,7 C 94 % 1008,6 hPa 0,0 mm 0,0 km/h (0 Bft) S 175 0 min 0,000 mm 0,0 UV-I 0 W/m 10,8 C 0,0 km/h (0 Bft)
15.09.2016 03:20 11,7 C 11,7 C 94 % 1008,6 hPa 0,0 mm 0,0 km/h (0 Bft) S 175 0 min 0,000 mm 0,0 UV-I 0 W/m 10,8 C 0,0 km/h (0 Bft)
15.09.2016 03:21 11,7 C 11,7 C 94 % 1008,6 hPa 0,0 mm 0,0 km/h (0 Bft) S 175 0 min 0,000 mm 0,0 UV-I 0 W/m 10,8 C 0,0 km/h (0 Bft)
15.09.2016 03:22 11,7 C 11,7 C 94 % 1008,5 hPa 0,0 mm 0,0 km/h (0 Bft) S 175 0 min 0,000 mm 0,0 UV-I 0 W/m 10,8 C 0,0 km/h (0 Bft)
15.09.2016 03:23 11,8 C 11,8 C 95 % 1008,6 hPa 0,0 mm 0,0 km/h (0 Bft) S 175 0 min 0,000 mm 0,0 UV-I 0 W/m 11,0 C 0,0 km/h (0 Bft)
15.09.2016 03:24 11,9 C 11,9 C 95 % 1008,5 hPa 0,0 mm 0,0 km/h (0 Bft) S 175 0 min 0,000 mm 0,0 UV-I 0 W/m 11,1 C 0,0 km/h (0 Bft)
15.09.2016 03:25 11,9 C 12,0 C 95 % 1008,5 hPa 0,0 mm 0,0 km/h (0 Bft) S 175 0 min 0,000 mm 0,0 UV-I 0 W/m 11,1 C 0,0 km/h (0 Bft)
15.09.2016 03:26 12,1 C 12,1 C 95 % 1008,5 hPa 0,0 mm 0,0 km/h (0 Bft) S 175 0 min 0,000 mm 0,0 UV-I 0 W/m 11,3 C 0,0 km/h (0 Bft)
15.09.2016 03:27 12,1 C 12,1 C 95 % 1008,5 hPa 0,0 mm 0,0 km/h (0 Bft) S 175 0 min 0,000 mm 0,0 UV-I 0 W/m 11,3 C 0,0 km/h (0 Bft)
15.09.2016 03:28 12,2 C 12,2 C 95 % 1008,5 hPa 0,0 mm 0,0 km/h (0 Bft) S 175 0 min 0,000 mm 0,0 UV-I 0 W/m 11,4 C 0,0 km/h (0 Bft)
15.09.2016 03:29 12,3 C 12,3 C 94 % 1008,4 hPa 0,0 mm 0,0 km/h (0 Bft) S 175 0 min 0,000 mm 0,0 UV-I 0 W/m 11,4 C 0,0 km/h (0 Bft)
15.09.2016 03:30 12,3 C 12,3 C 94 % 1008,5 hPa 0,0 mm 1,6 km/h (1 Bft) S 175 0 min 0,000 mm 0,0 UV-I 0 W/m 11,4 C 3,2 km/h (1 Bft)
15.09.2016 03:31 12,4 C 12,4 C 94 % 1008,5 hPa 0,0 mm 1,9 km/h (1 Bft) S 175 0 min 0,000 mm 0,0 UV-I 0 W/m 11,5 C 3,2 km/h (1 Bft)
15.09.2016 03:32 12,4 C 12,4 C 93 % 1008,5 hPa 0,0 mm 1,3 km/h (1 Bft) S 175 0 min 0,000 mm 0,0 UV-I 0 W/m 11,3 C 3,2 km/h (1 Bft)
15.09.2016 03:33 12,3 C 12,4 C 92 % 1008,5 hPa 0,0 mm 0,7 km/h (0 Bft) S 175 0 min 0,000 mm 0,0 UV-I 0 W/m 11,0 C 1,6 km/h (1 Bft)
15.09.2016 03:34 12,2 C 12,3 C 92 % 1008,4 hPa 0,0 mm 0,9 km/h (0 Bft) S 175 0 min 0,000 mm 0,0 UV-I 0 W/m 10,9 C 1,6 km/h (1 Bft)
15.09.2016 03:35 12,2 C 12,2 C 93 % 1008,4 hPa 0,0 mm 0,0 km/h (0 Bft) S 175 0 min 0,000 mm 0,0 UV-I 0 W/m 11,1 C 0,0 km/h (0 Bft)
15.09.2016 03:36 12,2 C 12,2 C 93 % 1008,4 hPa 0,0 mm 0,0 km/h (0 Bft) S 175 0 min 0,000 mm 0,0 UV-I 0 W/m 11,1 C 0,0 km/h (0 Bft)
15.09.2016 03:37 12,2 C 12,2 C 93 % 1008,4 hPa 0,0 mm 0,0 km/h (0 Bft) S 175 0 min 0,000 mm 0,0 UV-I 0 W/m 11,1 C 0,0 km/h (0 Bft)
15.09.2016 03:38 12,2 C 12,2 C 93 % 1008,4 hPa 0,0 mm 0,0 km/h (0 Bft) S 175 0 min 0,000 mm 0,0 UV-I 0 W/m 11,1 C 0,0 km/h (0 Bft)
15.09.2016 03:39 12,1 C 12,2 C 93 % 1008,4 hPa 0,0 mm 0,0 km/h (0 Bft) S 175 0 min 0,000 mm 0,0 UV-I 0 W/m 11,0 C 0,0 km/h (0 Bft)
15.09.2016 03:40 12,1 C 12,2 C 93 % 1008,3 hPa 0,0 mm 0,0 km/h (0 Bft) S 175 0 min 0,000 mm 0,0 UV-I 0 W/m 11,0 C 0,0 km/h (0 Bft)
15.09.2016 03:41 12,1 C 12,1 C 93 % 1008,3 hPa 0,0 mm 0,0 km/h (0 Bft) S 175 0 min 0,000 mm 0,0 UV-I 0 W/m 11,0 C 0,0 km/h (0 Bft)
15.09.2016 03:42 12,1 C 12,1 C 92 % 1008,3 hPa 0,0 mm 0,0 km/h (0 Bft) S 175 0 min 0,000 mm 0,0 UV-I 0 W/m 10,8 C 0,0 km/h (0 Bft)
15.09.2016 03:43 12,2 C 12,2 C 92 % 1008,3 hPa 0,0 mm 0,0 km/h (0 Bft) S 175 0 min 0,000 mm 0,0 UV-I 0 W/m 10,9 C 0,0 km/h (0 Bft)
15.09.2016 03:44 12,2 C 12,2 C 92 % 1008,3 hPa 0,0 mm 0,0 km/h (0 Bft) S 175 0 min 0,000 mm 0,0 UV-I 0 W/m 10,9 C 0,0 km/h (0 Bft)
15.09.2016 03:45 12,3 C 12,3 C 92 % 1008,3 hPa 0,0 mm 0,9 km/h (0 Bft) S 175 0 min 0,000 mm 0,0 UV-I 0 W/m 11,0 C 3,2 km/h (1 Bft)
15.09.2016 03:46 12,4 C 12,4 C 92 % 1008,3 hPa 0,0 mm 2,0 km/h (1 Bft) S 175 0 min 0,000 mm 0,0 UV-I 0 W/m 11,1 C 3,2 km/h (1 Bft)
15.09.2016 03:47 12,5 C 12,5 C 92 % 1008,2 hPa 0,0 mm 1,4 km/h (1 Bft) S 175 0 min 0,000 mm 0,0 UV-I 0 W/m 11,2 C 3,2 km/h (1 Bft)
15.09.2016 03:48 12,6 C 12,6 C 92 % 1008,2 hPa 0,0 mm 1,6 km/h (1 Bft) S 175 0 min 0,000 mm 0,0 UV-I 0 W/m 11,3 C 3,2 km/h (1 Bft)
15.09.2016 03:49 12,7 C 12,7 C 89 % 1008,2 hPa 0,0 mm 1,7 km/h (1 Bft) S 175 0 min 0,000 mm 0,0 UV-I 0 W/m 10,9 C 3,2 km/h (1 Bft)
15.09.2016 03:50 12,8 C 12,8 C 88 % 1008,2 hPa 0,0 mm 0,9 km/h (0 Bft) S 175 0 min 0,000 mm 0,0 UV-I 0 W/m 10,9 C 1,6 km/h (1 Bft)
15.09.2016 03:51 13,0 C 13,0 C 87 % 1008,1 hPa 0,0 mm 0,8 km/h (0 Bft) S 175 0 min 0,000 mm 0,0 UV-I 0 W/m 10,9 C 1,6 km/h (1 Bft)
15.09.2016 03:52 13,2 C 13,2 C 87 % 1008,1 hPa 0,0 mm 0,5 km/h (0 Bft) S 175 0 min 0,000 mm 0,0 UV-I 0 W/m 11,1 C 1,6 km/h (1 Bft)
15.09.2016 03:53 13,2 C 13,2 C 86 % 1008,1 hPa 0,0 mm 0,9 km/h (0 Bft) S 175 0 min 0,000 mm 0,0 UV-I 0 W/m 10,9 C 3,2 km/h (1 Bft)
15.09.2016 03:54 13,3 C 13,3 C 86 % 1008,2 hPa 0,0 mm 0,3 km/h (0 Bft) S 175 0 min 0,000 mm 0,0 UV-I 0 W/m 11,0 C 1,6 km/h (1 Bft)
15.09.2016 03:55 13,3 C 13,3 C 85 % 1008,2 hPa 0,0 mm 0,4 km/h (0 Bft) S 175 0 min 0,000 mm 0,0 UV-I 0 W/m 10,8 C 1,6 km/h (1 Bft)
15.09.2016 03:56 13,4 C 13,4 C 85 % 1008,2 hPa 0,0 mm 0,4 km/h (0 Bft) S 175 0 min 0,000 mm 0,0 UV-I 0 W/m 10,9 C 1,6 km/h (1 Bft)
15.09.2016 03:57 13,4 C 13,4 C 85 % 1008,2 hPa 0,0 mm 0,6 km/h (0 Bft) S 175 0 min 0,000 mm 0,0 UV-I 0 W/m 10,9 C 1,6 km/h (1 Bft)
15.09.2016 03:58 13,6 C 13,6 C 84 % 1008,2 hPa 0,0 mm 0,1 km/h (0 Bft) S 175 0 min 0,000 mm 0,0 UV-I 0 W/m 10,9 C 1,6 km/h (1 Bft)
15.09.2016 03:59 13,6 C 13,6 C 84 % 1008,2 hPa 0,0 mm 0,0 km/h (0 Bft) S 175 0 min 0,000 mm 0,0 UV-I 0 W/m 10,9 C 0,0 km/h (0 Bft)
15.09.2016 04:00 13,7 C 13,7 C 83 % 1008,1 hPa 0,0 mm 0,0 km/h (0 Bft) S 175 0 min 0,000 mm 0,0 UV-I 0 W/m 10,9 C 0,0 km/h (0 Bft)
15.09.2016 04:02 13,9 C 13,9 C 82 % 1008,2 hPa 0,0 mm 0,0 km/h (0 Bft) S 175 0 min 0,000 mm 0,0 UV-I 0 W/m 10,9 C 0,0 km/h (0 Bft)
15.09.2016 04:03 14,0 C 14,0 C 82 % 1008,2 hPa 0,0 mm 0,0 km/h (0 Bft) S 175 0 min 0,000 mm 0,0 UV-I 0 W/m 11,0 C 0,0 km/h (0 Bft)
15.09.2016 04:04 14,1 C 14,1 C 81 % 1008,1 hPa 0,0 mm 0,0 km/h (0 Bft) S 175 0 min 0,000 mm 0,0 UV-I 0 W/m 10,9 C 0,0 km/h (0 Bft)
15.09.2016 04:05 14,1 C 14,1 C 82 % 1008,2 hPa 0,0 mm 0,0 km/h (0 Bft) S 175 0 min 0,000 mm 0,0 UV-I 0 W/m 11,1 C 0,0 km/h (0 Bft)
15.09.2016 04:06 14,1 C 14,1 C 82 % 1008,2 hPa 0,0 mm 0,0 km/h (0 Bft) S 175 0 min 0,000 mm 0,0 UV-I 0 W/m 11,1 C 0,0 km/h (0 Bft)
15.09.2016 04:07 13,9 C 14,1 C 81 % 1008,1 hPa 0,0 mm 0,0 km/h (0 Bft) S 175 0 min 0,000 mm 0,0 UV-I 0 W/m 10,7 C 0,0 km/h (0 Bft)
15.09.2016 04:08 13,8 C 13,9 C 82 % 1008,1 hPa 0,0 mm 0,0 km/h (0 Bft) S 175 0 min 0,000 mm 0,0 UV-I 0 W/m 10,8 C 0,0 km/h (0 Bft)
15.09.2016 04:09 13,7 C 13,8 C 83 % 1008,1 hPa 0,0 mm 0,0 km/h (0 Bft) S 175 0 min 0,000 mm 0,0 UV-I 0 W/m 10,9 C 0,0 km/h (0 Bft)
15.09.2016 04:10 13,7 C 13,7 C 82 % 1008,1 hPa 0,0 mm 0,0 km/h (0 Bft) S 175 0 min 0,000 mm 0,0 UV-I 0 W/m 10,7 C 0,0 km/h (0 Bft)
15.09.2016 04:11 13,5 C 13,7 C 83 % 1008,1 hPa 0,0 mm 0,0 km/h (0 Bft) S 175 0 min 0,000 mm 0,0 UV-I 0 W/m 10,7 C 0,0 km/h (0 Bft)
15.09.2016 04:12 13,3 C 13,5 C 83 % 1008,1 hPa 0,0 mm 0,0 km/h (0 Bft) S 175 0 min 0,000 mm 0,0 UV-I 0 W/m 10,5 C 0,0 km/h (0 Bft)
15.09.2016 04:13 13,2 C 13,3 C 84 % 1008,1 hPa 0,0 mm 0,0 km/h (0 Bft) S 175 0 min 0,000 mm 0,0 UV-I 0 W/m 10,6 C 0,0 km/h (0 Bft)
15.09.2016 04:14 12,9 C 13,2 C 84 % 1008,1 hPa 0,0 mm 0,0 km/h (0 Bft) S 175 0 min 0,000 mm 0,0 UV-I 0 W/m 10,3 C 0,0 km/h (0 Bft)
15.09.2016 04:15 12,7 C 12,9 C 85 % 1008,0 hPa 0,0 mm 0,0 km/h (0 Bft) S 175 0 min 0,000 mm 0,0 UV-I 0 W/m 10,2 C 0,0 km/h (0 Bft)
15.09.2016 04:16 12,6 C 12,7 C 85 % 1008,1 hPa 0,0 mm 0,0 km/h (0 Bft) S 175 0 min 0,000 mm 0,0 UV-I 0 W/m 10,1 C 0,0 km/h (0 Bft)
15.09.2016 04:17 12,4 C 12,6 C 86 % 1008,0 hPa 0,0 mm 0,0 km/h (0 Bft) S 175 0 min 0,000 mm 0,0 UV-I 0 W/m 10,1 C 0,0 km/h (0 Bft)
15.09.2016 04:18 12,4 C 12,4 C 86 % 1008,1 hPa 0,0 mm 0,0 km/h (0 Bft) S 175 0 min 0,000 mm 0,0 UV-I 0 W/m 10,1 C 0,0 km/h (0 Bft)
15.09.2016 04:19 12,4 C 12,5 C 86 % 1008,1 hPa 0,0 mm 0,0 km/h (0 Bft) S 175 0 min 0,000 mm 0,0 UV-I 0 W/m 10,1 C 0,0 km/h (0 Bft)
15.09.2016 04:20 12,4 C 12,4 C 86 % 1008,1 hPa 0,0 mm 0,0 km/h (0 Bft) S 175 0 min 0,000 mm 0,0 UV-I 0 W/m 10,1 C 0,0 km/h (0 Bft)
15.09.2016 04:21 12,3 C 12,4 C 86 % 1008,1 hPa 0,0 mm 0,0 km/h (0 Bft) S 175 0 min 0,000 mm 0,0 UV-I 0 W/m 10,0 C 0,0 km/h (0 Bft)
15.09.2016 04:22 12,3 C 12,3 C 87 % 1008,1 hPa 0,0 mm 0,0 km/h (0 Bft) S 175 0 min 0,000 mm 0,0 UV-I 0 W/m 10,2 C 0,0 km/h (0 Bft)
15.09.2016 04:23 12,2 C 12,3 C 87 % 1008,1 hPa 0,0 mm 0,0 km/h (0 Bft) S 175 0 min 0,000 mm 0,0 UV-I 0 W/m 10,1 C 0,0 km/h (0 Bft)
15.09.2016 04:24 12,2 C 12,2 C 87 % 1008,1 hPa 0,0 mm 0,0 km/h (0 Bft) S 175 0 min 0,000 mm 0,0 UV-I 0 W/m 10,1 C 0,0 km/h (0 Bft)
15.09.2016 04:25 12,2 C 12,3 C 87 % 1008,1 hPa 0,0 mm 0,0 km/h (0 Bft) S 175 0 min 0,000 mm 0,0 UV-I 0 W/m 10,1 C 0,0 km/h (0 Bft)
15.09.2016 04:26 12,2 C 12,3 C 87 % 1008,1 hPa 0,0 mm 0,0 km/h (0 Bft) S 175 0 min 0,000 mm 0,0 UV-I 0 W/m 10,1 C 0,0 km/h (0 Bft)
15.09.2016 04:27 12,3 C 12,3 C 88 % 1008,1 hPa 0,0 mm 0,0 km/h (0 Bft) S 175 0 min 0,000 mm 0,0 UV-I 0 W/m 10,4 C 0,0 km/h (0 Bft)
15.09.2016 04:28 12,3 C 12,3 C 87 % 1008,1 hPa 0,0 mm 0,0 km/h (0 Bft) S 175 0 min 0,000 mm 0,0 UV-I 0 W/m 10,2 C 0,0 km/h (0 Bft)
15.09.2016 04:29 12,4 C 12,4 C 85 % 1008,0 hPa 0,0 mm 0,0 km/h (0 Bft) S 175 0 min 0,000 mm 0,0 UV-I 0 W/m 9,9 C 0,0 km/h (0 Bft)
15.09.2016 04:30 12,6 C 12,6 C 84 % 1008,1 hPa 0,0 mm 0,0 km/h (0 Bft) S 183 0 min 0,000 mm 0,0 UV-I 0 W/m 10,0 C 0,0 km/h (0 Bft)
15.09.2016 04:31 12,8 C 12,8 C 84 % 1008,1 hPa 0,0 mm 2,0 km/h (1 Bft) S-SW 206 0 min 0,000 mm 0,0 UV-I 0 W/m 10,2 C 6,4 km/h (2 Bft)
15.09.2016 04:32 12,9 C 12,9 C 84 % 1008,1 hPa 0,0 mm 4,2 km/h (1 Bft) S-SW 203 0 min 0,000 mm 0,0 UV-I 0 W/m 10,3 C 6,4 km/h (2 Bft)
15.09.2016 04:33 13,1 C 13,1 C 84 % 1008,0 hPa 0,0 mm 4,0 km/h (1 Bft) S 182 0 min 0,000 mm 0,0 UV-I 0 W/m 10,5 C 6,4 km/h (2 Bft)
15.09.2016 04:34 13,2 C 13,2 C 83 % 1008,1 hPa 0,0 mm 2,1 km/h (1 Bft) S 182 0 min 0,000 mm 0,0 UV-I 0 W/m 10,4 C 3,2 km/h (1 Bft)
15.09.2016 04:35 13,4 C 13,4 C 82 % 1008,1 hPa 0,0 mm 3,2 km/h (1 Bft) S 182 0 min 0,000 mm 0,0 UV-I 0 W/m 10,4 C 3,2 km/h (1 Bft)
15.09.2016 04:36 13,6 C 13,6 C 82 % 1008,1 hPa 0,0 mm 3,6 km/h (1 Bft) S-SO 161 0 min 0,000 mm 0,0 UV-I 0 W/m 10,6 C 6,4 km/h (2 Bft)
15.09.2016 04:37 13,7 C 13,7 C 82 % 1008,0 hPa 0,0 mm 4,8 km/h (1 Bft) SO 146 0 min 0,000 mm 0,0 UV-I 0 W/m 10,7 C 6,4 km/h (2 Bft)
15.09.2016 04:38 13,8 C 13,8 C 82 % 1008,1 hPa 0,0 mm 4,4 km/h (1 Bft) SO 146 0 min 0,000 mm 0,0 UV-I 0 W/m 10,8 C 6,4 km/h (2 Bft)
15.09.2016 04:39 13,9 C 13,9 C 81 % 1008,1 hPa 0,0 mm 4,1 km/h (1 Bft) SO 146 0 min 0,000 mm 0,0 UV-I 0 W/m 10,7 C 6,4 km/h (2 Bft)
15.09.2016 04:40 14,1 C 14,1 C 79 % 1008,1 hPa 0,0 mm 4,5 km/h (1 Bft) SO 146 0 min 0,000 mm 0,0 UV-I 0 W/m 10,5 C 6,4 km/h (2 Bft)
15.09.2016 04:41 14,2 C 14,2 C 79 % 1008,1 hPa 0,0 mm 4,1 km/h (1 Bft) SO 131 0 min 0,000 mm 0,0 UV-I 0 W/m 10,6 C 4,8 km/h (1 Bft)
15.09.2016 04:42 14,4 C 14,4 C 76 % 1008,1 hPa 0,0 mm 4,2 km/h (1 Bft) SO 131 0 min 0,000 mm 0,0 UV-I 0 W/m 10,2 C 6,4 km/h (2 Bft)
15.09.2016 04:43 14,7 C 14,7 C 75 % 1008,1 hPa 0,0 mm 3,9 km/h (1 Bft) SO 132 0 min 0,000 mm 0,0 UV-I 0 W/m 10,3 C 4,8 km/h (1 Bft)
15.09.2016 04:44 14,9 C 14,9 C 74 % 1008,1 hPa 0,0 mm 3,3 km/h (1 Bft) SO 132 0 min 0,000 mm 0,0 UV-I 0 W/m 10,3 C 4,8 km/h (1 Bft)
15.09.2016 04:45 15,1 C 15,1 C 73 % 1008,1 hPa 0,0 mm 3,5 km/h (1 Bft) SO 132 0 min 0,000 mm 0,0 UV-I 0 W/m 10,3 C 4,8 km/h (1 Bft)
15.09.2016 04:46 15,2 C 15,2 C 74 % 1008,2 hPa 0,0 mm 2,5 km/h (1 Bft) SO 132 0 min 0,000 mm 0,0 UV-I 0 W/m 10,6 C 3,2 km/h (1 Bft)
15.09.2016 04:47 15,3 C 15,3 C 72 % 1008,1 hPa 0,0 mm 2,3 km/h (1 Bft) SO 132 0 min 0,000 mm 0,0 UV-I 0 W/m 10,3 C 3,2 km/h (1 Bft)
15.09.2016 04:48 15,4 C 15,4 C 72 % 1008,1 hPa 0,0 mm 2,1 km/h (1 Bft) SO 132 0 min 0,000 mm 0,0 UV-I 0 W/m 10,4 C 3,2 km/h (1 Bft)
15.09.2016 04:49 15,4 C 15,4 C 73 % 1008,2 hPa 0,0 mm 3,3 km/h (1 Bft) SO 132 0 min 0,000 mm 0,0 UV-I 0 W/m 10,6 C 4,8 km/h (1 Bft)
15.09.2016 04:50 15,3 C 15,4 C 72 % 1008,2 hPa 0,0 mm 3,4 km/h (1 Bft) SO 132 0 min 0,000 mm 0,0 UV-I 0 W/m 10,3 C 4,8 km/h (1 Bft)
15.09.2016 04:51 15,3 C 15,3 C 73 % 1008,1 hPa 0,0 mm 2,9 km/h (1 Bft) SO 132 0 min 0,000 mm 0,0 UV-I 0 W/m 10,5 C 4,8 km/h (1 Bft)
15.09.2016 04:52 15,1 C 15,3 C 73 % 1008,1 hPa 0,0 mm 2,2 km/h (1 Bft) SO 132 0 min 0,000 mm 0,0 UV-I 0 W/m 10,3 C 3,2 km/h (1 Bft)
15.09.2016 04:53 15,1 C 15,1 C 72 % 1008,1 hPa 0,0 mm 2,5 km/h (1 Bft) SO 132 0 min 0,000 mm 0,0 UV-I 0 W/m 10,1 C 3,2 km/h (1 Bft)
15.09.2016 04:54 15,2 C 15,2 C 73 % 1008,1 hPa 0,0 mm 3,1 km/h (1 Bft) SO 132 0 min 0,000 mm 0,0 UV-I 0 W/m 10,4 C 3,2 km/h (1 Bft)
15.09.2016 04:55 15,1 C 15,2 C 74 % 1008,1 hPa 0,0 mm 2,2 km/h (1 Bft) SO 132 0 min 0,000 mm 0,0 UV-I 0 W/m 10,5 C 3,2 km/h (1 Bft)
15.09.2016 04:56 14,9 C 15,1 C 74 % 1008,0 hPa 0,0 mm 1,9 km/h (1 Bft) SO 132 0 min 0,000 mm 0,0 UV-I 0 W/m 10,3 C 3,2 km/h (1 Bft)
15.09.2016 04:57 14,8 C 14,9 C 74 % 1008,0 hPa 0,0 mm 2,3 km/h (1 Bft) SO 132 0 min 0,000 mm 0,0 UV-I 0 W/m 10,2 C 3,2 km/h (1 Bft)
15.09.2016 04:58 14,8 C 14,8 C 74 % 1008,0 hPa 0,0 mm 1,2 km/h (1 Bft) SO 132 0 min 0,000 mm 0,0 UV-I 0 W/m 10,2 C 1,6 km/h (1 Bft)
15.09.2016 04:59 14,7 C 14,8 C 74 % 1008,0 hPa 0,0 mm 1,0 km/h (0 Bft) SO 132 0 min 0,000 mm 0,0 UV-I 0 W/m 10,1 C 1,6 km/h (1 Bft)
15.09.2016 05:00 14,8 C 14,8 C 74 % 1008,0 hPa 0,0 mm 1,5 km/h (1 Bft) SO 132 0 min 0,000 mm 0,0 UV-I 0 W/m 10,2 C 3,2 km/h (1 Bft)
15.09.2016 05:01 14,8 C 14,8 C 73 % 1008,1 hPa 0,0 mm 0,2 km/h (0 Bft) SO 132 0 min 0,025 mm 0,0 UV-I 0 W/m 10,0 C 1,6 km/h (1 Bft)
15.09.2016 05:02 14,8 C 14,8 C 74 % 1008,0 hPa 0,0 mm 0,4 km/h (0 Bft) SO 132 0 min 0,000 mm 0,0 UV-I 0 W/m 10,2 C 1,6 km/h (1 Bft)
15.09.2016 05:03 14,8 C 14,8 C 74 % 1008,0 hPa 0,0 mm 0,5 km/h (0 Bft) SO 132 0 min 0,000 mm 0,0 UV-I 0 W/m 10,2 C 1,6 km/h (1 Bft)
15.09.2016 05:04 14,7 C 14,8 C 74 % 1008,0 hPa 0,0 mm 1,6 km/h (1 Bft) SO 132 0 min 0,000 mm 0,0 UV-I 0 W/m 10,1 C 1,6 km/h (1 Bft)
15.09.2016 05:05 14,7 C 14,7 C 75 % 1008,0 hPa 0,0 mm 1,7 km/h (1 Bft) SO 132 0 min 0,000 mm 0,0 UV-I 0 W/m 10,3 C 3,2 km/h (1 Bft)
15.09.2016 05:06 14,7 C 14,7 C 75 % 1008,0 hPa 0,0 mm 2,4 km/h (1 Bft) SO 132 0 min 0,000 mm 0,0 UV-I 0 W/m 10,3 C 3,2 km/h (1 Bft)
15.09.2016 05:07 14,7 C 14,7 C 74 % 1008,0 hPa 0,0 mm 1,2 km/h (1 Bft) SO 132 0 min 0,000 mm 0,0 UV-I 0 W/m 10,1 C 1,6 km/h (1 Bft)
15.09.2016 05:08 14,7 C 14,7 C 74 % 1008,0 hPa 0,0 mm 0,8 km/h (0 Bft) SO 132 0 min 0,000 mm 0,0 UV-I 0 W/m 10,1 C 1,6 km/h (1 Bft)
15.09.2016 05:09 14,8 C 14,8 C 73 % 1008,0 hPa 0,0 mm 0,1 km/h (0 Bft) SO 132 0 min 0,000 mm 0,0 UV-I 0 W/m 10,0 C 1,6 km/h (1 Bft)
15.09.2016 05:10 14,9 C 14,9 C 73 % 1008,0 hPa 0,0 mm 1,8 km/h (1 Bft) SO 132 0 min 0,000 mm 0,0 UV-I 0 W/m 10,1 C 3,2 km/h (1 Bft)
15.09.2016 05:11 14,9 C 14,9 C 74 % 1008,0 hPa 0,0 mm 1,9 km/h (1 Bft) SO 132 0 min 0,000 mm 0,0 UV-I 0 W/m 10,3 C 3,2 km/h (1 Bft)
15.09.2016 05:12 14,9 C 14,9 C 74 % 1007,9 hPa 0,0 mm 2,1 km/h (1 Bft) SO 132 0 min 0,000 mm 0,0 UV-I 0 W/m 10,3 C 3,2 km/h (1 Bft)
15.09.2016 05:13 14,8 C 14,9 C 73 % 1008,0 hPa 0,0 mm 2,0 km/h (1 Bft) SO 132 0 min 0,000 mm 0,0 UV-I 0 W/m 10,0 C 3,2 km/h (1 Bft)
15.09.2016 05:14 14,8 C 14,8 C 74 % 1008,0 hPa 0,0 mm 0,5 km/h (0 Bft) SO 132 0 min 0,000 mm 0,0 UV-I 0 W/m 10,2 C 1,6 km/h (1 Bft)
15.09.2016 05:15 14,8 C 14,8 C 73 % 1007,9 hPa 0,0 mm 0,0 km/h (0 Bft) SO 132 0 min 0,000 mm 0,0 UV-I 0 W/m 10,0 C 0,0 km/h (0 Bft)
15.09.2016 05:16 14,8 C 14,9 C 75 % 1007,9 hPa 0,0 mm 0,0 km/h (0 Bft) SO 132 0 min 0,000 mm 0,0 UV-I 0 W/m 10,4 C 0,0 km/h (0 Bft)
15.09.2016 05:17 14,9 C 14,9 C 74 % 1007,9 hPa 0,0 mm 0,0 km/h (0 Bft) SO 132 0 min 0,000 mm 0,0 UV-I 0 W/m 10,3 C 0,0 km/h (0 Bft)
15.09.2016 05:18 14,9 C 14,9 C 74 % 1008,0 hPa 0,0 mm 0,0 km/h (0 Bft) SO 132 0 min 0,000 mm 0,0 UV-I 0 W/m 10,3 C 0,0 km/h (0 Bft)
15.09.2016 05:19 14,9 C 14,9 C 75 % 1007,9 hPa 0,0 mm 0,0 km/h (0 Bft) SO 132 0 min 0,000 mm 0,0 UV-I 0 W/m 10,5 C 0,0 km/h (0 Bft)
15.09.2016 05:20 14,9 C 14,9 C 74 % 1007,9 hPa 0,0 mm 0,0 km/h (0 Bft) SO 132 0 min 0,000 mm 0,0 UV-I 0 W/m 10,3 C 0,0 km/h (0 Bft)
15.09.2016 05:21 14,7 C 14,9 C 74 % 1007,9 hPa 0,0 mm 0,0 km/h (0 Bft) SO 132 0 min 0,000 mm 0,0 UV-I 0 W/m 10,1 C 0,0 km/h (0 Bft)
15.09.2016 05:22 14,4 C 14,7 C 75 % 1007,9 hPa 0,0 mm 0,9 km/h (0 Bft) SO 132 0 min 0,000 mm 0,0 UV-I 0 W/m 10,0 C 3,2 km/h (1 Bft)
15.09.2016 05:23 14,1 C 14,4 C 76 % 1007,9 hPa 0,0 mm 3,1 km/h (1 Bft) N 355 0 min 0,000 mm 0,0 UV-I 0 W/m 9,9 C 4,8 km/h (1 Bft)
15.09.2016 05:24 13,8 C 14,1 C 77 % 1007,9 hPa 0,0 mm 2,2 km/h (1 Bft) N 355 0 min 0,000 mm 0,0 UV-I 0 W/m 9,8 C 3,2 km/h (1 Bft)
15.09.2016 05:25 13,6 C 13,8 C 78 % 1007,9 hPa 0,0 mm 0,6 km/h (0 Bft) N 355 0 min 0,000 mm 0,0 UV-I 0 W/m 9,8 C 1,6 km/h (1 Bft)
15.09.2016 05:26 13,4 C 13,6 C 78 % 1007,9 hPa 0,0 mm 0,0 km/h (0 Bft) N 355 0 min 0,000 mm 0,0 UV-I 0 W/m 9,6 C 0,0 km/h (0 Bft)
15.09.2016 05:27 13,3 C 13,4 C 78 % 1007,9 hPa 0,0 mm 0,1 km/h (0 Bft) N 355 0 min 0,000 mm 0,0 UV-I 0 W/m 9,5 C 1,6 km/h (1 Bft)
15.09.2016 05:28 13,3 C 13,4 C 78 % 1008,0 hPa 0,0 mm 0,2 km/h (0 Bft) N 355 0 min 0,000 mm 0,0 UV-I 0 W/m 9,5 C 1,6 km/h (1 Bft)
15.09.2016 05:29 13,4 C 13,4 C 78 % 1007,9 hPa 0,0 mm 0,6 km/h (0 Bft) N 355 0 min 0,000 mm 0,0 UV-I 0 W/m 9,6 C 1,6 km/h (1 Bft)
15.09.2016 05:30 13,4 C 13,4 C 79 % 1007,9 hPa 0,0 mm 0,8 km/h (0 Bft) N 355 0 min 0,000 mm 0,0 UV-I 0 W/m 9,8 C 1,6 km/h (1 Bft)
15.09.2016 05:31 13,4 C 13,4 C 79 % 1007,9 hPa 0,0 mm 0,3 km/h (0 Bft) N 355 0 min 0,000 mm 0,0 UV-I 0 W/m 9,8 C 1,6 km/h (1 Bft)
15.09.2016 05:32 13,3 C 13,4 C 79 % 1007,9 hPa 0,0 mm 0,0 km/h (0 Bft) N 355 0 min 0,000 mm 0,0 UV-I 0 W/m 9,7 C 0,0 km/h (0 Bft)
15.09.2016 05:33 13,3 C 13,3 C 79 % 1007,9 hPa 0,0 mm 0,0 km/h (0 Bft) N 355 0 min 0,000 mm 0,0 UV-I 0 W/m 9,7 C 0,0 km/h (0 Bft)
15.09.2016 05:34 13,2 C 13,3 C 81 % 1007,9 hPa 0,0 mm 0,7 km/h (0 Bft) N 360 0 min 0,000 mm 0,0 UV-I 0 W/m 10,0 C 1,6 km/h (1 Bft)
15.09.2016 05:35 13,2 C 13,2 C 80 % 1007,8 hPa 0,0 mm 1,6 km/h (1 Bft) NO 44 0 min 0,000 mm 0,0 UV-I 0 W/m 9,8 C 3,2 km/h (1 Bft)
15.09.2016 05:36 13,2 C 13,2 C 81 % 1007,9 hPa 0,0 mm 2,2 km/h (1 Bft) NO 44 0 min 0,000 mm 0,0 UV-I 0 W/m 10,0 C 3,2 km/h (1 Bft)
15.09.2016 05:37 13,3 C 13,3 C 81 % 1007,8 hPa 0,0 mm 1,8 km/h (1 Bft) NO 44 0 min 0,000 mm 0,0 UV-I 0 W/m 10,1 C 3,2 km/h (1 Bft)
15.09.2016 05:38 13,4 C 13,4 C 81 % 1007,9 hPa 0,0 mm 2,4 km/h (1 Bft) NO 46 0 min 0,000 mm 0,0 UV-I 0 W/m 10,2 C 3,2 km/h (1 Bft)
15.09.2016 05:39 13,6 C 13,6 C 79 % 1007,8 hPa 0,0 mm 2,3 km/h (1 Bft) NO 46 0 min 0,000 mm 0,0 UV-I 0 W/m 10,0 C 3,2 km/h (1 Bft)
15.09.2016 05:40 13,7 C 13,7 C 78 % 1007,8 hPa 0,0 mm 2,1 km/h (1 Bft) NO 46 0 min 0,000 mm 0,0 UV-I 0 W/m 9,9 C 3,2 km/h (1 Bft)
15.09.2016 05:41 13,8 C 13,8 C 76 % 1007,8 hPa 0,0 mm 2,3 km/h (1 Bft) O-NO 59 0 min 0,000 mm 0,0 UV-I 0 W/m 9,6 C 3,2 km/h (1 Bft)
15.09.2016 05:42 13,9 C 13,9 C 76 % 1007,8 hPa 0,0 mm 0,8 km/h (0 Bft) O-NO 59 0 min 0,000 mm 0,0 UV-I 0 W/m 9,7 C 3,2 km/h (1 Bft)
15.09.2016 05:43 14,1 C 14,1 C 75 % 1007,9 hPa 0,0 mm 0,2 km/h (0 Bft) O-NO 59 0 min 0,000 mm 0,0 UV-I 0 W/m 9,7 C 1,6 km/h (1 Bft)
15.09.2016 05:44 14,3 C 14,3 C 75 % 1007,9 hPa 0,0 mm 1,0 km/h (0 Bft) O-NO 59 0 min 0,000 mm 0,0 UV-I 0 W/m 9,9 C 3,2 km/h (1 Bft)
15.09.2016 05:45 14,6 C 14,6 C 74 % 1007,9 hPa 0,0 mm 2,3 km/h (1 Bft) O-NO 59 0 min 0,000 mm 0,0 UV-I 0 W/m 10,0 C 3,2 km/h (1 Bft)
15.09.2016 05:46 14,7 C 14,7 C 75 % 1007,9 hPa 0,0 mm 2,6 km/h (1 Bft) O-NO 59 0 min 0,000 mm 0,0 UV-I 0 W/m 10,3 C 3,2 km/h (1 Bft)
15.09.2016 05:47 14,8 C 14,8 C 73 % 1007,9 hPa 0,0 mm 1,3 km/h (1 Bft) O-NO 59 0 min 0,000 mm 0,0 UV-I 0 W/m 10,0 C 3,2 km/h (1 Bft)
15.09.2016 05:48 14,8 C 14,8 C 73 % 1007,8 hPa 0,0 mm 1,5 km/h (1 Bft) O-NO 59 0 min 0,000 mm 0,0 UV-I 0 W/m 10,0 C 3,2 km/h (1 Bft)
15.09.2016 05:49 14,8 C 14,8 C 73 % 1007,8 hPa 0,0 mm 1,5 km/h (1 Bft) O-NO 59 0 min 0,000 mm 0,0 UV-I 0 W/m 10,0 C 3,2 km/h (1 Bft)
15.09.2016 05:50 14,8 C 14,8 C 73 % 1007,9 hPa 0,0 mm 1,1 km/h (1 Bft) O-NO 59 0 min 0,000 mm 0,0 UV-I 0 W/m 10,0 C 3,2 km/h (1 Bft)
15.09.2016 05:51 14,9 C 14,9 C 72 % 1007,9 hPa 0,0 mm 0,7 km/h (0 Bft) O-NO 59 0 min 0,000 mm 0,0 UV-I 0 W/m 9,9 C 1,6 km/h (1 Bft)
15.09.2016 05:52 14,9 C 14,9 C 72 % 1007,9 hPa 0,0 mm 0,7 km/h (0 Bft) O-NO 59 0 min 0,000 mm 0,0 UV-I 0 W/m 9,9 C 1,6 km/h (1 Bft)
15.09.2016 05:53 14,7 C 14,9 C 74 % 1007,9 hPa 0,0 mm 1,5 km/h (1 Bft) O-NO 59 0 min 0,000 mm 0,0 UV-I 0 W/m 10,1 C 3,2 km/h (1 Bft)
15.09.2016 05:54 14,3 C 14,7 C 75 % 1007,9 hPa 0,0 mm 1,9 km/h (1 Bft) N 9 0 min 0,000 mm 0,0 UV-I 0 W/m 9,9 C 4,8 km/h (1 Bft)
15.09.2016 05:55 14,1 C 14,3 C 75 % 1007,9 hPa 0,0 mm 0,2 km/h (0 Bft) N 10 0 min 0,000 mm 0,0 UV-I 0 W/m 9,7 C 1,6 km/h (1 Bft)
15.09.2016 05:56 13,7 C 14,1 C 76 % 1007,9 hPa 0,0 mm 0,0 km/h (0 Bft) N 10 0 min 0,000 mm 0,0 UV-I 0 W/m 9,5 C 0,0 km/h (0 Bft)
15.09.2016 05:57 13,4 C 13,7 C 77 % 1007,9 hPa 0,0 mm 1,2 km/h (1 Bft) N 9 0 min 0,000 mm 0,0 UV-I 0 W/m 9,5 C 3,2 km/h (1 Bft)
15.09.2016 05:58 13,1 C 13,4 C 78 % 1007,9 hPa 0,0 mm 0,9 km/h (0 Bft) N 10 0 min 0,000 mm 0,0 UV-I 0 W/m 9,4 C 3,2 km/h (1 Bft)
15.09.2016 05:59 12,8 C 13,1 C 79 % 1007,9 hPa 0,0 mm 1,2 km/h (1 Bft) N 9 0 min 0,000 mm 0,0 UV-I 0 W/m 9,2 C 3,2 km/h (1 Bft)
15.09.2016 06:00 12,7 C 12,8 C 79 % 1007,9 hPa 0,0 mm 0,2 km/h (0 Bft) N 10 0 min 0,026 mm 0,0 UV-I 0 W/m 9,2 C 1,6 km/h (1 Bft)
15.09.2016 06:01 12,6 C 12,7 C 80 % 1007,9 hPa 0,0 mm 0,0 km/h (0 Bft) N 9 0 min 0,000 mm 0,0 UV-I 0 W/m 9,2 C 0,0 km/h (0 Bft)
15.09.2016 06:02 12,6 C 12,6 C 80 % 1007,9 hPa 0,0 mm 0,3 km/h (0 Bft) N 9 0 min 0,000 mm 0,0 UV-I 0 W/m 9,2 C 1,6 km/h (1 Bft)
15.09.2016 06:03 12,6 C 12,6 C 80 % 1007,9 hPa 0,0 mm 1,0 km/h (0 Bft) N 9 0 min 0,000 mm 0,0 UV-I 0 W/m 9,2 C 1,6 km/h (1 Bft)
15.09.2016 06:04 12,6 C 12,6 C 80 % 1007,9 hPa 0,0 mm 0,2 km/h (0 Bft) N 9 0 min 0,000 mm 0,0 UV-I 0 W/m 9,2 C 1,6 km/h (1 Bft)
15.09.2016 06:05 12,6 C 12,6 C 80 % 1007,9 hPa 0,0 mm 0,0 km/h (0 Bft) N 9 0 min 0,000 mm 0,0 UV-I 0 W/m 9,2 C 0,0 km/h (0 Bft)
15.09.2016 06:06 12,6 C 12,6 C 80 % 1007,9 hPa 0,0 mm 0,2 km/h (0 Bft) N 9 0 min 0,000 mm 0,0 UV-I 0 W/m 9,2 C 1,6 km/h (1 Bft)
15.09.2016 06:07 12,7 C 12,7 C 80 % 1007,9 hPa 0,0 mm 0,1 km/h (0 Bft) N 9 0 min 0,000 mm 0,0 UV-I 0 W/m 9,3 C 1,6 km/h (1 Bft)
15.09.2016 06:08 12,7 C 12,7 C 80 % 1007,9 hPa 0,0 mm 0,3 km/h (0 Bft) N 9 0 min 0,000 mm 0,0 UV-I 0 W/m 9,3 C 1,6 km/h (1 Bft)
15.09.2016 06:09 12,7 C 12,7 C 80 % 1008,0 hPa 0,0 mm 0,5 km/h (0 Bft) N 9 0 min 0,000 mm 0,0 UV-I 0 W/m 9,3 C 1,6 km/h (1 Bft)
15.09.2016 06:10 12,7 C 12,7 C 81 % 1008,0 hPa 0,0 mm 1,2 km/h (1 Bft) N 10 0 min 0,000 mm 0,0 UV-I 0 W/m 9,5 C 1,6 km/h (1 Bft)
15.09.2016 06:11 12,8 C 12,8 C 81 % 1008,0 hPa 0,0 mm 1,2 km/h (1 Bft) N-NO 27 0 min 0,000 mm 0,0 UV-I 0 W/m 9,6 C 3,2 km/h (1 Bft)
15.09.2016 06:12 12,8 C 12,8 C 82 % 1008,0 hPa 0,0 mm 0,9 km/h (0 Bft) N-NO 27 0 min 0,000 mm 0,0 UV-I 0 W/m 9,8 C 3,2 km/h (1 Bft)
15.09.2016 06:13 12,9 C 12,9 C 80 % 1008,0 hPa 0,0 mm 2,1 km/h (1 Bft) N-NO 27 0 min 0,000 mm 0,0 UV-I 0 W/m 9,5 C 3,2 km/h (1 Bft)
15.09.2016 06:14 13,1 C 13,1 C 81 % 1008,0 hPa 0,0 mm 1,1 km/h (1 Bft) N-NO 27 0 min 0,000 mm 0,0 UV-I 0 W/m 9,9 C 3,2 km/h (1 Bft)
15.09.2016 06:15 13,3 C 13,3 C 78 % 1008,0 hPa 0,0 mm 0,0 km/h (0 Bft) N-NO 27 0 min 0,000 mm 0,0 UV-I 0 W/m 9,5 C 0,0 km/h (0 Bft)
15.09.2016 06:16 13,5 C 13,5 C 78 % 1008,0 hPa 0,0 mm 0,5 km/h (0 Bft) N-NO 27 0 min 0,000 mm 0,0 UV-I 0 W/m 9,7 C 1,6 km/h (1 Bft)
15.09.2016 06:17 13,5 C 13,5 C 80 % 1008,0 hPa 0,0 mm 0,7 km/h (0 Bft) N-NO 27 0 min 0,000 mm 0,0 UV-I 0 W/m 10,1 C 1,6 km/h (1 Bft)
15.09.2016 06:18 13,3 C 13,5 C 79 % 1008,0 hPa 0,0 mm 0,0 km/h (0 Bft) N-NO 27 0 min 0,000 mm 0,0 UV-I 0 W/m 9,7 C 0,0 km/h (0 Bft)
15.09.2016 06:19 13,2 C 13,3 C 79 % 1008,0 hPa 0,0 mm 1,9 km/h (1 Bft) NW 304 0 min 0,000 mm 0,0 UV-I 0 W/m 9,6 C 4,8 km/h (1 Bft)
15.09.2016 06:20 12,9 C 13,2 C 79 % 1008,0 hPa 0,0 mm 3,1 km/h (1 Bft) NW 304 0 min 0,000 mm 0,0 UV-I 0 W/m 9,3 C 4,8 km/h (1 Bft)
15.09.2016 06:21 12,6 C 12,9 C 80 % 1008,0 hPa 0,0 mm 0,6 km/h (0 Bft) NW 304 0 min 0,000 mm 0,0 UV-I 0 W/m 9,2 C 1,6 km/h (1 Bft)
15.09.2016 06:22 12,4 C 12,6 C 81 % 1008,0 hPa 0,0 mm 0,0 km/h (0 Bft) NW 304 0 min 0,000 mm 0,0 UV-I 0 W/m 9,2 C 0,0 km/h (0 Bft)
15.09.2016 06:23 12,3 C 12,4 C 81 % 1008,0 hPa 0,0 mm 0,0 km/h (0 Bft) NW 304 0 min 0,000 mm 0,0 UV-I 0 W/m 9,1 C 0,0 km/h (0 Bft)
15.09.2016 06:24 12,2 C 12,3 C 81 % 1007,9 hPa 0,0 mm 0,0 km/h (0 Bft) NW 304 0 min 0,000 mm 0,0 UV-I 0 W/m 9,0 C 0,0 km/h (0 Bft)
15.09.2016 06:25 12,2 C 12,2 C 82 % 1007,9 hPa 0,0 mm 0,6 km/h (0 Bft) NW 304 0 min 0,000 mm 0,0 UV-I 0 W/m 9,2 C 1,6 km/h (1 Bft)
15.09.2016 06:26 12,2 C 12,2 C 82 % 1007,9 hPa 0,0 mm 1,1 km/h (1 Bft) NW 304 0 min 0,000 mm 0,0 UV-I 0 W/m 9,2 C 3,2 km/h (1 Bft)
15.09.2016 06:27 12,3 C 12,3 C 81 % 1008,0 hPa 0,0 mm 0,7 km/h (0 Bft) NW 304 0 min 0,000 mm 0,0 UV-I 0 W/m 9,1 C 1,6 km/h (1 Bft)
15.09.2016 06:28 12,3 C 12,3 C 82 % 1007,9 hPa 0,0 mm 0,3 km/h (0 Bft) NW 304 0 min 0,000 mm 0,0 UV-I 0 W/m 9,3 C 1,6 km/h (1 Bft)
15.09.2016 06:29 12,3 C 12,3 C 83 % 1008,0 hPa 0,0 mm 2,8 km/h (1 Bft) NW 304 0 min 0,000 mm 0,0 UV-I 0 W/m 9,5 C 4,8 km/h (1 Bft)
15.09.2016 06:30 12,2 C 12,3 C 82 % 1008,0 hPa 0,0 mm 2,5 km/h (1 Bft) NW 304 0 min 0,000 mm 0,0 UV-I 0 W/m 9,2 C 3,2 km/h (1 Bft)
15.09.2016 06:31 12,2 C 12,2 C 83 % 1008,0 hPa 0,0 mm 1,8 km/h (1 Bft) NW 304 0 min 0,000 mm 0,0 UV-I 0 W/m 9,4 C 3,2 km/h (1 Bft)
15.09.2016 06:32 12,0 C 12,2 C 83 % 1008,0 hPa 0,0 mm 0,4 km/h (0 Bft) NW 304 0 min 0,000 mm 0,0 UV-I 0 W/m 9,2 C 1,6 km/h (1 Bft)
15.09.2016 06:33 11,9 C 12,0 C 84 % 1007,9 hPa 0,0 mm 0,0 km/h (0 Bft) NW 304 0 min 0,000 mm 0,0 UV-I 0 W/m 9,3 C 0,0 km/h (0 Bft)
15.09.2016 06:34 11,9 C 11,9 C 84 % 1008,0 hPa 0,0 mm 0,7 km/h (0 Bft) NW 304 0 min 0,000 mm 0,0 UV-I 0 W/m 9,3 C 1,6 km/h (1 Bft)
15.09.2016 06:35 11,8 C 11,9 C 84 % 1007,9 hPa 0,0 mm 0,9 km/h (0 Bft) NW 304 0 min 0,000 mm 0,0 UV-I 0 W/m 9,2 C 1,6 km/h (1 Bft)
15.09.2016 06:36 11,8 C 11,8 C 84 % 1007,9 hPa 0,0 mm 0,1 km/h (0 Bft) NW 304 0 min 0,000 mm 0,0 UV-I 0 W/m 9,2 C 1,6 km/h (1 Bft)
15.09.2016 06:37 11,8 C 11,8 C 85 % 1007,9 hPa 0,0 mm 0,0 km/h (0 Bft) NW 304 0 min 0,000 mm 0,0 UV-I 0 W/m 9,4 C 0,0 km/h (0 Bft)
15.09.2016 06:38 11,9 C 11,9 C 84 % 1008,0 hPa 0,0 mm 0,0 km/h (0 Bft) NW 304 0 min 0,000 mm 0,0 UV-I 0 W/m 9,3 C 0,0 km/h (0 Bft)
15.09.2016 06:39 11,9 C 11,9 C 84 % 1007,9 hPa 0,0 mm 0,0 km/h (0 Bft) NW 304 0 min 0,000 mm 0,0 UV-I 0 W/m 9,3 C 0,0 km/h (0 Bft)
15.09.2016 06:40 11,8 C 11,9 C 84 % 1008,0 hPa 0,0 mm 0,0 km/h (0 Bft) NW 304 0 min 0,000 mm 0,0 UV-I 0 W/m 9,2 C 0,0 km/h (0 Bft)
15.09.2016 06:41 11,8 C 11,8 C 84 % 1008,0 hPa 0,0 mm 0,1 km/h (0 Bft) NW 304 0 min 0,000 mm 0,0 UV-I 0 W/m 9,2 C 1,6 km/h (1 Bft)
15.09.2016 06:42 11,7 C 11,8 C 84 % 1008,0 hPa 0,0 mm 0,0 km/h (0 Bft) NW 304 0 min 0,000 mm 0,0 UV-I 0 W/m 9,1 C 0,0 km/h (0 Bft)
15.09.2016 06:43 11,7 C 11,7 C 85 % 1008,0 hPa 0,0 mm 0,0 km/h (0 Bft) NW 304 0 min 0,000 mm 0,0 UV-I 0 W/m 9,3 C 0,0 km/h (0 Bft)
15.09.2016 06:44 11,7 C 11,7 C 85 % 1008,0 hPa 0,0 mm 0,1 km/h (0 Bft) NW 304 0 min 0,000 mm 0,0 UV-I 0 W/m 9,3 C 1,6 km/h (1 Bft)
15.09.2016 06:45 11,8 C 11,8 C 85 % 1008,0 hPa 0,0 mm 0,0 km/h (0 Bft) NW 304 0 min 0,000 mm 0,0 UV-I 0 W/m 9,4 C 0,0 km/h (0 Bft)
15.09.2016 06:46 11,7 C 11,8 C 85 % 1008,0 hPa 0,0 mm 0,0 km/h (0 Bft) NW 304 0 min 0,000 mm 0,0 UV-I 0 W/m 9,3 C 0,0 km/h (0 Bft)
15.09.2016 06:47 11,8 C 11,8 C 85 % 1008,0 hPa 0,0 mm 0,0 km/h (0 Bft) NW 304 0 min 0,000 mm 0,0 UV-I 0 W/m 9,4 C 0,0 km/h (0 Bft)
15.09.2016 06:48 11,8 C 11,8 C 85 % 1008,0 hPa 0,0 mm 0,0 km/h (0 Bft) NW 304 0 min 0,000 mm 0,0 UV-I 0 W/m 9,4 C 0,0 km/h (0 Bft)
15.09.2016 06:49 11,8 C 11,8 C 85 % 1008,0 hPa 0,0 mm 0,7 km/h (0 Bft) NW 304 0 min 0,000 mm 0,0 UV-I 0 W/m 9,4 C 1,6 km/h (1 Bft)
15.09.2016 06:50 11,8 C 11,8 C 85 % 1008,0 hPa 0,0 mm 0,5 km/h (0 Bft) NW 304 0 min 0,000 mm 0,0 UV-I 0 W/m 9,4 C 1,6 km/h (1 Bft)
15.09.2016 06:51 11,8 C 11,8 C 84 % 1008,1 hPa 0,0 mm 1,3 km/h (1 Bft) NW 304 0 min 0,000 mm 0,0 UV-I 0 W/m 9,2 C 1,6 km/h (1 Bft)
15.09.2016 06:52 11,8 C 11,8 C 84 % 1008,0 hPa 0,0 mm 1,7 km/h (1 Bft) NW 304 0 min 0,000 mm 0,0 UV-I 0 W/m 9,2 C 3,2 km/h (1 Bft)
15.09.2016 06:53 11,8 C 11,8 C 85 % 1008,0 hPa 0,0 mm 1,5 km/h (1 Bft) NW 306 0 min 0,000 mm 0,0 UV-I 0 W/m 9,4 C 3,2 km/h (1 Bft)
15.09.2016 06:54 11,7 C 11,8 C 85 % 1008,0 hPa 0,0 mm 1,1 km/h (1 Bft) NW 306 0 min 0,000 mm 0,0 UV-I 0 W/m 9,3 C 3,2 km/h (1 Bft)
15.09.2016 06:55 11,8 C 11,8 C 85 % 1008,0 hPa 0,0 mm 1,4 km/h (1 Bft) NW 306 0 min 0,000 mm 0,0 UV-I 0 W/m 9,4 C 3,2 km/h (1 Bft)
15.09.2016 06:56 11,9 C 11,9 C 85 % 1008,0 hPa 0,0 mm 2,1 km/h (1 Bft) NW 306 0 min 0,000 mm 0,0 UV-I 5 W/m 9,5 C 3,2 km/h (1 Bft)
15.09.2016 06:57 12,1 C 12,1 C 86 % 1008,0 hPa 0,0 mm 2,1 km/h (1 Bft) NW 306 0 min 0,000 mm 0,0 UV-I 5 W/m 9,8 C 3,2 km/h (1 Bft)
15.09.2016 06:58 12,3 C 12,3 C 86 % 1007,9 hPa 0,0 mm 2,4 km/h (1 Bft) NW 306 0 min 0,000 mm 0,0 UV-I 5 W/m 10,0 C 3,2 km/h (1 Bft)
15.09.2016 06:59 12,4 C 12,4 C 85 % 1007,9 hPa 0,0 mm 2,9 km/h (1 Bft) NW 306 0 min 0,000 mm 0,0 UV-I 5 W/m 9,9 C 3,2 km/h (1 Bft)
15.09.2016 07:00 12,5 C 12,5 C 83 % 1007,9 hPa 0,0 mm 2,1 km/h (1 Bft) NW 306 0 min 0,000 mm 0,0 UV-I 5 W/m 9,7 C 3,2 km/h (1 Bft)
15.09.2016 07:01 12,7 C 12,7 C 82 % 1007,9 hPa 0,0 mm 2,5 km/h (1 Bft) NW 306 0 min 0,000 mm 0,0 UV-I 7 W/m 9,7 C 3,2 km/h (1 Bft)
15.09.2016 07:02 12,9 C 12,9 C 81 % 1007,9 hPa 0,0 mm 2,0 km/h (1 Bft) NW 311 0 min 0,000 mm 0,0 UV-I 7 W/m 9,7 C 3,2 km/h (1 Bft)
15.09.2016 07:03 13,2 C 13,2 C 78 % 1007,9 hPa 0,0 mm 0,1 km/h (0 Bft) NW 311 0 min 0,000 mm 0,0 UV-I 7 W/m 9,4 C 1,6 km/h (1 Bft)
15.09.2016 07:04 13,4 C 13,4 C 77 % 1007,9 hPa 0,0 mm 0,3 km/h (0 Bft) NW 311 0 min 0,000 mm 0,0 UV-I 7 W/m 9,5 C 1,6 km/h (1 Bft)
15.09.2016 07:05 13,8 C 13,8 C 75 % 1007,9 hPa 0,0 mm 1,0 km/h (0 Bft) NW 311 0 min 0,000 mm 0,0 UV-I 9 W/m 9,4 C 1,6 km/h (1 Bft)
15.09.2016 07:06 13,9 C 13,9 C 75 % 1008,0 hPa 0,0 mm 1,0 km/h (0 Bft) NW 311 0 min 0,000 mm 0,0 UV-I 9 W/m 9,5 C 1,6 km/h (1 Bft)
15.09.2016 07:07 14,2 C 14,2 C 75 % 1008,0 hPa 0,0 mm 1,1 km/h (1 Bft) NW 311 0 min 0,000 mm 0,0 UV-I 9 W/m 9,8 C 1,6 km/h (1 Bft)
15.09.2016 07:08 14,3 C 14,3 C 73 % 1008,0 hPa 0,0 mm 1,1 km/h (1 Bft) NW 311 0 min 0,000 mm 0,0 UV-I 9 W/m 9,5 C 4,8 km/h (1 Bft)
15.09.2016 07:09 14,2 C 14,3 C 73 % 1008,0 hPa 0,0 mm 2,3 km/h (1 Bft) NW 311 0 min 0,000 mm 0,0 UV-I 9 W/m 9,4 C 4,8 km/h (1 Bft)
15.09.2016 07:10 14,2 C 14,3 C 72 % 1008,0 hPa 0,0 mm 2,8 km/h (1 Bft) NW 311 0 min 0,000 mm 0,0 UV-I 11 W/m 9,2 C 4,8 km/h (1 Bft)
15.09.2016 07:11 14,1 C 14,2 C 73 % 1008,0 hPa 0,0 mm 2,4 km/h (1 Bft) NW 311 0 min 0,000 mm 0,0 UV-I 11 W/m 9,3 C 4,8 km/h (1 Bft)
15.09.2016 07:12 13,9 C 14,1 C 72 % 1008,0 hPa 0,0 mm 0,8 km/h (0 Bft) NW 311 0 min 0,000 mm 0,0 UV-I 11 W/m 8,9 C 3,2 km/h (1 Bft)
15.09.2016 07:13 13,7 C 13,9 C 73 % 1008,0 hPa 0,0 mm 1,5 km/h (1 Bft) NW 311 0 min 0,000 mm 0,0 UV-I 11 W/m 8,9 C 3,2 km/h (1 Bft)
15.09.2016 07:14 13,7 C 13,8 C 73 % 1008,0 hPa 0,0 mm 0,3 km/h (0 Bft) NW 311 0 min 0,000 mm 0,0 UV-I 11 W/m 8,9 C 1,6 km/h (1 Bft)
15.09.2016 07:15 13,7 C 13,7 C 74 % 1008,0 hPa 0,0 mm 0,0 km/h (0 Bft) NW 311 0 min 0,000 mm 0,0 UV-I 12 W/m 9,2 C 0,0 km/h (0 Bft)
15.09.2016 07:16 13,6 C 13,7 C 75 % 1008,0 hPa 0,0 mm 0,5 km/h (0 Bft) NW 311 0 min 0,000 mm 0,0 UV-I 12 W/m 9,3 C 1,6 km/h (1 Bft)
15.09.2016 07:17 13,6 C 13,6 C 74 % 1008,0 hPa 0,0 mm 0,7 km/h (0 Bft) NW 311 0 min 0,000 mm 0,0 UV-I 12 W/m 9,1 C 1,6 km/h (1 Bft)
15.09.2016 07:18 13,5 C 13,6 C 75 % 1008,0 hPa 0,0 mm 0,8 km/h (0 Bft) NW 311 0 min 0,000 mm 0,0 UV-I 12 W/m 9,2 C 1,6 km/h (1 Bft)
15.09.2016 07:19 13,6 C 13,6 C 74 % 1008,0 hPa 0,0 mm 0,1 km/h (0 Bft) NW 311 0 min 0,000 mm 0,0 UV-I 14 W/m 9,1 C 1,6 km/h (1 Bft)
15.09.2016 07:20 13,8 C 13,8 C 75 % 1008,0 hPa 0,0 mm 0,7 km/h (0 Bft) NW 311 0 min 0,000 mm 0,0 UV-I 14 W/m 9,4 C 1,6 km/h (1 Bft)
15.09.2016 07:21 13,9 C 13,9 C 75 % 1008,1 hPa 0,0 mm 1,9 km/h (1 Bft) NW 311 0 min 0,000 mm 0,0 UV-I 14 W/m 9,5 C 3,2 km/h (1 Bft)
15.09.2016 07:22 14,1 C 14,1 C 76 % 1008,0 hPa 0,0 mm 2,2 km/h (1 Bft) NW 311 0 min 0,000 mm 0,0 UV-I 14 W/m 9,9 C 4,8 km/h (1 Bft)
15.09.2016 07:23 14,3 C 14,3 C 75 % 1008,1 hPa 0,0 mm 1,4 km/h (1 Bft) NW 311 0 min 0,000 mm 0,0 UV-I 14 W/m 9,9 C 3,2 km/h (1 Bft)
15.09.2016 07:24 14,4 C 14,4 C 73 % 1008,1 hPa 0,0 mm 0,6 km/h (0 Bft) NW 311 0 min 0,000 mm 0,0 UV-I 16 W/m 9,6 C 1,6 km/h (1 Bft)
15.09.2016 07:25 14,4 C 14,4 C 74 % 1008,2 hPa 0,0 mm 1,1 km/h (1 Bft) NW 311 0 min 0,000 mm 0,0 UV-I 16 W/m 9,8 C 3,2 km/h (1 Bft)
15.09.2016 07:26 14,6 C 14,6 C 72 % 1008,2 hPa 0,0 mm 0,4 km/h (0 Bft) NW 311 0 min 0,000 mm 0,0 UV-I 16 W/m 9,6 C 1,6 km/h (1 Bft)
15.09.2016 07:27 14,7 C 14,7 C 71 % 1008,2 hPa 0,0 mm 1,5 km/h (1 Bft) NW 312 0 min 0,000 mm 0,0 UV-I 16 W/m 9,5 C 3,2 km/h (1 Bft)
15.09.2016 07:28 14,9 C 14,9 C 72 % 1008,2 hPa 0,0 mm 1,7 km/h (1 Bft) NW 312 0 min 0,000 mm 0,0 UV-I 16 W/m 9,9 C 3,2 km/h (1 Bft)
15.09.2016 07:29 14,9 C 14,9 C 72 % 1008,2 hPa 0,0 mm 0,5 km/h (0 Bft) NW 312 0 min 0,000 mm 0,0 UV-I 18 W/m 9,9 C 1,6 km/h (1 Bft)
15.09.2016 07:30 15,0 C 15,0 C 71 % 1008,2 hPa 0,0 mm 1,4 km/h (1 Bft) NW 313 0 min 0,000 mm 0,0 UV-I 18 W/m 9,8 C 3,2 km/h (1 Bft)
15.09.2016 07:31 14,9 C 15,0 C 74 % 1008,1 hPa 0,0 mm 2,5 km/h (1 Bft) O-NO 68 0 min 0,000 mm 0,0 UV-I 18 W/m 10,3 C 4,8 km/h (1 Bft)
15.09.2016 07:32 14,8 C 14,9 C 74 % 1008,2 hPa 0,0 mm 0,4 km/h (0 Bft) O-NO 69 0 min 0,000 mm 0,0 UV-I 18 W/m 10,2 C 1,6 km/h (1 Bft)
15.09.2016 07:33 14,9 C 14,9 C 73 % 1008,0 hPa 0,0 mm 0,3 km/h (0 Bft) O-NO 69 0 min 0,000 mm 0,0 UV-I 18 W/m 10,1 C 1,6 km/h (1 Bft)
15.09.2016 07:34 14,9 C 14,9 C 73 % 1008,1 hPa 0,0 mm 2,3 km/h (1 Bft) O 80 0 min 0,000 mm 0,0 UV-I 19 W/m 10,1 C 4,8 km/h (1 Bft)
15.09.2016 07:35 15,1 C 15,1 C 71 % 1008,1 hPa 0,0 mm 2,0 km/h (1 Bft) O 80 0 min 0,000 mm 0,0 UV-I 19 W/m 9,9 C 3,2 km/h (1 Bft)
15.09.2016 07:36 15,2 C 15,2 C 71 % 1008,1 hPa 0,0 mm 0,7 km/h (0 Bft) O 80 0 min 0,000 mm 0,0 UV-I 19 W/m 10,0 C 1,6 km/h (1 Bft)
15.09.2016 07:37 15,3 C 15,3 C 71 % 1008,1 hPa 0,0 mm 0,7 km/h (0 Bft) O 80 0 min 0,000 mm 0,0 UV-I 19 W/m 10,1 C 1,6 km/h (1 Bft)
15.09.2016 07:38 15,4 C 15,4 C 71 % 1008,1 hPa 0,0 mm 1,9 km/h (1 Bft) O 80 0 min 0,000 mm 0,0 UV-I 19 W/m 10,2 C 3,2 km/h (1 Bft)
15.09.2016 07:39 15,4 C 15,4 C 70 % 1008,1 hPa 0,0 mm 1,4 km/h (1 Bft) N 5 0 min 0,000 mm 0,0 UV-I 21 W/m 10,0 C 3,2 km/h (1 Bft)
15.09.2016 07:40 15,3 C 15,4 C 70 % 1008,1 hPa 0,0 mm 3,2 km/h (1 Bft) O 84 0 min 0,000 mm 0,0 UV-I 21 W/m 9,9 C 4,8 km/h (1 Bft)
15.09.2016 07:41 15,4 C 15,4 C 70 % 1008,1 hPa 0,0 mm 1,4 km/h (1 Bft) O 84 0 min 0,000 mm 0,0 UV-I 21 W/m 10,0 C 3,2 km/h (1 Bft)
15.09.2016 07:42 15,4 C 15,4 C 70 % 1008,0 hPa 0,0 mm 1,3 km/h (1 Bft) O 84 0 min 0,000 mm 0,0 UV-I 21 W/m 10,0 C 3,2 km/h (1 Bft)
15.09.2016 07:43 15,4 C 15,4 C 69 % 1008,1 hPa 0,0 mm 0,9 km/h (0 Bft) O 84 0 min 0,000 mm 0,0 UV-I 21 W/m 9,7 C 3,2 km/h (1 Bft)
15.09.2016 07:44 15,5 C 15,5 C 70 % 1008,1 hPa 0,0 mm 1,7 km/h (1 Bft) N 11 0 min 0,000 mm 0,0 UV-I 23 W/m 10,1 C 4,8 km/h (1 Bft)
15.09.2016 07:45 15,4 C 15,5 C 70 % 1008,1 hPa 0,0 mm 1,1 km/h (1 Bft) N 11 0 min 0,000 mm 0,0 UV-I 23 W/m 10,0 C 4,8 km/h (1 Bft)
15.09.2016 07:46 15,4 C 15,4 C 71 % 1008,1 hPa 0,0 mm 0,1 km/h (0 Bft) N 11 0 min 0,000 mm 0,0 UV-I 23 W/m 10,2 C 1,6 km/h (1 Bft)
15.09.2016 07:47 15,4 C 15,4 C 70 % 1008,1 hPa 0,0 mm 0,9 km/h (0 Bft) N 11 0 min 0,000 mm 0,0 UV-I 25 W/m 10,0 C 1,6 km/h (1 Bft)
15.09.2016 07:48 15,4 C 15,4 C 69 % 1008,2 hPa 0,0 mm 0,5 km/h (0 Bft) N 11 0 min 0,000 mm 0,0 UV-I 25 W/m 9,7 C 1,6 km/h (1 Bft)
15.09.2016 07:49 15,4 C 15,4 C 70 % 1008,1 hPa 0,0 mm 1,4 km/h (1 Bft) NO 40 0 min 0,000 mm 0,0 UV-I 25 W/m 10,0 C 3,2 km/h (1 Bft)
15.09.2016 07:50 15,6 C 15,6 C 70 % 1008,2 hPa 0,0 mm 1,5 km/h (1 Bft) NO 40 0 min 0,000 mm 0,0 UV-I 26 W/m 10,1 C 3,2 km/h (1 Bft)
15.09.2016 07:51 15,6 C 15,6 C 69 % 1008,2 hPa 0,0 mm 1,9 km/h (1 Bft) N 5 0 min 0,000 mm 0,0 UV-I 26 W/m 9,9 C 3,2 km/h (1 Bft)
15.09.2016 07:52 15,7 C 15,7 C 70 % 1008,1 hPa 0,0 mm 1,4 km/h (1 Bft) N 5 0 min 0,000 mm 0,0 UV-I 26 W/m 10,2 C 3,2 km/h (1 Bft)
15.09.2016 07:53 15,6 C 15,7 C 71 % 1008,1 hPa 0,0 mm 1,7 km/h (1 Bft) N 5 0 min 0,000 mm 0,0 UV-I 26 W/m 10,4 C 3,2 km/h (1 Bft)
15.09.2016 07:54 15,6 C 15,6 C 71 % 1008,1 hPa 0,0 mm 1,9 km/h (1 Bft) NO 36 0 min 0,000 mm 0,0 UV-I 28 W/m 10,4 C 3,2 km/h (1 Bft)
15.09.2016 07:55 15,5 C 15,6 C 71 % 1008,0 hPa 0,0 mm 1,3 km/h (1 Bft) NO 36 0 min 0,000 mm 0,0 UV-I 28 W/m 10,3 C 1,6 km/h (1 Bft)
15.09.2016 07:56 15,5 C 15,6 C 71 % 1008,1 hPa 0,0 mm 0,1 km/h (0 Bft) NO 36 0 min 0,000 mm 0,0 UV-I 28 W/m 10,3 C 1,6 km/h (1 Bft)
15.09.2016 07:57 15,6 C 15,6 C 70 % 1008,0 hPa 0,0 mm 0,1 km/h (0 Bft) NO 36 0 min 0,000 mm 0,0 UV-I 28 W/m 10,1 C 1,6 km/h (1 Bft)
15.09.2016 07:58 15,6 C 15,6 C 70 % 1008,1 hPa 0,0 mm 1,0 km/h (0 Bft) N-NO 19 0 min 0,000 mm 0,0 UV-I 28 W/m 10,1 C 3,2 km/h (1 Bft)
15.09.2016 07:59 15,6 C 15,6 C 70 % 1008,0 hPa 0,0 mm 2,2 km/h (1 Bft) N-NO 19 0 min 0,000 mm 0,0 UV-I 30 W/m 10,1 C 3,2 km/h (1 Bft)
15.09.2016 08:00 15,6 C 15,6 C 70 % 1008,1 hPa 0,0 mm 0,1 km/h (0 Bft) N-NO 19 0 min 0,000 mm 0,0 UV-I 30 W/m 10,1 C 1,6 km/h (1 Bft)
15.09.2016 08:01 15,7 C 15,7 C 70 % 1008,0 hPa 0,0 mm 1,9 km/h (1 Bft) N-NO 19 0 min 0,025 mm 0,0 UV-I 30 W/m 10,2 C 3,2 km/h (1 Bft)
15.09.2016 08:02 15,7 C 15,7 C 70 % 1008,0 hPa 0,0 mm 1,0 km/h (0 Bft) N-NO 19 0 min 0,000 mm 0,0 UV-I 30 W/m 10,2 C 3,2 km/h (1 Bft)
15.09.2016 08:03 15,7 C 15,7 C 69 % 1008,0 hPa 0,0 mm 0,6 km/h (0 Bft) N-NO 19 0 min 0,000 mm 0,0 UV-I 30 W/m 10,0 C 1,6 km/h (1 Bft)
15.09.2016 08:04 15,6 C 15,7 C 71 % 1008,1 hPa 0,0 mm 2,2 km/h (1 Bft) N-NO 19 0 min 0,000 mm 0,0 UV-I 33 W/m 10,4 C 3,2 km/h (1 Bft)
15.09.2016 08:05 15,6 C 15,6 C 71 % 1008,1 hPa 0,0 mm 1,5 km/h (1 Bft) NO 40 0 min 0,000 mm 0,0 UV-I 42 W/m 10,4 C 3,2 km/h (1 Bft)
15.09.2016 08:06 15,6 C 15,6 C 70 % 1008,1 hPa 0,0 mm 1,5 km/h (1 Bft) NO 40 0 min 0,000 mm 0,0 UV-I 49 W/m 10,1 C 3,2 km/h (1 Bft)
15.09.2016 08:07 15,7 C 15,7 C 70 % 1008,1 hPa 0,0 mm 3,4 km/h (1 Bft) O-NO 78 0 min 0,000 mm 0,0 UV-I 47 W/m 10,2 C 4,8 km/h (1 Bft)
15.09.2016 08:08 15,8 C 15,8 C 72 % 1008,1 hPa 0,0 mm 2,0 km/h (1 Bft) O-NO 78 0 min 0,000 mm 0,0 UV-I 42 W/m 10,8 C 3,2 km/h (1 Bft)
15.09.2016 08:09 15,8 C 15,8 C 71 % 1008,1 hPa 0,0 mm 3,8 km/h (1 Bft) O 88 0 min 0,000 mm 0,0 UV-I 35 W/m 10,6 C 4,8 km/h (1 Bft)
15.09.2016 08:10 15,7 C 15,8 C 71 % 1008,0 hPa 0,0 mm 0,7 km/h (0 Bft) O-NO 71 0 min 0,000 mm 0,0 UV-I 33 W/m 10,5 C 3,2 km/h (1 Bft)
15.09.2016 08:11 15,7 C 15,7 C 70 % 1008,0 hPa 0,0 mm 1,0 km/h (0 Bft) O-NO 71 0 min 0,000 mm 0,0 UV-I 33 W/m 10,2 C 1,6 km/h (1 Bft)
15.09.2016 08:12 15,7 C 15,7 C 69 % 1008,0 hPa 0,0 mm 2,3 km/h (1 Bft) NO 50 0 min 0,000 mm 0,0 UV-I 33 W/m 10,0 C 3,2 km/h (1 Bft)
15.09.2016 08:13 15,8 C 15,8 C 69 % 1007,9 hPa 0,0 mm 1,3 km/h (1 Bft) NO 51 0 min 0,000 mm 0,0 UV-I 35 W/m 10,1 C 3,2 km/h (1 Bft)
15.09.2016 08:14 15,9 C 15,9 C 69 % 1008,0 hPa 0,0 mm 0,7 km/h (0 Bft) NO 51 0 min 0,000 mm 0,0 UV-I 35 W/m 10,2 C 1,6 km/h (1 Bft)
15.09.2016 08:15 16,0 C 16,0 C 69 % 1008,0 hPa 0,0 mm 1,9 km/h (1 Bft) N-NO 20 0 min 0,000 mm 0,0 UV-I 33 W/m 10,3 C 4,8 km/h (1 Bft)
15.09.2016 08:16 16,0 C 16,0 C 68 % 1008,0 hPa 0,0 mm 1,4 km/h (1 Bft) N-NO 20 0 min 0,000 mm 0,0 UV-I 35 W/m 10,1 C 3,2 km/h (1 Bft)
15.09.2016 08:17 16,0 C 16,0 C 68 % 1008,0 hPa 0,0 mm 1,1 km/h (1 Bft) N-NO 20 0 min 0,000 mm 0,0 UV-I 37 W/m 10,1 C 1,6 km/h (1 Bft)
15.09.2016 08:18 16,0 C 16,0 C 69 % 1008,0 hPa 0,0 mm 1,6 km/h (1 Bft) N-NO 19 0 min 0,000 mm 0,0 UV-I 46 W/m 10,3 C 4,8 km/h (1 Bft)
15.09.2016 08:19 16,1 C 16,1 C 68 % 1008,0 hPa 0,0 mm 2,0 km/h (1 Bft) N-NO 19 0 min 0,000 mm 0,0 UV-I 53 W/m 10,2 C 3,2 km/h (1 Bft)
15.09.2016 08:20 16,1 C 16,1 C 68 % 1008,0 hPa 0,0 mm 3,4 km/h (1 Bft) N-NO 22 0 min 0,000 mm 0,0 UV-I 35 W/m 10,2 C 6,4 km/h (2 Bft)
15.09.2016 08:21 16,1 C 16,1 C 68 % 1008,0 hPa 0,0 mm 1,7 km/h (1 Bft) SO 129 0 min 0,000 mm 0,0 UV-I 35 W/m 10,2 C 3,2 km/h (1 Bft)
15.09.2016 08:22 16,2 C 16,2 C 68 % 1008,0 hPa 0,0 mm 0,9 km/h (0 Bft) SO 129 0 min 0,000 mm 0,0 UV-I 35 W/m 10,3 C 3,2 km/h (1 Bft)
15.09.2016 08:23 16,3 C 16,3 C 68 % 1007,9 hPa 0,0 mm 0,5 km/h (0 Bft) SO 129 0 min 0,000 mm 0,0 UV-I 37 W/m 10,4 C 1,6 km/h (1 Bft)
15.09.2016 08:24 16,3 C 16,3 C 66 % 1008,0 hPa 0,0 mm 0,6 km/h (0 Bft) SO 129 0 min 0,000 mm 0,0 UV-I 37 W/m 9,9 C 1,6 km/h (1 Bft)
15.09.2016 08:25 16,4 C 16,4 C 66 % 1007,9 hPa 0,0 mm 0,3 km/h (0 Bft) SO 129 0 min 0,000 mm 0,0 UV-I 37 W/m 10,0 C 1,6 km/h (1 Bft)
15.09.2016 08:26 16,5 C 16,5 C 66 % 1007,9 hPa 0,0 mm 1,3 km/h (1 Bft) SO 128 0 min 0,000 mm 0,0 UV-I 37 W/m 10,1 C 3,2 km/h (1 Bft)
15.09.2016 08:27 16,6 C 16,6 C 66 % 1007,9 hPa 0,0 mm 0,8 km/h (0 Bft) SO 127 0 min 0,000 mm 0,0 UV-I 37 W/m 10,2 C 3,2 km/h (1 Bft)
15.09.2016 08:28 16,7 C 16,7 C 68 % 1007,9 hPa 0,0 mm 2,9 km/h (1 Bft) NO 38 0 min 0,000 mm 0,0 UV-I 37 W/m 10,8 C 4,8 km/h (1 Bft)
15.09.2016 08:29 16,5 C 16,7 C 68 % 1007,9 hPa 0,0 mm 1,6 km/h (1 Bft) NO 38 0 min 0,000 mm 0,0 UV-I 37 W/m 10,6 C 3,2 km/h (1 Bft)
15.09.2016 08:30 16,6 C 16,6 C 67 % 1007,9 hPa 0,0 mm 0,2 km/h (0 Bft) NO 38 0 min 0,000 mm 0,0 UV-I 39 W/m 10,4 C 1,6 km/h (1 Bft)
15.09.2016 08:31 16,7 C 16,7 C 66 % 1007,9 hPa 0,0 mm 0,3 km/h (0 Bft) NO 38 0 min 0,000 mm 0,0 UV-I 40 W/m 10,3 C 1,6 km/h (1 Bft)
15.09.2016 08:32 16,8 C 16,8 C 65 % 1007,8 hPa 0,0 mm 0,0 km/h (0 Bft) NO 38 0 min 0,000 mm 0,0 UV-I 54 W/m 10,2 C 0,0 km/h (0 Bft)
15.09.2016 08:33 16,9 C 16,9 C 64 % 1007,8 hPa 0,0 mm 0,0 km/h (0 Bft) NO 38 0 min 0,000 mm 0,7 UV-I 79 W/m 10,0 C 0,0 km/h (0 Bft)
15.09.2016 08:34 17,0 C 17,0 C 64 % 1007,9 hPa 0,0 mm 0,0 km/h (0 Bft) NO 38 0 min 0,000 mm 0,8 UV-I 125 W/m 10,1 C 0,0 km/h (0 Bft)
15.09.2016 08:35 17,1 C 17,1 C 65 % 1007,9 hPa 0,0 mm 0,0 km/h (0 Bft) NO 38 1 min 0,000 mm 0,8 UV-I 181 W/m 10,5 C 0,0 km/h (0 Bft)
15.09.2016 08:36 16,9 C 17,1 C 65 % 1007,9 hPa 0,0 mm 0,0 km/h (0 Bft) NO 38 1 min 0,000 mm 0,9 UV-I 181 W/m 10,3 C 0,0 km/h (0 Bft)
15.09.2016 08:37 16,9 C 16,9 C 67 % 1007,9 hPa 0,0 mm 0,0 km/h (0 Bft) NO 38 1 min 0,000 mm 0,9 UV-I 202 W/m 10,7 C 0,0 km/h (0 Bft)
15.09.2016 08:38 16,9 C 16,9 C 66 % 1007,9 hPa 0,0 mm 0,0 km/h (0 Bft) N-NW 346 1 min 0,000 mm 0,9 UV-I 239 W/m 10,5 C 0,0 km/h (0 Bft)
15.09.2016 08:39 16,9 C 16,9 C 66 % 1007,9 hPa 0,0 mm 0,0 km/h (0 Bft) N-NW 346 1 min 0,000 mm 1,0 UV-I 243 W/m 10,5 C 0,0 km/h (0 Bft)
15.09.2016 08:40 17,1 C 17,1 C 65 % 1007,9 hPa 0,0 mm 0,0 km/h (0 Bft) N-NW 346 1 min 0,000 mm 1,0 UV-I 244 W/m 10,5 C 0,0 km/h (0 Bft)
15.09.2016 08:41 17,2 C 17,2 C 63 % 1007,9 hPa 0,0 mm 0,0 km/h (0 Bft) N-NW 347 1 min 0,000 mm 1,0 UV-I 246 W/m 10,1 C 0,0 km/h (0 Bft)
15.09.2016 08:42 17,2 C 17,2 C 65 % 1007,9 hPa 0,0 mm 0,0 km/h (0 Bft) O 83 1 min 0,000 mm 1,0 UV-I 250 W/m 10,6 C 0,0 km/h (0 Bft)
15.09.2016 08:43 17,3 C 17,3 C 64 % 1007,9 hPa 0,0 mm 1,6 km/h (1 Bft) S 173 1 min 0,000 mm 1,0 UV-I 251 W/m 10,4 C 8,0 km/h (2 Bft)
15.09.2016 08:44 17,3 C 17,3 C 65 % 1007,9 hPa 0,0 mm 1,4 km/h (1 Bft) S-SO 161 1 min 0,000 mm 1,0 UV-I 237 W/m 10,7 C 3,2 km/h (1 Bft)
15.09.2016 08:45 17,3 C 17,3 C 65 % 1007,9 hPa 0,0 mm 0,4 km/h (0 Bft) S-SO 163 1 min 0,000 mm 1,0 UV-I 199 W/m 10,7 C 1,6 km/h (1 Bft)
15.09.2016 08:46 17,5 C 17,5 C 63 % 1008,0 hPa 0,0 mm 0,9 km/h (0 Bft) S-SO 163 1 min 0,000 mm 1,0 UV-I 207 W/m 10,4 C 1,6 km/h (1 Bft)
15.09.2016 08:47 17,5 C 17,6 C 63 % 1007,9 hPa 0,0 mm 1,7 km/h (1 Bft) S-SO 162 1 min 0,000 mm 1,1 UV-I 239 W/m 10,4 C 3,2 km/h (1 Bft)
15.09.2016 08:48 17,6 C 17,6 C 65 % 1008,0 hPa 0,0 mm 2,3 km/h (1 Bft) O-NO 69 1 min 0,000 mm 1,1 UV-I 267 W/m 10,9 C 3,2 km/h (1 Bft)
15.09.2016 08:49 17,7 C 17,7 C 62 % 1008,0 hPa 0,0 mm 1,5 km/h (1 Bft) O-NO 70 1 min 0,000 mm 1,2 UV-I 269 W/m 10,3 C 3,2 km/h (1 Bft)
15.09.2016 08:50 17,8 C 17,8 C 62 % 1007,9 hPa 0,0 mm 0,0 km/h (0 Bft) O-NO 70 1 min 0,000 mm 1,2 UV-I 274 W/m 10,4 C 0,0 km/h (0 Bft)
15.09.2016 08:51 17,8 C 17,8 C 63 % 1007,9 hPa 0,0 mm 1,5 km/h (1 Bft) N-NO 17 1 min 0,000 mm 1,2 UV-I 274 W/m 10,7 C 4,8 km/h (1 Bft)
15.09.2016 08:52 17,9 C 17,9 C 65 % 1007,9 hPa 0,0 mm 2,3 km/h (1 Bft) NO 42 1 min 0,000 mm 1,2 UV-I 278 W/m 11,2 C 3,2 km/h (1 Bft)
15.09.2016 08:53 17,9 C 17,9 C 64 % 1007,9 hPa 0,0 mm 0,1 km/h (0 Bft) NO 42 1 min 0,000 mm 1,3 UV-I 281 W/m 11,0 C 1,6 km/h (1 Bft)
15.09.2016 08:54 17,9 C 17,9 C 62 % 1007,9 hPa 0,0 mm 0,7 km/h (0 Bft) NO 42 1 min 0,000 mm 1,3 UV-I 285 W/m 10,5 C 3,2 km/h (1 Bft)
15.09.2016 08:55 18,1 C 18,1 C 60 % 1007,9 hPa 0,0 mm 1,0 km/h (0 Bft) NO 42 1 min 0,000 mm 1,3 UV-I 287 W/m 10,2 C 1,6 km/h (1 Bft)
15.09.2016 08:56 18,2 C 18,2 C 61 % 1007,9 hPa 0,0 mm 0,7 km/h (0 Bft) NO 42 1 min 0,000 mm 1,3 UV-I 292 W/m 10,6 C 1,6 km/h (1 Bft)
15.09.2016 08:57 18,3 C 18,3 C 61 % 1007,9 hPa 0,0 mm 0,4 km/h (0 Bft) NO 42 1 min 0,000 mm 1,3 UV-I 287 W/m 10,6 C 1,6 km/h (1 Bft)
15.09.2016 08:58 18,3 C 18,4 C 63 % 1007,9 hPa 0,0 mm 1,2 km/h (1 Bft) NO 42 1 min 0,000 mm 1,3 UV-I 274 W/m 11,1 C 3,2 km/h (1 Bft)
15.09.2016 08:59 18,2 C 18,3 C 61 % 1008,0 hPa 0,0 mm 1,6 km/h (1 Bft) NO 43 1 min 0,000 mm 1,3 UV-I 265 W/m 10,6 C 3,2 km/h (1 Bft)
15.09.2016 09:00 18,2 C 18,3 C 61 % 1007,9 hPa 0,0 mm 1,5 km/h (1 Bft) NO 43 1 min 0,000 mm 1,3 UV-I 269 W/m 10,6 C 3,2 km/h (1 Bft)
15.09.2016 09:01 18,2 C 18,3 C 63 % 1007,9 hPa 0,0 mm 1,9 km/h (1 Bft) NO 43 1 min 0,076 mm 1,3 UV-I 267 W/m 11,0 C 3,2 km/h (1 Bft)
15.09.2016 09:02 18,2 C 18,2 C 63 % 1007,9 hPa 0,0 mm 0,5 km/h (0 Bft) NO 43 1 min 0,000 mm 1,3 UV-I 264 W/m 11,0 C 1,6 km/h (1 Bft)
15.09.2016 09:03 18,2 C 18,2 C 62 % 1007,9 hPa 0,0 mm 1,4 km/h (1 Bft) NO 43 1 min 0,000 mm 1,4 UV-I 265 W/m 10,8 C 1,6 km/h (1 Bft)
15.09.2016 09:04 18,2 C 18,2 C 62 % 1007,9 hPa 0,0 mm 0,3 km/h (0 Bft) NO 43 1 min 0,000 mm 1,4 UV-I 271 W/m 10,8 C 1,6 km/h (1 Bft)
15.09.2016 09:05 18,3 C 18,3 C 61 % 1007,9 hPa 0,0 mm 0,5 km/h (0 Bft) NO 43 1 min 0,000 mm 1,4 UV-I 274 W/m 10,6 C 1,6 km/h (1 Bft)
15.09.2016 09:06 18,4 C 18,4 C 61 % 1007,9 hPa 0,0 mm 0,4 km/h (0 Bft) NO 43 1 min 0,000 mm 1,5 UV-I 283 W/m 10,7 C 1,6 km/h (1 Bft)
15.09.2016 09:07 18,4 C 18,4 C 61 % 1007,9 hPa 0,0 mm 1,3 km/h (1 Bft) NO 42 1 min 0,000 mm 1,5 UV-I 292 W/m 10,7 C 3,2 km/h (1 Bft)
15.09.2016 09:08 18,4 C 18,4 C 61 % 1007,9 hPa 0,0 mm 0,6 km/h (0 Bft) NO 42 1 min 0,000 mm 1,5 UV-I 297 W/m 10,7 C 1,6 km/h (1 Bft)
15.09.2016 09:09 18,5 C 18,5 C 61 % 1007,9 hPa 0,0 mm 1,3 km/h (1 Bft) NO 42 1 min 0,000 mm 1,5 UV-I 308 W/m 10,8 C 1,6 km/h (1 Bft)
15.09.2016 09:10 18,5 C 18,6 C 66 % 1007,9 hPa 0,0 mm 0,7 km/h (0 Bft) NO 42 1 min 0,000 mm 1,6 UV-I 311 W/m 12,0 C 3,2 km/h (1 Bft)
15.09.2016 09:11 18,6 C 18,6 C 61 % 1007,9 hPa 0,0 mm 1,7 km/h (1 Bft) NO 42 1 min 0,000 mm 1,6 UV-I 311 W/m 10,9 C 3,2 km/h (1 Bft)
15.09.2016 09:12 18,6 C 18,6 C 59 % 1007,9 hPa 0,0 mm 0,7 km/h (0 Bft) NO 42 1 min 0,000 mm 1,6 UV-I 318 W/m 10,4 C 1,6 km/h (1 Bft)
15.09.2016 09:13 18,7 C 18,7 C 65 % 1008,0 hPa 0,0 mm 1,5 km/h (1 Bft) NO 42 1 min 0,000 mm 1,6 UV-I 323 W/m 12,0 C 3,2 km/h (1 Bft)
15.09.2016 09:14 18,8 C 18,8 C 61 % 1008,0 hPa 0,0 mm 0,5 km/h (0 Bft) NO 42 1 min 0,000 mm 1,7 UV-I 323 W/m 11,1 C 1,6 km/h (1 Bft)
15.09.2016 09:15 18,8 C 18,8 C 61 % 1008,0 hPa 0,0 mm 0,9 km/h (0 Bft) NO 42 1 min 0,000 mm 1,7 UV-I 316 W/m 11,1 C 1,6 km/h (1 Bft)
15.09.2016 09:16 18,7 C 18,8 C 63 % 1008,0 hPa 0,0 mm 3,1 km/h (1 Bft) O-SO 106 1 min 0,000 mm 1,7 UV-I 316 W/m 11,5 C 4,8 km/h (1 Bft)
15.09.2016 09:17 18,8 C 18,8 C 60 % 1008,0 hPa 0,0 mm 1,5 km/h (1 Bft) O-SO 106 1 min 0,000 mm 1,7 UV-I 323 W/m 10,9 C 3,2 km/h (1 Bft)
15.09.2016 09:18 18,8 C 18,8 C 59 % 1008,0 hPa 0,0 mm 0,7 km/h (0 Bft) O-SO 106 1 min 0,000 mm 1,7 UV-I 325 W/m 10,6 C 1,6 km/h (1 Bft)
15.09.2016 09:19 18,8 C 18,8 C 60 % 1008,0 hPa 0,0 mm 0,3 km/h (0 Bft) O-SO 106 1 min 0,000 mm 1,7 UV-I 339 W/m 10,9 C 1,6 km/h (1 Bft)
15.09.2016 09:20 18,9 C 18,9 C 60 % 1008,0 hPa 0,0 mm 0,9 km/h (0 Bft) O-SO 105 1 min 0,000 mm 1,8 UV-I 334 W/m 11,0 C 3,2 km/h (1 Bft)
15.09.2016 09:21 19,0 C 19,0 C 58 % 1008,0 hPa 0,0 mm 0,5 km/h (0 Bft) O-SO 105 1 min 0,000 mm 1,8 UV-I 341 W/m 10,5 C 1,6 km/h (1 Bft)
15.09.2016 09:22 19,1 C 19,1 C 59 % 1008,1 hPa 0,0 mm 0,6 km/h (0 Bft) O-SO 105 1 min 0,000 mm 1,8 UV-I 350 W/m 10,9 C 1,6 km/h (1 Bft)
15.09.2016 09:23 19,1 C 19,1 C 59 % 1008,0 hPa 0,0 mm 1,0 km/h (0 Bft) W 261 1 min 0,000 mm 1,8 UV-I 350 W/m 10,9 C 4,8 km/h (1 Bft)
15.09.2016 09:24 19,2 C 19,2 C 58 % 1008,0 hPa 0,0 mm 1,5 km/h (1 Bft) W 259 1 min 0,000 mm 1,9 UV-I 352 W/m 10,7 C 3,2 km/h (1 Bft)
15.09.2016 09:25 19,3 C 19,3 C 59 % 1008,0 hPa 0,0 mm 0,8 km/h (0 Bft) W 259 1 min 0,000 mm 1,9 UV-I 353 W/m 11,1 C 3,2 km/h (1 Bft)
15.09.2016 09:26 19,5 C 19,5 C 58 % 1008,1 hPa 0,0 mm 1,1 km/h (1 Bft) W 260 1 min 0,000 mm 1,9 UV-I 355 W/m 11,0 C 3,2 km/h (1 Bft)
15.09.2016 09:27 19,6 C 19,6 C 57 % 1008,0 hPa 0,0 mm 0,9 km/h (0 Bft) W 259 1 min 0,000 mm 1,9 UV-I 352 W/m 10,8 C 1,6 km/h (1 Bft)
15.09.2016 09:28 19,8 C 19,8 C 55 % 1008,0 hPa 0,0 mm 0,1 km/h (0 Bft) W 260 1 min 0,000 mm 1,9 UV-I 359 W/m 10,5 C 1,6 km/h (1 Bft)
15.09.2016 09:29 20,0 C 20,0 C 56 % 1008,0 hPa 0,0 mm 0,6 km/h (0 Bft) W 260 1 min 0,000 mm 1,9 UV-I 360 W/m 11,0 C 1,6 km/h (1 Bft)
15.09.2016 09:30 19,9 C 20,1 C 61 % 1008,0 hPa 0,0 mm 1,5 km/h (1 Bft) W 261 1 min 0,000 mm 2,0 UV-I 364 W/m 12,2 C 3,2 km/h (1 Bft)
15.09.2016 09:31 20,1 C 20,1 C 55 % 1008,1 hPa 0,0 mm 1,1 km/h (1 Bft) W 261 1 min 0,000 mm 2,0 UV-I 374 W/m 10,8 C 3,2 km/h (1 Bft)
15.09.2016 09:32 20,2 C 20,2 C 55 % 1008,0 hPa 0,0 mm 2,7 km/h (1 Bft) S-SW 209 1 min 0,000 mm 2,0 UV-I 378 W/m 10,9 C 4,8 km/h (1 Bft)
15.09.2016 09:33 20,3 C 20,3 C 57 % 1008,0 hPa 0,0 mm 1,5 km/h (1 Bft) W-SW 257 1 min 0,000 mm 2,0 UV-I 373 W/m 11,5 C 3,2 km/h (1 Bft)
15.09.2016 09:34 20,4 C 20,4 C 55 % 1008,0 hPa 0,0 mm 1,0 km/h (0 Bft) W-SW 257 1 min 0,000 mm 2,0 UV-I 380 W/m 11,1 C 1,6 km/h (1 Bft)
15.09.2016 09:35 20,3 C 20,4 C 56 % 1008,0 hPa 0,0 mm 1,0 km/h (0 Bft) W-SW 257 1 min 0,000 mm 2,1 UV-I 376 W/m 11,2 C 1,6 km/h (1 Bft)
15.09.2016 09:36 20,1 C 20,3 C 57 % 1008,0 hPa 0,0 mm 0,9 km/h (0 Bft) W-SW 257 1 min 0,000 mm 2,1 UV-I 381 W/m 11,3 C 1,6 km/h (1 Bft)
15.09.2016 09:37 19,8 C 20,1 C 57 % 1008,0 hPa 0,0 mm 1,0 km/h (0 Bft) W-SW 257 1 min 0,000 mm 2,1 UV-I 381 W/m 11,0 C 1,6 km/h (1 Bft)
15.09.2016 09:38 19,7 C 19,8 C 61 % 1008,0 hPa 0,0 mm 1,4 km/h (1 Bft) W-SW 257 1 min 0,000 mm 2,1 UV-I 385 W/m 12,0 C 1,6 km/h (1 Bft)
15.09.2016 09:39 19,8 C 19,8 C 57 % 1008,0 hPa 0,0 mm 0,4 km/h (0 Bft) W-SW 257 1 min 0,000 mm 2,1 UV-I 385 W/m 11,0 C 1,6 km/h (1 Bft)
15.09.2016 09:40 19,9 C 19,9 C 57 % 1008,1 hPa 0,0 mm 1,5 km/h (1 Bft) W-SW 257 1 min 0,000 mm 2,2 UV-I 388 W/m 11,1 C 3,2 km/h (1 Bft)
15.09.2016 09:41 20,0 C 20,0 C 56 % 1008,1 hPa 0,0 mm 1,2 km/h (1 Bft) W-SW 257 1 min 0,000 mm 2,2 UV-I 383 W/m 11,0 C 3,2 km/h (1 Bft)
15.09.2016 09:42 20,2 C 20,2 C 55 % 1008,1 hPa 0,0 mm 2,3 km/h (1 Bft) W-SW 257 1 min 0,000 mm 2,2 UV-I 387 W/m 10,9 C 3,2 km/h (1 Bft)
15.09.2016 09:43 20,2 C 20,2 C 57 % 1008,1 hPa 0,0 mm 1,5 km/h (1 Bft) W-SW 257 1 min 0,000 mm 2,2 UV-I 397 W/m 11,4 C 3,2 km/h (1 Bft)
15.09.2016 09:44 20,1 C 20,2 C 62 % 1008,1 hPa 0,0 mm 0,8 km/h (0 Bft) W-SW 257 1 min 0,000 mm 2,2 UV-I 399 W/m 12,6 C 1,6 km/h (1 Bft)
15.09.2016 09:45 20,2 C 20,2 C 55 % 1008,1 hPa 0,0 mm 1,4 km/h (1 Bft) W-SW 257 1 min 0,000 mm 2,2 UV-I 408 W/m 10,9 C 1,6 km/h (1 Bft)
15.09.2016 09:46 20,3 C 20,3 C 56 % 1008,1 hPa 0,0 mm 0,7 km/h (0 Bft) W-SW 257 1 min 0,000 mm 2,3 UV-I 410 W/m 11,2 C 1,6 km/h (1 Bft)
15.09.2016 09:47 20,4 C 20,4 C 55 % 1008,1 hPa 0,0 mm 0,3 km/h (0 Bft) W-SW 257 1 min 0,000 mm 2,3 UV-I 404 W/m 11,1 C 1,6 km/h (1 Bft)
15.09.2016 09:48 20,5 C 20,5 C 55 % 1008,1 hPa 0,0 mm 1,5 km/h (1 Bft) W-SW 257 1 min 0,000 mm 2,3 UV-I 410 W/m 11,1 C 3,2 km/h (1 Bft)
15.09.2016 09:49 20,5 C 20,5 C 54 % 1008,1 hPa 0,0 mm 2,0 km/h (1 Bft) W-SW 257 1 min 0,000 mm 2,3 UV-I 399 W/m 10,9 C 3,2 km/h (1 Bft)
15.09.2016 09:50 20,6 C 20,6 C 57 % 1008,1 hPa 0,0 mm 1,6 km/h (1 Bft) SW 230 1 min 0,000 mm 2,3 UV-I 411 W/m 11,8 C 3,2 km/h (1 Bft)
15.09.2016 09:51 20,6 C 20,6 C 56 % 1008,1 hPa 0,0 mm 1,6 km/h (1 Bft) SW 229 1 min 0,000 mm 2,4 UV-I 425 W/m 11,5 C 3,2 km/h (1 Bft)
15.09.2016 09:52 20,7 C 20,7 C 55 % 1008,1 hPa 0,0 mm 0,7 km/h (0 Bft) S-SO 161 1 min 0,000 mm 2,4 UV-I 432 W/m 11,3 C 6,4 km/h (2 Bft)
15.09.2016 09:53 20,8 C 20,8 C 54 % 1008,1 hPa 0,0 mm 3,0 km/h (1 Bft) SO 139 1 min 0,000 mm 2,4 UV-I 434 W/m 11,1 C 4,8 km/h (1 Bft)
15.09.2016 09:54 20,8 C 20,8 C 59 % 1008,1 hPa 0,0 mm 1,2 km/h (1 Bft) SO 139 1 min 0,000 mm 2,4 UV-I 445 W/m 12,5 C 3,2 km/h (1 Bft)
15.09.2016 09:55 20,9 C 20,9 C 53 % 1008,1 hPa 0,0 mm 1,9 km/h (1 Bft) SO 139 1 min 0,000 mm 2,5 UV-I 439 W/m 11,0 C 3,2 km/h (1 Bft)
15.09.2016 09:56 20,9 C 21,0 C 53 % 1008,1 hPa 0,0 mm 0,5 km/h (0 Bft) SO 139 1 min 0,000 mm 2,5 UV-I 431 W/m 11,0 C 3,2 km/h (1 Bft)
15.09.2016 09:57 21,0 C 21,0 C 54 % 1008,1 hPa 0,0 mm 2,1 km/h (1 Bft) SO 139 1 min 0,000 mm 2,5 UV-I 434 W/m 11,3 C 3,2 km/h (1 Bft)
15.09.2016 09:58 21,0 C 21,0 C 63 % 1008,1 hPa 0,0 mm 0,9 km/h (0 Bft) SO 139 1 min 0,000 mm 2,5 UV-I 432 W/m 13,7 C 1,6 km/h (1 Bft)
15.09.2016 09:59 21,1 C 21,1 C 54 % 1008,1 hPa 0,0 mm 0,7 km/h (0 Bft) SO 139 1 min 0,000 mm 2,5 UV-I 439 W/m 11,4 C 1,6 km/h (1 Bft)
15.09.2016 10:00 21,2 C 21,2 C 52 % 1008,1 hPa 0,0 mm 0,4 km/h (0 Bft) SO 139 1 min 0,000 mm 2,5 UV-I 443 W/m 10,9 C 1,6 km/h (1 Bft)
15.09.2016 10:01 21,3 C 21,3 C 52 % 1008,1 hPa 0,0 mm 0,9 km/h (0 Bft) SO 139 1 min 0,229 mm 2,5 UV-I 439 W/m 11,0 C 3,2 km/h (1 Bft)
15.09.2016 10:02 21,3 C 21,3 C 59 % 1008,1 hPa 0,0 mm 0,0 km/h (0 Bft) SO 139 1 min 0,000 mm 2,6 UV-I 441 W/m 13,0 C 0,0 km/h (0 Bft)
15.09.2016 10:03 21,3 C 21,3 C 52 % 1008,1 hPa 0,0 mm 1,1 km/h (1 Bft) SO 139 1 min 0,000 mm 2,6 UV-I 443 W/m 11,0 C 3,2 km/h (1 Bft)
15.09.2016 10:04 21,3 C 21,3 C 53 % 1008,1 hPa 0,0 mm 2,2 km/h (1 Bft) SO 124 1 min 0,000 mm 2,6 UV-I 441 W/m 11,3 C 3,2 km/h (1 Bft)
15.09.2016 10:05 21,1 C 21,3 C 53 % 1008,1 hPa 0,0 mm 1,2 km/h (1 Bft) SO 124 1 min 0,000 mm 2,6 UV-I 450 W/m 11,1 C 3,2 km/h (1 Bft)
15.09.2016 10:06 21,3 C 21,3 C 52 % 1008,1 hPa 0,0 mm 1,3 km/h (1 Bft) SO 124 1 min 0,000 mm 2,6 UV-I 452 W/m 11,0 C 3,2 km/h (1 Bft)
15.09.2016 10:07 21,3 C 21,3 C 62 % 1008,1 hPa 0,0 mm 0,0 km/h (0 Bft) SO 124 1 min 0,000 mm 2,7 UV-I 462 W/m 13,7 C 0,0 km/h (0 Bft)
15.09.2016 10:08 21,2 C 21,3 C 54 % 1008,0 hPa 0,0 mm 2,2 km/h (1 Bft) SO 125 1 min 0,000 mm 2,7 UV-I 469 W/m 11,5 C 4,8 km/h (1 Bft)
15.09.2016 10:09 21,4 C 21,4 C 52 % 1008,1 hPa 0,0 mm 0,7 km/h (0 Bft) SO 125 1 min 0,000 mm 2,7 UV-I 473 W/m 11,1 C 1,6 km/h (1 Bft)
15.09.2016 10:10 21,3 C 21,4 C 57 % 1008,1 hPa 0,0 mm 2,0 km/h (1 Bft) SO 125 1 min 0,000 mm 2,8 UV-I 476 W/m 12,4 C 3,2 km/h (1 Bft)
15.09.2016 10:11 21,4 C 21,4 C 51 % 1008,1 hPa 0,0 mm 1,7 km/h (1 Bft) SO 125 1 min 0,000 mm 2,8 UV-I 478 W/m 10,8 C 3,2 km/h (1 Bft)
15.09.2016 10:12 21,4 C 21,4 C 53 % 1008,1 hPa 0,0 mm 1,0 km/h (0 Bft) SO 125 1 min 0,000 mm 2,8 UV-I 480 W/m 11,4 C 1,6 km/h (1 Bft)
15.09.2016 10:13 21,6 C 21,6 C 59 % 1008,1 hPa 0,0 mm 0,3 km/h (0 Bft) SO 125 1 min 0,000 mm 2,8 UV-I 482 W/m 13,2 C 1,6 km/h (1 Bft)
15.09.2016 10:14 21,6 C 21,6 C 54 % 1008,1 hPa 0,0 mm 1,7 km/h (1 Bft) SO 125 1 min 0,000 mm 2,9 UV-I 482 W/m 11,9 C 3,2 km/h (1 Bft)
15.09.2016 10:15 21,7 C 21,7 C 51 % 1008,1 hPa 0,0 mm 0,4 km/h (0 Bft) SO 125 1 min 0,000 mm 2,9 UV-I 483 W/m 11,1 C 1,6 km/h (1 Bft)
15.09.2016 10:16 21,7 C 21,8 C 51 % 1008,1 hPa 0,0 mm 2,2 km/h (1 Bft) SO 125 1 min 0,000 mm 2,9 UV-I 483 W/m 11,1 C 4,8 km/h (1 Bft)
15.09.2016 10:17 21,7 C 21,8 C 52 % 1008,1 hPa 0,0 mm 2,7 km/h (1 Bft) S-SO 154 1 min 0,000 mm 2,9 UV-I 483 W/m 11,4 C 3,2 km/h (1 Bft)
15.09.2016 10:18 21,7 C 21,7 C 63 % 1008,2 hPa 0,0 mm 1,7 km/h (1 Bft) S-SO 155 1 min 0,000 mm 2,9 UV-I 483 W/m 14,3 C 3,2 km/h (1 Bft)
15.09.2016 10:19 21,7 C 21,7 C 51 % 1008,2 hPa 0,0 mm 3,4 km/h (1 Bft) S-SO 154 1 min 0,000 mm 2,9 UV-I 485 W/m 11,1 C 4,8 km/h (1 Bft)
15.09.2016 10:20 21,6 C 21,7 C 54 % 1008,2 hPa 0,0 mm 3,3 km/h (1 Bft) O-SO 109 1 min 0,000 mm 3,0 UV-I 489 W/m 11,9 C 4,8 km/h (1 Bft)
15.09.2016 10:21 21,6 C 21,6 C 50 % 1008,2 hPa 0,0 mm 2,8 km/h (1 Bft) O-SO 109 1 min 0,000 mm 3,0 UV-I 496 W/m 10,7 C 4,8 km/h (1 Bft)
15.09.2016 10:22 21,7 C 21,7 C 52 % 1008,2 hPa 0,0 mm 0,9 km/h (0 Bft) O-SO 109 1 min 0,000 mm 3,0 UV-I 496 W/m 11,4 C 1,6 km/h (1 Bft)
15.09.2016 10:23 21,8 C 21,8 C 50 % 1008,2 hPa 0,0 mm 1,1 km/h (1 Bft) O-SO 109 1 min 0,000 mm 3,0 UV-I 494 W/m 10,9 C 1,6 km/h (1 Bft)
15.09.2016 10:24 22,0 C 22,0 C 50 % 1008,3 hPa 0,0 mm 0,9 km/h (0 Bft) O-SO 109 1 min 0,000 mm 3,0 UV-I 492 W/m 11,1 C 1,6 km/h (1 Bft)
15.09.2016 10:25 22,1 C 22,1 C 51 % 1008,3 hPa 0,0 mm 2,3 km/h (1 Bft) NO 42 1 min 0,000 mm 3,0 UV-I 490 W/m 11,5 C 4,8 km/h (1 Bft)
15.09.2016 10:26 21,9 C 22,1 C 52 % 1008,3 hPa 0,0 mm 2,2 km/h (1 Bft) SW 231 1 min 0,000 mm 3,0 UV-I 487 W/m 11,6 C 3,2 km/h (1 Bft)
15.09.2016 10:27 21,9 C 21,9 C 50 % 1008,3 hPa 0,0 mm 1,3 km/h (1 Bft) S-SW 213 1 min 0,000 mm 3,0 UV-I 485 W/m 11,0 C 3,2 km/h (1 Bft)
15.09.2016 10:28 21,8 C 21,9 C 52 % 1008,3 hPa 0,0 mm 0,3 km/h (0 Bft) S-SW 213 1 min 0,000 mm 3,0 UV-I 475 W/m 11,5 C 1,6 km/h (1 Bft)
15.09.2016 10:29 21,9 C 21,9 C 51 % 1008,4 hPa 0,0 mm 1,2 km/h (1 Bft) S-SW 213 1 min 0,000 mm 3,0 UV-I 462 W/m 11,3 C 1,6 km/h (1 Bft)
15.09.2016 10:30 22,0 C 22,0 C 49 % 1008,3 hPa 0,0 mm 1,6 km/h (1 Bft) S-SW 212 1 min 0,000 mm 3,0 UV-I 450 W/m 10,8 C 3,2 km/h (1 Bft)
15.09.2016 10:31 22,2 C 22,2 C 48 % 1008,3 hPa 0,0 mm 3,1 km/h (1 Bft) S 185 1 min 0,000 mm 3,0 UV-I 471 W/m 10,7 C 4,8 km/h (1 Bft)
15.09.2016 10:32 22,2 C 22,2 C 49 % 1008,3 hPa 0,0 mm 0,6 km/h (0 Bft) S 185 1 min 0,000 mm 3,1 UV-I 475 W/m 11,0 C 3,2 km/h (1 Bft)
15.09.2016 10:33 22,1 C 22,2 C 50 % 1008,3 hPa 0,0 mm 1,7 km/h (1 Bft) S 185 1 min 0,000 mm 3,1 UV-I 483 W/m 11,2 C 4,8 km/h (1 Bft)
15.09.2016 10:34 22,0 C 22,1 C 50 % 1008,3 hPa 0,0 mm 1,8 km/h (1 Bft) S 185 1 min 0,000 mm 3,1 UV-I 490 W/m 11,1 C 3,2 km/h (1 Bft)
15.09.2016 10:35 21,9 C 22,0 C 61 % 1008,3 hPa 0,0 mm 1,2 km/h (1 Bft) S 185 1 min 0,000 mm 3,1 UV-I 496 W/m 14,0 C 3,2 km/h (1 Bft)
15.09.2016 10:36 21,9 C 21,9 C 50 % 1008,3 hPa 0,0 mm 2,1 km/h (1 Bft) O-NO 65 1 min 0,000 mm 3,1 UV-I 489 W/m 11,0 C 3,2 km/h (1 Bft)
15.09.2016 10:37 22,0 C 22,0 C 55 % 1008,3 hPa 0,0 mm 2,7 km/h (1 Bft) O 96 1 min 0,000 mm 3,2 UV-I 497 W/m 12,5 C 4,8 km/h (1 Bft)
15.09.2016 10:38 22,0 C 22,0 C 53 % 1008,3 hPa 0,0 mm 3,6 km/h (1 Bft) O-SO 118 1 min 0,000 mm 3,2 UV-I 512 W/m 12,0 C 4,8 km/h (1 Bft)
15.09.2016 10:39 21,9 C 22,0 C 61 % 1008,3 hPa 0,0 mm 1,6 km/h (1 Bft) O-SO 118 1 min 0,000 mm 3,2 UV-I 512 W/m 14,0 C 3,2 km/h (1 Bft)
15.09.2016 10:40 22,0 C 22,0 C 50 % 1008,3 hPa 0,0 mm 1,5 km/h (1 Bft) O-SO 118 1 min 0,000 mm 3,2 UV-I 512 W/m 11,1 C 3,2 km/h (1 Bft)
15.09.2016 10:41 22,1 C 22,1 C 51 % 1008,3 hPa 0,0 mm 0,9 km/h (0 Bft) O-SO 118 1 min 0,000 mm 3,3 UV-I 526 W/m 11,5 C 3,2 km/h (1 Bft)
15.09.2016 10:42 22,3 C 22,3 C 49 % 1008,4 hPa 0,0 mm 1,3 km/h (1 Bft) O-SO 118 1 min 0,000 mm 3,3 UV-I 522 W/m 11,1 C 3,2 km/h (1 Bft)
15.09.2016 10:43 22,4 C 22,4 C 48 % 1008,4 hPa 0,0 mm 0,1 km/h (0 Bft) O-SO 118 1 min 0,000 mm 3,3 UV-I 513 W/m 10,8 C 1,6 km/h (1 Bft)
15.09.2016 10:44 22,5 C 22,5 C 51 % 1008,4 hPa 0,0 mm 0,7 km/h (0 Bft) O-SO 118 1 min 0,000 mm 3,3 UV-I 506 W/m 11,8 C 1,6 km/h (1 Bft)
15.09.2016 10:45 22,7 C 22,7 C 47 % 1008,3 hPa 0,0 mm 0,3 km/h (0 Bft) O-SO 118 1 min 0,000 mm 3,2 UV-I 459 W/m 10,8 C 1,6 km/h (1 Bft)
15.09.2016 10:46 22,6 C 22,7 C 52 % 1008,4 hPa 0,0 mm 0,3 km/h (0 Bft) O-SO 118 1 min 0,000 mm 3,4 UV-I 520 W/m 12,2 C 1,6 km/h (1 Bft)
15.09.2016 10:47 22,4 C 22,6 C 53 % 1008,4 hPa 0,0 mm 2,6 km/h (1 Bft) O-SO 118 1 min 0,000 mm 3,3 UV-I 524 W/m 12,3 C 3,2 km/h (1 Bft)
15.09.2016 10:48 22,4 C 22,4 C 58 % 1008,4 hPa 0,0 mm 1,8 km/h (1 Bft) O-SO 118 1 min 0,000 mm 3,4 UV-I 543 W/m 13,7 C 3,2 km/h (1 Bft)
15.09.2016 10:49 22,5 C 22,5 C 51 % 1008,4 hPa 0,0 mm 0,9 km/h (0 Bft) O-SO 118 1 min 0,000 mm 3,5 UV-I 555 W/m 11,8 C 1,6 km/h (1 Bft)
15.09.2016 10:50 22,7 C 22,7 C 51 % 1008,4 hPa 0,0 mm 0,5 km/h (0 Bft) O-SO 118 1 min 0,000 mm 3,5 UV-I 555 W/m 12,0 C 1,6 km/h (1 Bft)
15.09.2016 10:51 22,9 C 22,9 C 54 % 1008,4 hPa 0,0 mm 1,3 km/h (1 Bft) O 91 1 min 0,000 mm 3,5 UV-I 548 W/m 13,1 C 3,2 km/h (1 Bft)
15.09.2016 10:52 23,0 C 23,1 C 51 % 1008,3 hPa 0,0 mm 3,6 km/h (1 Bft) NO 44 1 min 0,000 mm 3,5 UV-I 545 W/m 12,3 C 4,8 km/h (1 Bft)
15.09.2016 10:53 22,8 C 23,0 C 48 % 1008,3 hPa 0,0 mm 1,8 km/h (1 Bft) SO 124 1 min 0,000 mm 3,6 UV-I 573 W/m 11,2 C 4,8 km/h (1 Bft)
15.09.2016 10:54 22,8 C 22,8 C 47 % 1008,3 hPa 0,0 mm 2,7 km/h (1 Bft) SO 126 1 min 0,000 mm 3,6 UV-I 566 W/m 10,9 C 4,8 km/h (1 Bft)
15.09.2016 10:55 22,8 C 22,8 C 48 % 1008,4 hPa 0,0 mm 1,9 km/h (1 Bft) S 173 1 min 0,000 mm 3,6 UV-I 564 W/m 11,2 C 3,2 km/h (1 Bft)
15.09.2016 10:56 22,8 C 22,8 C 48 % 1008,3 hPa 0,0 mm 2,9 km/h (1 Bft) SO 142 1 min 0,000 mm 3,6 UV-I 561 W/m 11,2 C 4,8 km/h (1 Bft)
15.09.2016 10:57 22,9 C 22,9 C 47 % 1008,4 hPa 0,0 mm 1,0 km/h (0 Bft) SO 142 1 min 0,000 mm 3,6 UV-I 545 W/m 11,0 C 3,2 km/h (1 Bft)
15.09.2016 10:58 23,2 C 23,2 C 44 % 1008,4 hPa 0,0 mm 0,4 km/h (0 Bft) SO 146 1 min 0,000 mm 3,6 UV-I 561 W/m 10,3 C 1,6 km/h (1 Bft)
15.09.2016 10:59 23,4 C 23,4 C 50 % 1008,3 hPa 0,0 mm 2,6 km/h (1 Bft) SW 218 1 min 0,000 mm 3,6 UV-I 573 W/m 12,4 C 3,2 km/h (1 Bft)
15.09.2016 11:00 23,7 C 23,7 C 51 % 1008,4 hPa 0,0 mm 6,2 km/h (2 Bft) SO 146 1 min 0,000 mm 3,6 UV-I 554 W/m 13,0 C 11,3 km/h (2 Bft)
15.09.2016 11:01 23,9 C 23,9 C 52 % 1008,3 hPa 0,0 mm 2,1 km/h (1 Bft) SO 137 1 min 0,305 mm 3,6 UV-I 536 W/m 13,4 C 4,8 km/h (1 Bft)
15.09.2016 11:02 24,0 C 24,0 C 48 % 1008,4 hPa 0,0 mm 0,1 km/h (0 Bft) SO 137 1 min 0,000 mm 3,5 UV-I 533 W/m 12,3 C 1,6 km/h (1 Bft)
15.09.2016 11:03 23,8 C 24,0 C 47 % 1008,3 hPa 0,0 mm 1,2 km/h (1 Bft) SO 137 1 min 0,000 mm 3,6 UV-I 538 W/m 11,8 C 3,2 km/h (1 Bft)
15.09.2016 11:04 23,7 C 23,8 C 46 % 1008,4 hPa 0,0 mm 2,8 km/h (1 Bft) SO 137 1 min 0,000 mm 3,5 UV-I 517 W/m 11,4 C 4,8 km/h (1 Bft)
15.09.2016 11:05 23,6 C 23,7 C 46 % 1008,4 hPa 0,0 mm 1,7 km/h (1 Bft) SO 137 1 min 0,000 mm 3,5 UV-I 487 W/m 11,3 C 3,2 km/h (1 Bft)
15.09.2016 11:06 23,3 C 23,6 C 46 % 1008,4 hPa 0,0 mm 2,0 km/h (1 Bft) O-NO 57 1 min 0,000 mm 3,5 UV-I 508 W/m 11,0 C 4,8 km/h (1 Bft)
15.09.2016 11:07 23,3 C 23,3 C 47 % 1008,4 hPa 0,0 mm 2,5 km/h (1 Bft) S 180 1 min 0,000 mm 3,5 UV-I 526 W/m 11,3 C 4,8 km/h (1 Bft)
15.09.2016 11:08 23,4 C 23,4 C 44 % 1008,4 hPa 0,0 mm 1,4 km/h (1 Bft) O-NO 74 1 min 0,000 mm 3,6 UV-I 529 W/m 10,4 C 4,8 km/h (1 Bft)
15.09.2016 11:09 23,4 C 23,5 C 50 % 1008,4 hPa 0,0 mm 2,1 km/h (1 Bft) O-NO 65 1 min 0,000 mm 3,6 UV-I 522 W/m 12,4 C 4,8 km/h (1 Bft)
15.09.2016 11:10 23,3 C 23,4 C 46 % 1008,4 hPa 0,0 mm 2,2 km/h (1 Bft) O-SO 107 1 min 0,000 mm 3,6 UV-I 552 W/m 11,0 C 3,2 km/h (1 Bft)
15.09.2016 11:11 23,4 C 23,4 C 46 % 1008,4 hPa 0,0 mm 1,6 km/h (1 Bft) S-SW 198 1 min 0,000 mm 3,1 UV-I 526 W/m 11,1 C 3,2 km/h (1 Bft)
15.09.2016 11:12 23,4 C 23,5 C 50 % 1008,4 hPa 0,0 mm 2,1 km/h (1 Bft) N-NW 330 1 min 0,000 mm 3,6 UV-I 524 W/m 12,4 C 3,2 km/h (1 Bft)
15.09.2016 11:13 23,4 C 23,4 C 47 % 1008,4 hPa 0,0 mm 0,6 km/h (0 Bft) N-NW 330 1 min 0,000 mm 3,4 UV-I 448 W/m 11,4 C 3,2 km/h (1 Bft)
15.09.2016 11:14 23,4 C 23,4 C 53 % 1008,4 hPa 0,0 mm 2,4 km/h (1 Bft) O 80 1 min 0,000 mm 3,4 UV-I 501 W/m 13,3 C 4,8 km/h (1 Bft)
15.09.2016 11:15 23,5 C 23,5 C 50 % 1008,4 hPa 0,0 mm 0,4 km/h (0 Bft) O 80 1 min 0,000 mm 3,5 UV-I 464 W/m 12,5 C 1,6 km/h (1 Bft)
15.09.2016 11:16 23,6 C 23,6 C 49 % 1008,4 hPa 0,0 mm 0,8 km/h (0 Bft) O 80 1 min 0,000 mm 3,9 UV-I 580 W/m 12,2 C 1,6 km/h (1 Bft)
15.09.2016 11:17 23,6 C 23,6 C 47 % 1008,4 hPa 0,0 mm 2,5 km/h (1 Bft) O 80 1 min 0,000 mm 3,8 UV-I 497 W/m 11,6 C 3,2 km/h (1 Bft)
15.09.2016 11:18 23,6 C 23,6 C 47 % 1008,4 hPa 0,0 mm 1,1 km/h (1 Bft) O 80 1 min 0,000 mm 3,7 UV-I 533 W/m 11,6 C 1,6 km/h (1 Bft)
15.09.2016 11:19 23,3 C 23,6 C 47 % 1008,4 hPa 0,0 mm 3,2 km/h (1 Bft) O-NO 78 1 min 0,000 mm 3,7 UV-I 506 W/m 11,3 C 4,8 km/h (1 Bft)
15.09.2016 11:20 23,2 C 23,3 C 49 % 1008,4 hPa 0,0 mm 2,3 km/h (1 Bft) O 101 1 min 0,000 mm 3,9 UV-I 563 W/m 11,9 C 3,2 km/h (1 Bft)
15.09.2016 11:21 23,1 C 23,2 C 50 % 1008,5 hPa 0,0 mm 1,9 km/h (1 Bft) O 101 1 min 0,000 mm 4,0 UV-I 573 W/m 12,1 C 3,2 km/h (1 Bft)
15.09.2016 11:22 23,2 C 23,2 C 47 % 1008,4 hPa 0,0 mm 2,6 km/h (1 Bft) SO 125 1 min 0,000 mm 4,1 UV-I 622 W/m 11,3 C 6,4 km/h (2 Bft)
15.09.2016 11:23 23,6 C 23,6 C 45 % 1008,5 hPa 0,0 mm 4,7 km/h (1 Bft) S 186 1 min 0,000 mm 4,1 UV-I 613 W/m 11,0 C 9,7 km/h (2 Bft)
15.09.2016 11:24 23,9 C 23,9 C 46 % 1008,4 hPa 0,0 mm 4,4 km/h (1 Bft) S 187 1 min 0,000 mm 4,2 UV-I 624 W/m 11,6 C 6,4 km/h (2 Bft)
15.09.2016 11:25 24,1 C 24,1 C 45 % 1008,4 hPa 0,0 mm 2,3 km/h (1 Bft) W-SW 240 1 min 0,000 mm 4,2 UV-I 636 W/m 11,4 C 4,8 km/h (1 Bft)
15.09.2016 11:26 24,1 C 24,2 C 46 % 1008,4 hPa 0,0 mm 3,7 km/h (1 Bft) W-NW 298 1 min 0,000 mm 4,2 UV-I 636 W/m 11,7 C 6,4 km/h (2 Bft)
15.09.2016 11:27 23,9 C 24,1 C 45 % 1008,5 hPa 0,0 mm 4,2 km/h (1 Bft) NO 46 1 min 0,000 mm 4,3 UV-I 640 W/m 11,2 C 6,4 km/h (2 Bft)
15.09.2016 11:28 23,9 C 23,9 C 50 % 1008,4 hPa 0,0 mm 1,6 km/h (1 Bft) NO 46 1 min 0,000 mm 4,2 UV-I 636 W/m 12,8 C 3,2 km/h (1 Bft)
15.09.2016 11:29 23,7 C 23,9 C 47 % 1008,4 hPa 0,0 mm 1,8 km/h (1 Bft) NO 43 1 min 0,000 mm 4,2 UV-I 636 W/m 11,7 C 4,8 km/h (1 Bft)
15.09.2016 11:30 23,6 C 23,7 C 55 % 1008,4 hPa 0,0 mm 0,4 km/h (0 Bft) NO 43 1 min 0,000 mm 4,2 UV-I 610 W/m 14,0 C 1,6 km/h (1 Bft)
15.09.2016 11:31 23,7 C 23,7 C 46 % 1008,3 hPa 0,0 mm 2,9 km/h (1 Bft) SO 140 1 min 0,000 mm 4,2 UV-I 633 W/m 11,4 C 4,8 km/h (1 Bft)
15.09.2016 11:32 23,8 C 23,8 C 41 % 1008,3 hPa 0,0 mm 1,2 km/h (1 Bft) SO 138 1 min 0,000 mm 4,3 UV-I 635 W/m 9,7 C 1,6 km/h (1 Bft)
15.09.2016 11:33 24,0 C 24,0 C 45 % 1008,3 hPa 0,0 mm 0,7 km/h (0 Bft) SO 134 1 min 0,000 mm 4,3 UV-I 640 W/m 11,3 C 3,2 km/h (1 Bft)
15.09.2016 11:34 24,0 C 24,0 C 43 % 1008,3 hPa 0,0 mm 2,8 km/h (1 Bft) O 84 1 min 0,000 mm 4,3 UV-I 642 W/m 10,6 C 4,8 km/h (1 Bft)
15.09.2016 11:35 23,9 C 24,0 C 45 % 1008,3 hPa 0,0 mm 2,5 km/h (1 Bft) O 84 1 min 0,000 mm 4,3 UV-I 642 W/m 11,2 C 4,8 km/h (1 Bft)
15.09.2016 11:36 23,9 C 23,9 C 53 % 1008,3 hPa 0,0 mm 1,5 km/h (1 Bft) O 84 1 min 0,000 mm 4,3 UV-I 642 W/m 13,7 C 3,2 km/h (1 Bft)
15.09.2016 11:37 24,2 C 24,2 C 46 % 1008,3 hPa 0,0 mm 1,1 km/h (1 Bft) NO 54 1 min 0,000 mm 4,3 UV-I 638 W/m 11,8 C 3,2 km/h (1 Bft)
15.09.2016 11:38 24,3 C 24,3 C 45 % 1008,3 hPa 0,0 mm 1,0 km/h (0 Bft) NO 54 1 min 0,000 mm 4,3 UV-I 640 W/m 11,6 C 1,6 km/h (1 Bft)
15.09.2016 11:39 24,3 C 24,3 C 54 % 1008,3 hPa 0,0 mm 2,8 km/h (1 Bft) W 276 1 min 0,000 mm 4,3 UV-I 643 W/m 14,4 C 4,8 km/h (1 Bft)
15.09.2016 11:40 24,6 C 24,6 C 49 % 1008,4 hPa 0,0 mm 3,2 km/h (1 Bft) W 279 1 min 0,000 mm 4,3 UV-I 643 W/m 13,2 C 4,8 km/h (1 Bft)
15.09.2016 11:41 24,9 C 24,9 C 44 % 1008,2 hPa 0,0 mm 1,6 km/h (1 Bft) W 279 1 min 0,000 mm 4,4 UV-I 649 W/m 11,8 C 3,2 km/h (1 Bft)
15.09.2016 11:42 25,2 C 25,2 C 39 % 1008,3 hPa 0,0 mm 3,1 km/h (1 Bft) N-NW 346 1 min 0,000 mm 4,4 UV-I 652 W/m 10,2 C 4,8 km/h (1 Bft)
15.09.2016 11:43 25,2 C 25,2 C 44 % 1008,3 hPa 0,0 mm 5,1 km/h (1 Bft) O 88 1 min 0,000 mm 4,5 UV-I 657 W/m 12,1 C 6,4 km/h (2 Bft)
15.09.2016 11:44 25,3 C 25,3 C 41 % 1008,3 hPa 0,0 mm 4,1 km/h (1 Bft) O-SO 109 1 min 0,000 mm 4,4 UV-I 656 W/m 11,1 C 6,4 km/h (2 Bft)
15.09.2016 11:45 25,2 C 25,4 C 41 % 1008,3 hPa 0,0 mm 1,9 km/h (1 Bft) O-SO 109 1 min 0,000 mm 4,4 UV-I 657 W/m 11,0 C 3,2 km/h (1 Bft)
15.09.2016 11:46 25,1 C 25,2 C 44 % 1008,3 hPa 0,0 mm 1,5 km/h (1 Bft) N-NO 15 1 min 0,000 mm 4,4 UV-I 645 W/m 12,0 C 3,2 km/h (1 Bft)
15.09.2016 11:47 24,8 C 25,1 C 44 % 1008,3 hPa 0,0 mm 3,7 km/h (1 Bft) SO 125 1 min 0,000 mm 4,4 UV-I 650 W/m 11,7 C 4,8 km/h (1 Bft)
15.09.2016 11:48 24,7 C 24,8 C 42 % 1008,3 hPa 0,0 mm 1,2 km/h (1 Bft) SO 125 1 min 0,000 mm 4,4 UV-I 656 W/m 10,9 C 3,2 km/h (1 Bft)
15.09.2016 11:49 24,3 C 24,7 C 45 % 1008,3 hPa 0,0 mm 1,7 km/h (1 Bft) O-SO 117 1 min 0,000 mm 4,2 UV-I 594 W/m 11,6 C 4,8 km/h (1 Bft)
15.09.2016 11:50 24,2 C 24,3 C 49 % 1008,3 hPa 0,0 mm 3,1 km/h (1 Bft) O-SO 117 1 min 0,000 mm 3,4 UV-I 594 W/m 12,8 C 4,8 km/h (1 Bft)
15.09.2016 11:51 24,1 C 24,2 C 46 % 1008,3 hPa 0,0 mm 2,7 km/h (1 Bft) S-SO 148 1 min 0,000 mm 3,5 UV-I 380 W/m 11,7 C 4,8 km/h (1 Bft)
15.09.2016 11:52 24,3 C 24,3 C 40 % 1008,3 hPa 0,0 mm 1,3 km/h (1 Bft) SO 126 1 min 0,000 mm 3,2 UV-I 452 W/m 9,8 C 3,2 km/h (1 Bft)
15.09.2016 11:53 24,8 C 24,8 C 43 % 1008,3 hPa 0,0 mm 3,9 km/h (1 Bft) N-NO 22 1 min 0,000 mm 3,9 UV-I 496 W/m 11,4 C 6,4 km/h (2 Bft)
15.09.2016 11:54 24,9 C 24,9 C 46 % 1008,3 hPa 0,0 mm 1,8 km/h (1 Bft) N-NO 22 1 min 0,000 mm 4,0 UV-I 510 W/m 12,5 C 3,2 km/h (1 Bft)
15.09.2016 11:55 24,9 C 24,9 C 51 % 1008,4 hPa 0,0 mm 0,3 km/h (0 Bft) N-NO 22 1 min 0,000 mm 4,0 UV-I 550 W/m 14,1 C 1,6 km/h (1 Bft)
15.09.2016 11:56 24,9 C 24,9 C 56 % 1008,3 hPa 0,0 mm 1,8 km/h (1 Bft) N-NW 331 1 min 0,000 mm 4,4 UV-I 608 W/m 15,5 C 3,2 km/h (1 Bft)
15.09.2016 11:57 24,9 C 24,9 C 53 % 1008,4 hPa 0,0 mm 3,0 km/h (1 Bft) NW 320 1 min 0,000 mm 4,2 UV-I 617 W/m 14,6 C 4,8 km/h (1 Bft)
15.09.2016 11:58 25,1 C 25,1 C 46 % 1008,4 hPa 0,0 mm 3,1 km/h (1 Bft) NW 320 1 min 0,000 mm 4,3 UV-I 594 W/m 12,7 C 4,8 km/h (1 Bft)
15.09.2016 11:59 25,3 C 25,3 C 51 % 1008,4 hPa 0,0 mm 4,4 km/h (1 Bft) N-NW 348 1 min 0,000 mm 4,4 UV-I 619 W/m 14,4 C 8,0 km/h (2 Bft)
15.09.2016 12:00 25,4 C 25,4 C 46 % 1008,4 hPa 0,0 mm 4,8 km/h (1 Bft) W-NW 294 1 min 0,381 mm 4,6 UV-I 668 W/m 12,9 C 6,4 km/h (2 Bft)
15.09.2016 12:01 25,7 C 25,7 C 53 % 1008,4 hPa 0,0 mm 5,0 km/h (1 Bft) NW 309 1 min 0,000 mm 4,7 UV-I 677 W/m 15,4 C 6,4 km/h (2 Bft)
15.09.2016 12:02 25,8 C 25,8 C 40 % 1008,4 hPa 0,0 mm 3,0 km/h (1 Bft) NW 309 1 min 0,000 mm 4,8 UV-I 700 W/m 11,2 C 6,4 km/h (2 Bft)
15.09.2016 12:03 25,8 C 25,8 C 44 % 1008,3 hPa 0,0 mm 2,3 km/h (1 Bft) NW 309 1 min 0,000 mm 4,8 UV-I 705 W/m 12,6 C 3,2 km/h (1 Bft)
15.09.2016 12:04 25,9 C 25,9 C 47 % 1008,3 hPa 0,0 mm 4,3 km/h (1 Bft) NW 306 1 min 0,000 mm 4,9 UV-I 707 W/m 13,7 C 6,4 km/h (2 Bft)
15.09.2016 12:05 26,1 C 26,1 C 46 % 1008,4 hPa 0,0 mm 6,6 km/h (2 Bft) N-NW 344 1 min 0,000 mm 4,9 UV-I 703 W/m 13,6 C 8,0 km/h (2 Bft)
15.09.2016 12:06 26,1 C 26,1 C 45 % 1008,3 hPa 0,0 mm 8,3 km/h (2 Bft) NW 315 1 min 0,000 mm 4,9 UV-I 703 W/m 13,2 C 11,3 km/h (2 Bft)
15.09.2016 12:07 26,2 C 26,2 C 45 % 1008,3 hPa 0,0 mm 2,5 km/h (1 Bft) NW 321 1 min 0,000 mm 4,9 UV-I 700 W/m 13,3 C 6,4 km/h (2 Bft)
15.09.2016 12:08 26,3 C 26,3 C 44 % 1008,3 hPa 0,0 mm 1,8 km/h (1 Bft) NW 323 1 min 0,000 mm 4,9 UV-I 696 W/m 13,1 C 3,2 km/h (1 Bft)
15.09.2016 12:09 26,2 C 26,3 C 38 % 1008,4 hPa 0,0 mm 2,9 km/h (1 Bft) N 351 1 min 0,000 mm 4,9 UV-I 684 W/m 10,7 C 4,8 km/h (1 Bft)
15.09.2016 12:10 26,2 C 26,2 C 47 % 1008,3 hPa 0,0 mm 4,8 km/h (1 Bft) N-NW 330 1 min 0,000 mm 4,8 UV-I 682 W/m 14,0 C 9,7 km/h (2 Bft)
15.09.2016 12:11 26,1 C 26,2 C 46 % 1008,4 hPa 0,0 mm 4,9 km/h (1 Bft) NW 316 1 min 0,000 mm 4,8 UV-I 680 W/m 13,6 C 8,0 km/h (2 Bft)
15.09.2016 12:12 26,1 C 26,1 C 44 % 1008,3 hPa 0,0 mm 3,5 km/h (1 Bft) W-NW 296 1 min 0,000 mm 4,8 UV-I 677 W/m 12,9 C 6,4 km/h (2 Bft)
15.09.2016 12:13 26,1 C 26,1 C 39 % 1008,4 hPa 0,0 mm 1,7 km/h (1 Bft) W-NW 295 1 min 0,000 mm 4,8 UV-I 679 W/m 11,0 C 3,2 km/h (1 Bft)
15.09.2016 12:14 26,0 C 26,1 C 41 % 1008,4 hPa 0,0 mm 2,7 km/h (1 Bft) W-NW 294 1 min 0,000 mm 4,8 UV-I 675 W/m 11,7 C 3,2 km/h (1 Bft)
15.09.2016 12:15 26,0 C 26,0 C 37 % 1008,4 hPa 0,0 mm 0,5 km/h (0 Bft) W-NW 294 1 min 0,000 mm 4,6 UV-I 629 W/m 10,2 C 1,6 km/h (1 Bft)
15.09.2016 12:16 25,9 C 26,0 C 38 % 1008,4 hPa 0,0 mm 3,0 km/h (1 Bft) W 273 1 min 0,000 mm 4,1 UV-I 629 W/m 10,5 C 6,4 km/h (2 Bft)
15.09.2016 12:17 25,9 C 26,0 C 40 % 1008,3 hPa 0,0 mm 4,7 km/h (1 Bft) NW 310 1 min 0,000 mm 3,4 UV-I 436 W/m 11,3 C 6,4 km/h (2 Bft)
15.09.2016 12:18 25,8 C 25,9 C 40 % 1008,3 hPa 0,0 mm 5,6 km/h (1 Bft) NW 309 1 min 0,000 mm 3,1 UV-I 436 W/m 11,2 C 8,0 km/h (2 Bft)
15.09.2016 12:19 25,7 C 25,8 C 40 % 1008,3 hPa 0,0 mm 4,8 km/h (1 Bft) NW 321 0 min 0,000 mm 3,1 UV-I 274 W/m 11,1 C 6,4 km/h (2 Bft)
15.09.2016 12:20 25,6 C 25,7 C 40 % 1008,4 hPa 0,0 mm 4,0 km/h (1 Bft) NW 317 0 min 0,000 mm 3,1 UV-I 287 W/m 11,0 C 6,4 km/h (2 Bft)
15.09.2016 12:21 25,4 C 25,6 C 42 % 1008,4 hPa 0,0 mm 3,0 km/h (1 Bft) NW 315 0 min 0,000 mm 3,6 UV-I 306 W/m 11,5 C 3,2 km/h (1 Bft)
15.09.2016 12:22 25,3 C 25,4 C 43 % 1008,4 hPa 0,0 mm 0,6 km/h (0 Bft) NW 315 0 min 0,000 mm 4,0 UV-I 306 W/m 11,8 C 1,6 km/h (1 Bft)
15.09.2016 12:23 25,1 C 25,3 C 47 % 1008,4 hPa 0,0 mm 0,3 km/h (0 Bft) NW 315 1 min 0,000 mm 4,0 UV-I 526 W/m 13,0 C 1,6 km/h (1 Bft)
15.09.2016 12:24 25,1 C 25,1 C 42 % 1008,4 hPa 0,0 mm 1,0 km/h (0 Bft) W-NW 295 1 min 0,000 mm 3,9 UV-I 503 W/m 11,3 C 3,2 km/h (1 Bft)
15.09.2016 12:25 25,2 C 25,2 C 47 % 1008,3 hPa 0,0 mm 5,6 km/h (1 Bft) W-NW 296 1 min 0,000 mm 3,9 UV-I 515 W/m 13,1 C 8,0 km/h (2 Bft)
15.09.2016 12:26 25,2 C 25,2 C 45 % 1008,4 hPa 0,0 mm 4,1 km/h (1 Bft) W-NW 291 1 min 0,000 mm 4,1 UV-I 617 W/m 12,4 C 6,4 km/h (2 Bft)
15.09.2016 12:27 25,3 C 25,3 C 42 % 1008,4 hPa 0,0 mm 3,8 km/h (1 Bft) NW 313 1 min 0,000 mm 4,3 UV-I 608 W/m 11,5 C 9,7 km/h (2 Bft)
15.09.2016 12:28 25,4 C 25,4 C 46 % 1008,3 hPa 0,0 mm 5,6 km/h (1 Bft) W-NW 301 1 min 0,000 mm 4,4 UV-I 631 W/m 12,9 C 9,7 km/h (2 Bft)
15.09.2016 12:29 25,5 C 25,5 C 43 % 1008,3 hPa 0,0 mm 4,1 km/h (1 Bft) W-NW 300 1 min 0,000 mm 4,5 UV-I 640 W/m 12,0 C 4,8 km/h (1 Bft)
15.09.2016 12:30 25,6 C 25,6 C 44 % 1008,4 hPa 0,0 mm 5,8 km/h (2 Bft) NW 315 1 min 0,000 mm 4,5 UV-I 640 W/m 12,4 C 8,0 km/h (2 Bft)
15.09.2016 12:31 25,7 C 25,7 C 43 % 1008,3 hPa 0,0 mm 5,0 km/h (1 Bft) NW 311 1 min 0,000 mm 4,6 UV-I 659 W/m 12,2 C 6,4 km/h (2 Bft)
15.09.2016 12:32 25,8 C 25,8 C 42 % 1008,4 hPa 0,0 mm 4,3 km/h (1 Bft) NW 313 1 min 0,000 mm 4,6 UV-I 654 W/m 11,9 C 6,4 km/h (2 Bft)
15.09.2016 12:33 25,8 C 25,8 C 40 % 1008,4 hPa 0,0 mm 4,4 km/h (1 Bft) W-NW 294 1 min 0,000 mm 4,6 UV-I 663 W/m 11,2 C 4,8 km/h (1 Bft)
15.09.2016 12:34 25,9 C 25,9 C 40 % 1008,4 hPa 0,0 mm 3,5 km/h (1 Bft) W-NW 296 1 min 0,000 mm 4,6 UV-I 656 W/m 11,3 C 4,8 km/h (1 Bft)
15.09.2016 12:35 25,9 C 25,9 C 45 % 1008,4 hPa 0,0 mm 3,2 km/h (1 Bft) W 265 1 min 0,000 mm 4,7 UV-I 656 W/m 13,0 C 6,4 km/h (2 Bft)
15.09.2016 12:36 25,8 C 25,9 C 41 % 1008,4 hPa 0,0 mm 4,8 km/h (1 Bft) W 265 1 min 0,000 mm 4,7 UV-I 680 W/m 11,5 C 6,4 km/h (2 Bft)
15.09.2016 12:37 25,8 C 25,8 C 45 % 1008,5 hPa 0,0 mm 4,0 km/h (1 Bft) W 265 1 min 0,000 mm 4,7 UV-I 682 W/m 13,0 C 6,4 km/h (2 Bft)
15.09.2016 12:38 25,8 C 25,8 C 48 % 1008,4 hPa 0,0 mm 7,0 km/h (2 Bft) N-NW 329 1 min 0,000 mm 4,6 UV-I 636 W/m 13,9 C 9,7 km/h (2 Bft)
15.09.2016 12:39 25,9 C 25,9 C 43 % 1008,5 hPa 0,0 mm 4,7 km/h (1 Bft) W-NW 289 1 min 0,000 mm 4,3 UV-I 585 W/m 12,3 C 6,4 km/h (2 Bft)
15.09.2016 12:40 25,9 C 25,9 C 42 % 1008,4 hPa 0,0 mm 4,9 km/h (1 Bft) NW 309 1 min 0,000 mm 4,0 UV-I 522 W/m 12,0 C 8,0 km/h (2 Bft)
15.09.2016 12:41 25,8 C 25,9 C 42 % 1008,4 hPa 0,0 mm 4,9 km/h (1 Bft) W-NW 294 1 min 0,000 mm 3,6 UV-I 438 W/m 11,9 C 8,0 km/h (2 Bft)
15.09.2016 12:42 25,8 C 25,8 C 42 % 1008,4 hPa 0,0 mm 7,0 km/h (2 Bft) W 264 0 min 0,000 mm 3,3 UV-I 353 W/m 11,9 C 12,9 km/h (3 Bft)
15.09.2016 12:43 25,7 C 25,8 C 44 % 1008,4 hPa 0,0 mm 5,3 km/h (1 Bft) W-NW 301 0 min 0,000 mm 3,1 UV-I 322 W/m 12,5 C 6,4 km/h (2 Bft)
15.09.2016 12:44 25,6 C 25,7 C 43 % 1008,5 hPa 0,0 mm 6,7 km/h (2 Bft) NW 309 0 min 0,000 mm 2,9 UV-I 274 W/m 12,1 C 12,9 km/h (3 Bft)
15.09.2016 12:45 25,4 C 25,6 C 42 % 1008,5 hPa 0,0 mm 6,4 km/h (2 Bft) NW 321 0 min 0,000 mm 2,7 UV-I 274 W/m 11,5 C 12,9 km/h (3 Bft)
15.09.2016 12:46 25,3 C 25,5 C 45 % 1008,5 hPa 0,0 mm 3,2 km/h (1 Bft) N-NW 344 0 min 0,000 mm 2,7 UV-I 258 W/m 12,5 C 6,4 km/h (2 Bft)
15.09.2016 12:47 25,3 C 25,4 C 44 % 1008,5 hPa 0,0 mm 4,5 km/h (1 Bft) NW 313 0 min 0,000 mm 2,6 UV-I 243 W/m 12,2 C 8,0 km/h (2 Bft)
15.09.2016 12:48 25,2 C 25,3 C 42 % 1008,6 hPa 0,0 mm 4,6 km/h (1 Bft) NW 308 0 min 0,000 mm 2,5 UV-I 234 W/m 11,4 C 4,8 km/h (1 Bft)
15.09.2016 12:49 25,2 C 25,2 C 45 % 1008,6 hPa 0,0 mm 3,5 km/h (1 Bft) NW 308 0 min 0,000 mm 2,5 UV-I 227 W/m 12,4 C 4,8 km/h (1 Bft)
15.09.2016 12:50 25,1 C 25,2 C 43 % 1008,6 hPa 0,0 mm 2,7 km/h (1 Bft) NW 311 0 min 0,000 mm 2,4 UV-I 220 W/m 11,6 C 4,8 km/h (1 Bft)
15.09.2016 12:51 25,0 C 25,1 C 42 % 1008,5 hPa 0,0 mm 2,7 km/h (1 Bft) NW 320 0 min 0,000 mm 2,3 UV-I 211 W/m 11,2 C 4,8 km/h (1 Bft)
15.09.2016 12:52 24,9 C 25,0 C 46 % 1008,6 hPa 0,0 mm 4,0 km/h (1 Bft) W-NW 292 0 min 0,000 mm 2,3 UV-I 204 W/m 12,5 C 4,8 km/h (1 Bft)
15.09.2016 12:53 24,8 C 24,9 C 46 % 1008,6 hPa 0,0 mm 2,1 km/h (1 Bft) W-NW 302 0 min 0,000 mm 2,3 UV-I 209 W/m 12,4 C 4,8 km/h (1 Bft)
15.09.2016 12:54 24,8 C 24,8 C 47 % 1008,5 hPa 0,0 mm 6,7 km/h (2 Bft) NW 304 0 min 0,000 mm 2,3 UV-I 206 W/m 12,7 C 8,0 km/h (2 Bft)
15.09.2016 12:55 24,7 C 24,8 C 48 % 1008,6 hPa 0,0 mm 5,7 km/h (1 Bft) NW 309 0 min 0,000 mm 2,3 UV-I 207 W/m 12,9 C 6,4 km/h (2 Bft)
15.09.2016 12:56 24,7 C 24,7 C 50 % 1008,6 hPa 0,0 mm 3,7 km/h (1 Bft) W-NW 298 0 min 0,000 mm 2,3 UV-I 211 W/m 13,6 C 6,4 km/h (2 Bft)
15.09.2016 12:57 24,7 C 24,7 C 51 % 1008,6 hPa 0,0 mm 2,6 km/h (1 Bft) W-NW 296 0 min 0,000 mm 2,3 UV-I 213 W/m 13,9 C 3,2 km/h (1 Bft)
15.09.2016 12:58 24,6 C 24,7 C 52 % 1008,6 hPa 0,0 mm 2,1 km/h (1 Bft) W-NW 300 0 min 0,000 mm 2,3 UV-I 218 W/m 14,1 C 3,2 km/h (1 Bft)
15.09.2016 12:59 24,6 C 24,6 C 53 % 1008,7 hPa 0,0 mm 1,7 km/h (1 Bft) W-NW 300 0 min 0,000 mm 2,3 UV-I 221 W/m 14,4 C 3,2 km/h (1 Bft)
15.09.2016 13:00 24,5 C 24,6 C 53 % 1008,6 hPa 0,0 mm 0,5 km/h (0 Bft) W-NW 300 0 min 0,000 mm 2,4 UV-I 227 W/m 14,3 C 1,6 km/h (1 Bft)
15.09.2016 13:01 24,5 C 24,5 C 55 % 1008,6 hPa 0,0 mm 1,7 km/h (1 Bft) W-NW 302 0 min 0,355 mm 2,4 UV-I 237 W/m 14,9 C 3,2 km/h (1 Bft)
15.09.2016 13:02 24,5 C 24,5 C 52 % 1008,6 hPa 0,0 mm 2,7 km/h (1 Bft) NW 315 0 min 0,000 mm 2,4 UV-I 244 W/m 14,0 C 4,8 km/h (1 Bft)
15.09.2016 13:03 24,6 C 24,6 C 51 % 1008,6 hPa 0,0 mm 0,9 km/h (0 Bft) NW 315 0 min 0,000 mm 2,5 UV-I 251 W/m 13,8 C 3,2 km/h (1 Bft)
15.09.2016 13:04 24,6 C 24,6 C 53 % 1008,6 hPa 0,0 mm 0,4 km/h (0 Bft) NW 315 0 min 0,000 mm 2,6 UV-I 267 W/m 14,4 C 1,6 km/h (1 Bft)
15.09.2016 13:05 24,6 C 24,6 C 50 % 1008,6 hPa 0,0 mm 1,1 km/h (1 Bft) NW 315 0 min 0,000 mm 2,6 UV-I 281 W/m 13,5 C 1,6 km/h (1 Bft)
15.09.2016 13:06 24,7 C 24,7 C 53 % 1008,6 hPa 0,0 mm 2,3 km/h (1 Bft) NW 321 0 min 0,000 mm 2,7 UV-I 297 W/m 14,5 C 4,8 km/h (1 Bft)
15.09.2016 13:07 24,6 C 24,7 C 56 % 1008,6 hPa 0,0 mm 2,7 km/h (1 Bft) N-NW 335 0 min 0,000 mm 2,7 UV-I 287 W/m 15,2 C 4,8 km/h (1 Bft)
15.09.2016 13:08 24,7 C 24,7 C 52 % 1008,6 hPa 0,0 mm 1,9 km/h (1 Bft) N-NW 335 0 min 0,000 mm 2,7 UV-I 283 W/m 14,2 C 4,8 km/h (1 Bft)
15.09.2016 13:09 24,7 C 24,7 C 56 % 1008,7 hPa 0,0 mm 1,9 km/h (1 Bft) NW 309 0 min 0,000 mm 2,7 UV-I 288 W/m 15,3 C 4,8 km/h (1 Bft)
15.09.2016 13:10 24,7 C 24,7 C 55 % 1008,6 hPa 0,0 mm 2,0 km/h (1 Bft) NW 309 0 min 0,000 mm 2,7 UV-I 292 W/m 15,0 C 3,2 km/h (1 Bft)
15.09.2016 13:11 24,7 C 24,7 C 57 % 1008,6 hPa 0,0 mm 0,5 km/h (0 Bft) NW 309 0 min 0,000 mm 2,8 UV-I 294 W/m 15,6 C 1,6 km/h (1 Bft)
15.09.2016 13:12 24,7 C 24,7 C 60 % 1008,6 hPa 0,0 mm 2,9 km/h (1 Bft) N-NW 332 0 min 0,000 mm 2,8 UV-I 297 W/m 16,4 C 4,8 km/h (1 Bft)
15.09.2016 13:13 24,7 C 24,7 C 49 % 1008,6 hPa 0,0 mm 2,6 km/h (1 Bft) N 355 0 min 0,000 mm 2,8 UV-I 301 W/m 13,3 C 8,0 km/h (2 Bft)
15.09.2016 13:14 24,8 C 24,8 C 51 % 1008,6 hPa 0,0 mm 4,8 km/h (1 Bft) N 360 0 min 0,000 mm 2,8 UV-I 315 W/m 14,0 C 6,4 km/h (2 Bft)
15.09.2016 13:15 24,9 C 24,9 C 50 % 1008,6 hPa 0,0 mm 6,2 km/h (2 Bft) N 355 0 min 0,000 mm 3,0 UV-I 329 W/m 13,7 C 8,0 km/h (2 Bft)
15.09.2016 13:16 24,9 C 24,9 C 49 % 1008,6 hPa 0,0 mm 3,4 km/h (1 Bft) N 11 0 min 0,000 mm 3,0 UV-I 330 W/m 13,4 C 4,8 km/h (1 Bft)
15.09.2016 13:17 24,8 C 24,9 C 53 % 1008,6 hPa 0,0 mm 3,6 km/h (1 Bft) N 11 0 min 0,000 mm 3,0 UV-I 338 W/m 14,6 C 4,8 km/h (1 Bft)
15.09.2016 13:18 24,7 C 24,8 C 54 % 1008,6 hPa 0,0 mm 3,8 km/h (1 Bft) N 349 0 min 0,000 mm 3,1 UV-I 353 W/m 14,8 C 6,4 km/h (2 Bft)
15.09.2016 13:19 24,8 C 24,8 C 56 % 1008,6 hPa 0,0 mm 4,9 km/h (1 Bft) NO 37 1 min 0,000 mm 3,1 UV-I 394 W/m 15,4 C 8,0 km/h (2 Bft)
15.09.2016 13:20 24,8 C 24,8 C 56 % 1008,6 hPa 0,0 mm 3,0 km/h (1 Bft) NO 36 1 min 0,000 mm 3,4 UV-I 413 W/m 15,4 C 4,8 km/h (1 Bft)
15.09.2016 13:21 24,9 C 24,9 C 52 % 1008,6 hPa 0,0 mm 1,9 km/h (1 Bft) NO 36 1 min 0,000 mm 3,4 UV-I 420 W/m 14,4 C 3,2 km/h (1 Bft)
15.09.2016 13:22 24,9 C 24,9 C 54 % 1008,6 hPa 0,0 mm 2,1 km/h (1 Bft) O-NO 72 1 min 0,000 mm 3,5 UV-I 425 W/m 14,9 C 4,8 km/h (1 Bft)
15.09.2016 13:23 24,8 C 24,9 C 53 % 1008,6 hPa 0,0 mm 1,8 km/h (1 Bft) O-NO 72 1 min 0,000 mm 3,5 UV-I 431 W/m 14,6 C 3,2 km/h (1 Bft)
15.09.2016 13:24 24,8 C 24,8 C 56 % 1008,5 hPa 0,0 mm 0,9 km/h (0 Bft) O-NO 72 1 min 0,000 mm 3,5 UV-I 425 W/m 15,4 C 3,2 km/h (1 Bft)
15.09.2016 13:25 24,8 C 24,8 C 53 % 1008,6 hPa 0,0 mm 3,2 km/h (1 Bft) N-NO 22 1 min 0,000 mm 3,4 UV-I 401 W/m 14,6 C 4,8 km/h (1 Bft)
15.09.2016 13:26 24,9 C 24,9 C 55 % 1008,6 hPa 0,0 mm 4,8 km/h (1 Bft) N-NO 24 1 min 0,000 mm 3,4 UV-I 403 W/m 15,2 C 6,4 km/h (2 Bft)
15.09.2016 13:27 24,9 C 24,9 C 52 % 1008,6 hPa 0,0 mm 3,3 km/h (1 Bft) N-NO 31 1 min 0,000 mm 3,4 UV-I 397 W/m 14,4 C 6,4 km/h (2 Bft)
15.09.2016 13:28 25,0 C 25,0 C 54 % 1008,6 hPa 0,0 mm 5,1 km/h (1 Bft) N-NO 13 1 min 0,000 mm 3,6 UV-I 424 W/m 15,0 C 8,0 km/h (2 Bft)
15.09.2016 13:29 25,0 C 25,0 C 52 % 1008,6 hPa 0,0 mm 5,8 km/h (2 Bft) NO 56 1 min 0,000 mm 3,9 UV-I 494 W/m 14,4 C 8,0 km/h (2 Bft)
15.09.2016 13:30 25,1 C 25,1 C 54 % 1008,6 hPa 0,0 mm 1,5 km/h (1 Bft) NO 56 1 min 0,000 mm 4,3 UV-I 582 W/m 15,1 C 4,8 km/h (1 Bft)
15.09.2016 13:31 25,1 C 25,1 C 52 % 1008,6 hPa 0,0 mm 4,7 km/h (1 Bft) NO 51 1 min 0,000 mm 4,6 UV-I 636 W/m 14,5 C 8,0 km/h (2 Bft)
15.09.2016 13:32 25,2 C 25,2 C 54 % 1008,6 hPa 0,0 mm 2,8 km/h (1 Bft) N-NO 21 1 min 0,000 mm 4,6 UV-I 621 W/m 15,2 C 3,2 km/h (1 Bft)
15.09.2016 13:33 25,2 C 25,2 C 52 % 1008,5 hPa 0,0 mm 1,9 km/h (1 Bft) NW 323 1 min 0,000 mm 4,9 UV-I 705 W/m 14,6 C 3,2 km/h (1 Bft)
15.09.2016 13:34 25,3 C 25,3 C 50 % 1008,5 hPa 0,0 mm 2,5 km/h (1 Bft) N 9 1 min 0,000 mm 5,0 UV-I 759 W/m 14,1 C 4,8 km/h (1 Bft)
15.09.2016 13:35 25,3 C 25,4 C 53 % 1008,6 hPa 0,0 mm 4,0 km/h (1 Bft) N 5 1 min 0,000 mm 5,0 UV-I 759 W/m 15,0 C 4,8 km/h (1 Bft)
15.09.2016 13:36 25,4 C 25,4 C 51 % 1008,6 hPa 0,0 mm 4,2 km/h (1 Bft) N 5 1 min 0,000 mm 5,1 UV-I 745 W/m 14,5 C 4,8 km/h (1 Bft)
15.09.2016 13:37 25,5 C 25,6 C 53 % 1008,5 hPa 0,0 mm 3,8 km/h (1 Bft) O 83 1 min 0,000 mm 5,0 UV-I 726 W/m 15,2 C 4,8 km/h (1 Bft)
15.09.2016 13:38 25,4 C 25,5 C 48 % 1008,6 hPa 0,0 mm 3,8 km/h (1 Bft) O 80 1 min 0,000 mm 5,1 UV-I 744 W/m 13,6 C 4,8 km/h (1 Bft)
15.09.2016 13:39 25,4 C 25,4 C 50 % 1008,6 hPa 0,0 mm 1,7 km/h (1 Bft) O 90 1 min 0,000 mm 5,2 UV-I 752 W/m 14,2 C 3,2 km/h (1 Bft)
15.09.2016 13:40 25,4 C 25,4 C 51 % 1008,6 hPa 0,0 mm 2,5 km/h (1 Bft) N-NO 28 1 min 0,000 mm 5,3 UV-I 784 W/m 14,5 C 4,8 km/h (1 Bft)
15.09.2016 13:41 25,4 C 25,4 C 56 % 1008,5 hPa 0,0 mm 2,9 km/h (1 Bft) O-NO 69 1 min 0,000 mm 5,1 UV-I 740 W/m 16,0 C 6,4 km/h (2 Bft)
15.09.2016 13:42 25,6 C 25,6 C 45 % 1008,6 hPa 0,0 mm 5,2 km/h (1 Bft) O-NO 61 1 min 0,000 mm 5,1 UV-I 737 W/m 12,8 C 8,0 km/h (2 Bft)
15.09.2016 13:43 25,6 C 25,6 C 44 % 1008,6 hPa 0,0 mm 2,7 km/h (1 Bft) N-NO 24 1 min 0,000 mm 5,1 UV-I 717 W/m 12,4 C 4,8 km/h (1 Bft)
15.09.2016 13:44 25,8 C 25,8 C 46 % 1008,6 hPa 0,0 mm 2,7 km/h (1 Bft) N-NW 333 1 min 0,000 mm 5,0 UV-I 703 W/m 13,3 C 3,2 km/h (1 Bft)
15.09.2016 13:45 26,1 C 26,1 C 51 % 1008,6 hPa 0,0 mm 2,5 km/h (1 Bft) N-NW 327 1 min 0,000 mm 5,0 UV-I 698 W/m 15,2 C 4,8 km/h (1 Bft)
15.09.2016 13:46 26,0 C 26,1 C 41 % 1008,6 hPa 0,0 mm 3,9 km/h (1 Bft) N-NW 344 1 min 0,000 mm 4,8 UV-I 668 W/m 11,7 C 6,4 km/h (2 Bft)
15.09.2016 13:47 26,1 C 26,1 C 45 % 1008,6 hPa 0,0 mm 4,4 km/h (1 Bft) NW 310 1 min 0,000 mm 4,8 UV-I 657 W/m 13,2 C 6,4 km/h (2 Bft)
15.09.2016 13:48 25,9 C 26,1 C 41 % 1008,6 hPa 0,0 mm 4,1 km/h (1 Bft) N-NW 340 1 min 0,000 mm 4,4 UV-I 608 W/m 11,6 C 4,8 km/h (1 Bft)
15.09.2016 13:49 25,9 C 25,9 C 44 % 1008,6 hPa 0,0 mm 3,3 km/h (1 Bft) N-NW 342 1 min 0,000 mm 4,6 UV-I 608 W/m 12,7 C 4,8 km/h (1 Bft)
15.09.2016 13:50 26,0 C 26,0 C 43 % 1008,6 hPa 0,0 mm 4,6 km/h (1 Bft) N-NW 348 1 min 0,000 mm 4,4 UV-I 608 W/m 12,4 C 6,4 km/h (2 Bft)
15.09.2016 13:51 26,0 C 26,1 C 45 % 1008,6 hPa 0,0 mm 2,7 km/h (1 Bft) N 9 1 min 0,000 mm 4,0 UV-I 608 W/m 13,1 C 4,8 km/h (1 Bft)
15.09.2016 13:52 26,0 C 26,0 C 41 % 1008,6 hPa 0,0 mm 4,8 km/h (1 Bft) N 350 1 min 0,000 mm 3,6 UV-I 413 W/m 11,7 C 6,4 km/h (2 Bft)
15.09.2016 13:53 26,0 C 26,0 C 43 % 1008,5 hPa 0,0 mm 3,8 km/h (1 Bft) N-NW 347 1 min 0,000 mm 3,9 UV-I 466 W/m 12,4 C 6,4 km/h (2 Bft)
15.09.2016 13:54 26,1 C 26,1 C 45 % 1008,5 hPa 0,0 mm 4,0 km/h (1 Bft) NW 317 1 min 0,000 mm 3,8 UV-I 450 W/m 13,2 C 4,8 km/h (1 Bft)
15.09.2016 13:55 26,1 C 26,1 C 43 % 1008,5 hPa 0,0 mm 4,6 km/h (1 Bft) W 279 1 min 0,000 mm 3,7 UV-I 438 W/m 12,5 C 6,4 km/h (2 Bft)
15.09.2016 13:56 25,9 C 26,1 C 41 % 1008,6 hPa 0,0 mm 7,4 km/h (2 Bft) NW 313 1 min 0,000 mm 3,7 UV-I 436 W/m 11,6 C 11,3 km/h (2 Bft)
15.09.2016 13:57 25,8 C 25,9 C 42 % 1008,6 hPa 0,0 mm 6,5 km/h (2 Bft) NW 305 1 min 0,000 mm 3,8 UV-I 473 W/m 11,9 C 8,0 km/h (2 Bft)
15.09.2016 13:58 25,7 C 25,8 C 42 % 1008,5 hPa 0,0 mm 3,7 km/h (1 Bft) NW 316 1 min 0,000 mm 3,9 UV-I 497 W/m 11,8 C 6,4 km/h (2 Bft)
15.09.2016 13:59 25,7 C 25,7 C 43 % 1008,5 hPa 0,0 mm 4,4 km/h (1 Bft) NW 313 1 min 0,000 mm 3,6 UV-I 448 W/m 12,2 C 11,3 km/h (2 Bft)
15.09.2016 14:00 25,7 C 25,7 C 43 % 1008,5 hPa 0,0 mm 7,0 km/h (2 Bft) NW 319 1 min 0,000 mm 3,5 UV-I 385 W/m 12,2 C 11,3 km/h (2 Bft)
15.09.2016 14:01 25,6 C 25,7 C 44 % 1008,5 hPa 0,0 mm 7,2 km/h (2 Bft) W-NW 301 1 min 0,330 mm 3,8 UV-I 385 W/m 12,4 C 14,5 km/h (3 Bft)
15.09.2016 14:02 25,5 C 25,6 C 45 % 1008,4 hPa 0,0 mm 6,0 km/h (2 Bft) N 5 1 min 0,001 mm 3,0 UV-I 385 W/m 12,7 C 8,0 km/h (2 Bft)
15.09.2016 14:03 25,6 C 25,6 C 46 % 1008,4 hPa 0,0 mm 5,6 km/h (1 Bft) N-NO 31 0 min 0,000 mm 2,9 UV-I 269 W/m 13,1 C 8,0 km/h (2 Bft)
15.09.2016 14:04 25,6 C 25,6 C 44 % 1008,5 hPa 0,0 mm 7,0 km/h (2 Bft) N 355 0 min 0,000 mm 2,9 UV-I 264 W/m 12,4 C 8,0 km/h (2 Bft)
15.09.2016 14:05 25,5 C 25,6 C 42 % 1008,5 hPa 0,0 mm 5,7 km/h (1 Bft) N-NW 348 0 min 0,000 mm 2,9 UV-I 258 W/m 11,6 C 8,0 km/h (2 Bft)
15.09.2016 14:06 25,4 C 25,5 C 40 % 1008,5 hPa 0,0 mm 2,9 km/h (1 Bft) N-NW 331 0 min 0,000 mm 2,9 UV-I 276 W/m 10,8 C 4,8 km/h (1 Bft)
15.09.2016 14:07 25,4 C 25,4 C 42 % 1008,5 hPa 0,0 mm 2,5 km/h (1 Bft) N-NW 333 0 min 0,000 mm 3,1 UV-I 292 W/m 11,5 C 3,2 km/h (1 Bft)
15.09.2016 14:08 25,3 C 25,4 C 43 % 1008,5 hPa 0,0 mm 4,9 km/h (1 Bft) N-NW 338 0 min 0,000 mm 3,2 UV-I 292 W/m 11,8 C 8,0 km/h (2 Bft)
15.09.2016 14:09 25,4 C 25,4 C 40 % 1008,5 hPa 0,0 mm 3,6 km/h (1 Bft) N-NW 331 0 min 0,000 mm 4,2 UV-I 292 W/m 10,8 C 4,8 km/h (1 Bft)
15.09.2016 14:10 25,4 C 25,4 C 40 % 1008,6 hPa 0,0 mm 3,1 km/h (1 Bft) N-NW 334 0 min 0,000 mm 3,1 UV-I 292 W/m 10,8 C 6,4 km/h (2 Bft)
15.09.2016 14:11 25,5 C 25,5 C 44 % 1008,6 hPa 0,0 mm 3,6 km/h (1 Bft) N-NW 334 0 min 0,000 mm 4,0 UV-I 292 W/m 12,3 C 4,8 km/h (1 Bft)
15.09.2016 14:12 25,6 C 25,6 C 40 % 1008,5 hPa 0,0 mm 3,1 km/h (1 Bft) N 11 0 min 0,000 mm 3,5 UV-I 292 W/m 11,0 C 8,0 km/h (2 Bft)
15.09.2016 14:13 25,6 C 25,6 C 43 % 1008,6 hPa 0,0 mm 4,3 km/h (1 Bft) NW 309 0 min 0,000 mm 4,6 UV-I 292 W/m 12,1 C 6,4 km/h (2 Bft)
15.09.2016 14:14 25,6 C 25,6 C 43 % 1008,5 hPa 0,0 mm 2,5 km/h (1 Bft) W-NW 300 0 min 0,000 mm 3,9 UV-I 292 W/m 12,1 C 6,4 km/h (2 Bft)
15.09.2016 14:15 25,6 C 25,6 C 41 % 1008,5 hPa 0,0 mm 6,8 km/h (2 Bft) N-NW 338 0 min 0,000 mm 3,5 UV-I 292 W/m 11,4 C 8,0 km/h (2 Bft)
15.09.2016 14:16 25,6 C 25,7 C 42 % 1008,5 hPa 0,0 mm 2,5 km/h (1 Bft) N-NW 338 1 min 0,000 mm 3,4 UV-I 469 W/m 11,7 C 6,4 km/h (2 Bft)
15.09.2016 14:17 25,6 C 25,7 C 37 % 1008,5 hPa 0,0 mm 3,0 km/h (1 Bft) N 355 1 min 0,000 mm 3,1 UV-I 469 W/m 9,8 C 4,8 km/h (1 Bft)
15.09.2016 14:18 25,6 C 25,6 C 39 % 1008,5 hPa 0,0 mm 3,0 km/h (1 Bft) N-NW 340 0 min 0,000 mm 2,9 UV-I 309 W/m 10,6 C 4,8 km/h (1 Bft)
15.09.2016 14:19 25,5 C 25,6 C 42 % 1008,6 hPa 0,0 mm 3,7 km/h (1 Bft) W-NW 302 0 min 0,000 mm 3,3 UV-I 371 W/m 11,6 C 4,8 km/h (1 Bft)
15.09.2016 14:20 25,4 C 25,5 C 40 % 1008,5 hPa 0,0 mm 4,0 km/h (1 Bft) W-NW 303 1 min 0,000 mm 3,4 UV-I 397 W/m 10,8 C 6,4 km/h (2 Bft)
15.09.2016 14:21 25,4 C 25,4 C 42 % 1008,5 hPa 0,0 mm 3,6 km/h (1 Bft) N-NW 329 1 min 0,000 mm 3,4 UV-I 394 W/m 11,5 C 4,8 km/h (1 Bft)
15.09.2016 14:22 25,4 C 25,4 C 44 % 1008,6 hPa 0,0 mm 3,8 km/h (1 Bft) NW 308 1 min 0,000 mm 3,3 UV-I 406 W/m 12,2 C 4,8 km/h (1 Bft)
15.09.2016 14:23 25,4 C 25,4 C 48 % 1008,6 hPa 0,0 mm 3,8 km/h (1 Bft) W-NW 300 0 min 0,000 mm 3,1 UV-I 355 W/m 13,6 C 8,0 km/h (2 Bft)
15.09.2016 14:24 25,4 C 25,4 C 41 % 1008,6 hPa 0,0 mm 7,1 km/h (2 Bft) W-NW 294 1 min 0,000 mm 3,2 UV-I 415 W/m 11,2 C 11,3 km/h (2 Bft)
15.09.2016 14:25 25,4 C 25,4 C 45 % 1008,6 hPa 0,0 mm 4,2 km/h (1 Bft) NW 309 0 min 0,000 mm 3,0 UV-I 315 W/m 12,6 C 6,4 km/h (2 Bft)
15.09.2016 14:26 25,3 C 25,4 C 42 % 1008,5 hPa 0,0 mm 4,8 km/h (1 Bft) W-NW 289 0 min 0,000 mm 3,0 UV-I 339 W/m 11,5 C 6,4 km/h (2 Bft)
15.09.2016 14:27 25,3 C 25,3 C 43 % 1008,6 hPa 0,0 mm 4,2 km/h (1 Bft) W-NW 290 0 min 0,000 mm 3,0 UV-I 332 W/m 11,8 C 6,4 km/h (2 Bft)
15.09.2016 14:28 25,2 C 25,3 C 42 % 1008,6 hPa 0,0 mm 3,0 km/h (1 Bft) W-NW 298 0 min 0,000 mm 3,1 UV-I 362 W/m 11,4 C 6,4 km/h (2 Bft)
15.09.2016 14:29 25,2 C 25,2 C 45 % 1008,6 hPa 0,0 mm 3,0 km/h (1 Bft) W-NW 299 0 min 0,000 mm 2,9 UV-I 306 W/m 12,4 C 6,4 km/h (2 Bft)
15.09.2016 14:30 25,2 C 25,2 C 45 % 1008,6 hPa 0,0 mm 2,8 km/h (1 Bft) W-NW 299 0 min 0,000 mm 2,8 UV-I 306 W/m 12,4 C 4,8 km/h (1 Bft)
15.09.2016 14:31 25,2 C 25,2 C 43 % 1008,6 hPa 0,0 mm 3,6 km/h (1 Bft) W 268 0 min 0,000 mm 2,6 UV-I 306 W/m 11,7 C 4,8 km/h (1 Bft)
15.09.2016 14:32 25,1 C 25,2 C 50 % 1008,6 hPa 0,0 mm 4,8 km/h (1 Bft) W-SW 250 0 min 0,000 mm 2,5 UV-I 260 W/m 13,9 C 6,4 km/h (2 Bft)
15.09.2016 14:33 25,0 C 25,1 C 45 % 1008,7 hPa 0,0 mm 5,7 km/h (1 Bft) W-SW 240 0 min 0,000 mm 2,4 UV-I 251 W/m 12,2 C 9,7 km/h (2 Bft)
15.09.2016 14:34 24,9 C 25,0 C 46 % 1008,7 hPa 0,0 mm 8,8 km/h (2 Bft) W-NW 284 0 min 0,000 mm 2,4 UV-I 244 W/m 12,5 C 12,9 km/h (3 Bft)
15.09.2016 14:35 24,7 C 24,9 C 49 % 1008,8 hPa 0,0 mm 7,8 km/h (2 Bft) W-NW 292 0 min 0,000 mm 2,3 UV-I 234 W/m 13,3 C 9,7 km/h (2 Bft)
15.09.2016 14:36 24,6 C 24,7 C 51 % 1008,8 hPa 0,0 mm 11,4 km/h (2 Bft) W-NW 294 0 min 0,000 mm 2,2 UV-I 230 W/m 13,8 C 17,7 km/h (3 Bft)
15.09.2016 14:37 24,4 C 24,6 C 54 % 1008,7 hPa 0,0 mm 9,2 km/h (2 Bft) W 270 0 min 0,000 mm 2,2 UV-I 225 W/m 14,5 C 12,9 km/h (3 Bft)
15.09.2016 14:38 24,2 C 24,4 C 56 % 1008,9 hPa 0,0 mm 6,7 km/h (2 Bft) W-SW 250 0 min 0,000 mm 2,2 UV-I 220 W/m 14,9 C 12,9 km/h (3 Bft)
15.09.2016 14:39 23,9 C 24,2 C 57 % 1008,8 hPa 0,0 mm 14,4 km/h (3 Bft) W-SW 254 0 min 0,000 mm 2,1 UV-I 213 W/m 14,9 C 20,9 km/h (4 Bft)
15.09.2016 14:40 23,7 C 23,9 C 60 % 1008,8 hPa 0,0 mm 9,8 km/h (2 Bft) W 263 0 min 0,000 mm 2,0 UV-I 209 W/m 15,5 C 14,5 km/h (3 Bft)
15.09.2016 14:41 23,6 C 23,7 C 59 % 1008,9 hPa 0,0 mm 11,5 km/h (2 Bft) W 259 0 min 0,000 mm 2,0 UV-I 202 W/m 15,1 C 16,1 km/h (3 Bft)
15.09.2016 14:42 23,4 C 23,6 C 60 % 1008,8 hPa 0,0 mm 15,0 km/h (3 Bft) W-NW 288 0 min 0,000 mm 1,9 UV-I 200 W/m 15,2 C 19,3 km/h (3 Bft)
15.09.2016 14:43 23,2 C 23,4 C 60 % 1008,9 hPa 0,0 mm 11,0 km/h (2 Bft) W 275 0 min 0,000 mm 1,9 UV-I 200 W/m 15,0 C 16,1 km/h (3 Bft)
15.09.2016 14:44 23,2 C 23,2 C 59 % 1008,9 hPa 0,0 mm 4,9 km/h (1 Bft) W 265 0 min 0,000 mm 1,8 UV-I 200 W/m 14,7 C 11,3 km/h (2 Bft)
15.09.2016 14:45 23,0 C 23,2 C 62 % 1008,9 hPa 0,0 mm 6,6 km/h (2 Bft) W 259 0 min 0,000 mm 1,8 UV-I 197 W/m 15,3 C 14,5 km/h (3 Bft)
15.09.2016 14:46 22,9 C 23,0 C 61 % 1009,0 hPa 0,0 mm 10,0 km/h (2 Bft) W-SW 244 0 min 0,000 mm 1,8 UV-I 195 W/m 15,0 C 19,3 km/h (3 Bft)
15.09.2016 14:47 22,8 C 22,9 C 62 % 1008,9 hPa 0,0 mm 6,9 km/h (2 Bft) W-NW 284 0 min 0,000 mm 1,7 UV-I 186 W/m 15,1 C 11,3 km/h (2 Bft)
15.09.2016 14:48 22,8 C 22,8 C 62 % 1009,0 hPa 0,0 mm 9,4 km/h (2 Bft) W-SW 242 0 min 0,000 mm 1,6 UV-I 181 W/m 15,1 C 19,3 km/h (3 Bft)
15.09.2016 14:49 22,7 C 22,8 C 63 % 1008,9 hPa 0,0 mm 6,9 km/h (2 Bft) W 261 0 min 0,000 mm 1,6 UV-I 176 W/m 15,3 C 14,5 km/h (3 Bft)
15.09.2016 14:50 22,5 C 22,7 C 63 % 1008,9 hPa 0,0 mm 8,9 km/h (2 Bft) W-SW 245 0 min 0,000 mm 1,6 UV-I 172 W/m 15,1 C 14,5 km/h (3 Bft)
15.09.2016 14:51 22,4 C 22,6 C 62 % 1009,0 hPa 0,0 mm 10,6 km/h (2 Bft) W-SW 240 0 min 0,000 mm 1,5 UV-I 169 W/m 14,8 C 16,1 km/h (3 Bft)
15.09.2016 14:52 22,3 C 22,4 C 63 % 1009,0 hPa 0,0 mm 11,1 km/h (2 Bft) W-NW 286 0 min 0,000 mm 1,5 UV-I 165 W/m 14,9 C 16,1 km/h (3 Bft)
15.09.2016 14:53 22,3 C 22,3 C 63 % 1009,0 hPa 0,0 mm 5,8 km/h (2 Bft) W-SW 255 0 min 0,000 mm 1,5 UV-I 158 W/m 14,9 C 9,7 km/h (2 Bft)
15.09.2016 14:54 22,3 C 22,3 C 64 % 1009,1 hPa 0,0 mm 5,6 km/h (1 Bft) W 271 0 min 0,000 mm 1,4 UV-I 155 W/m 15,2 C 9,7 km/h (2 Bft)
15.09.2016 14:55 22,2 C 22,3 C 63 % 1009,0 hPa 0,0 mm 4,1 km/h (1 Bft) W-NW 298 0 min 0,000 mm 1,3 UV-I 149 W/m 14,8 C 4,8 km/h (1 Bft)
15.09.2016 14:56 22,2 C 22,2 C 62 % 1009,1 hPa 0,0 mm 6,6 km/h (2 Bft) W-NW 296 0 min 0,000 mm 1,3 UV-I 146 W/m 14,6 C 9,7 km/h (2 Bft)
15.09.2016 14:57 22,2 C 22,2 C 64 % 1009,1 hPa 0,0 mm 5,6 km/h (1 Bft) W 267 0 min 0,000 mm 1,3 UV-I 142 W/m 15,1 C 9,7 km/h (2 Bft)
15.09.2016 14:58 22,1 C 22,2 C 64 % 1009,1 hPa 0,0 mm 6,4 km/h (2 Bft) NW 306 0 min 0,000 mm 1,2 UV-I 139 W/m 15,0 C 11,3 km/h (2 Bft)
15.09.2016 14:59 22,1 C 22,1 C 66 % 1009,1 hPa 0,0 mm 4,8 km/h (1 Bft) W-NW 284 0 min 0,000 mm 1,2 UV-I 132 W/m 15,4 C 11,3 km/h (2 Bft)
15.09.2016 15:00 21,9 C 22,1 C 64 % 1009,1 hPa 0,0 mm 7,1 km/h (2 Bft) W-SW 248 0 min 0,000 mm 1,1 UV-I 128 W/m 14,8 C 11,3 km/h (2 Bft)
15.09.2016 15:01 21,9 C 21,9 C 64 % 1009,1 hPa 0,0 mm 5,4 km/h (1 Bft) SW 223 0 min 0,228 mm 1,1 UV-I 125 W/m 14,8 C 6,4 km/h (2 Bft)
15.09.2016 15:02 21,8 C 21,9 C 66 % 1009,2 hPa 0,0 mm 8,9 km/h (2 Bft) W-SW 242 0 min 0,000 mm 1,1 UV-I 121 W/m 15,2 C 16,1 km/h (3 Bft)
15.09.2016 15:03 21,8 C 21,8 C 65 % 1009,2 hPa 0,0 mm 13,1 km/h (3 Bft) W 261 0 min 0,000 mm 1,1 UV-I 118 W/m 14,9 C 19,3 km/h (3 Bft)
15.09.2016 15:04 21,7 C 21,8 C 65 % 1009,2 hPa 0,0 mm 10,2 km/h (2 Bft) W 270 0 min 0,000 mm 1,0 UV-I 116 W/m 14,8 C 14,5 km/h (3 Bft)
15.09.2016 15:05 21,6 C 21,7 C 65 % 1009,2 hPa 0,0 mm 8,0 km/h (2 Bft) W 261 0 min 0,000 mm 1,0 UV-I 113 W/m 14,7 C 11,3 km/h (2 Bft)
15.09.2016 15:06 21,6 C 21,6 C 64 % 1009,2 hPa 0,0 mm 6,6 km/h (2 Bft) NW 311 0 min 0,000 mm 1,0 UV-I 111 W/m 14,5 C 11,3 km/h (2 Bft)
15.09.2016 15:07 21,5 C 21,6 C 65 % 1009,2 hPa 0,0 mm 7,4 km/h (2 Bft) W-SW 251 0 min 0,000 mm 1,0 UV-I 107 W/m 14,6 C 11,3 km/h (2 Bft)
15.09.2016 15:08 21,4 C 21,5 C 65 % 1009,2 hPa 0,0 mm 5,8 km/h (2 Bft) W 259 0 min 0,000 mm 0,9 UV-I 105 W/m 14,5 C 11,3 km/h (2 Bft)
15.09.2016 15:09 21,4 C 21,4 C 65 % 1009,2 hPa 0,0 mm 6,7 km/h (2 Bft) W-SW 254 0 min 0,000 mm 0,9 UV-I 104 W/m 14,5 C 11,3 km/h (2 Bft)
15.09.2016 15:10 21,4 C 21,4 C 64 % 1009,2 hPa 0,0 mm 8,3 km/h (2 Bft) W 267 0 min 0,000 mm 0,9 UV-I 102 W/m 14,3 C 12,9 km/h (3 Bft)
15.09.2016 15:11 21,4 C 21,4 C 63 % 1009,3 hPa 0,0 mm 3,9 km/h (1 Bft) W-NW 299 0 min 0,000 mm 0,9 UV-I 98 W/m 14,1 C 4,8 km/h (1 Bft)
15.09.2016 15:12 21,3 C 21,4 C 65 % 1009,3 hPa 0,0 mm 6,8 km/h (2 Bft) W-NW 288 0 min 0,000 mm 0,8 UV-I 97 W/m 14,4 C 11,3 km/h (2 Bft)
15.09.2016 15:13 21,3 C 21,4 C 65 % 1009,3 hPa 0,0 mm 3,1 km/h (1 Bft) W-NW 288 0 min 0,000 mm 0,8 UV-I 95 W/m 14,4 C 6,4 km/h (2 Bft)
15.09.2016 15:14 21,3 C 21,3 C 66 % 1009,3 hPa 0,0 mm 5,3 km/h (1 Bft) W-NW 284 0 min 0,000 mm 0,8 UV-I 93 W/m 14,7 C 11,3 km/h (2 Bft)
15.09.2016 15:15 21,2 C 21,3 C 67 % 1009,3 hPa 0,0 mm 3,5 km/h (1 Bft) W-SW 248 0 min 0,000 mm 0,8 UV-I 93 W/m 14,8 C 6,4 km/h (2 Bft)
15.09.2016 15:16 21,2 C 21,3 C 67 % 1009,3 hPa 0,0 mm 4,3 km/h (1 Bft) SW 234 0 min 0,000 mm 0,8 UV-I 91 W/m 14,8 C 12,9 km/h (3 Bft)
15.09.2016 15:17 21,2 C 21,2 C 67 % 1009,3 hPa 0,0 mm 5,4 km/h (1 Bft) W 269 0 min 0,000 mm 0,8 UV-I 90 W/m 14,8 C 11,3 km/h (2 Bft)
15.09.2016 15:18 21,1 C 21,2 C 66 % 1009,4 hPa 0,0 mm 5,9 km/h (2 Bft) SW 236 0 min 0,000 mm 0,8 UV-I 90 W/m 14,5 C 9,7 km/h (2 Bft)
15.09.2016 15:19 21,1 C 21,1 C 67 % 1009,4 hPa 0,0 mm 7,9 km/h (2 Bft) W 275 0 min 0,000 mm 0,8 UV-I 88 W/m 14,7 C 11,3 km/h (2 Bft)
15.09.2016 15:20 21,1 C 21,1 C 68 % 1009,4 hPa 0,0 mm 2,2 km/h (1 Bft) SW 235 0 min 0,000 mm 0,7 UV-I 88 W/m 15,0 C 4,8 km/h (1 Bft)
15.09.2016 15:21 21,0 C 21,1 C 67 % 1009,4 hPa 0,0 mm 6,4 km/h (2 Bft) W 269 0 min 0,000 mm 0,8 UV-I 88 W/m 14,6 C 12,9 km/h (3 Bft)
15.09.2016 15:22 20,9 C 21,0 C 67 % 1009,4 hPa 0,0 mm 9,0 km/h (2 Bft) W 259 0 min 0,000 mm 0,8 UV-I 91 W/m 14,5 C 12,9 km/h (3 Bft)
15.09.2016 15:23 20,9 C 21,0 C 68 % 1009,4 hPa 0,0 mm 6,0 km/h (2 Bft) W-NW 298 0 min 0,000 mm 0,8 UV-I 93 W/m 14,8 C 11,3 km/h (2 Bft)
15.09.2016 15:24 20,9 C 20,9 C 67 % 1009,4 hPa 0,0 mm 4,1 km/h (1 Bft) W 259 0 min 0,000 mm 0,8 UV-I 97 W/m 14,5 C 6,4 km/h (2 Bft)
15.09.2016 15:25 20,9 C 20,9 C 66 % 1009,4 hPa 0,0 mm 4,6 km/h (1 Bft) W-SW 252 0 min 0,000 mm 0,8 UV-I 98 W/m 14,3 C 6,4 km/h (2 Bft)
15.09.2016 15:26 20,9 C 20,9 C 67 % 1009,4 hPa 0,0 mm 2,9 km/h (1 Bft) W 260 0 min 0,000 mm 0,8 UV-I 98 W/m 14,5 C 6,4 km/h (2 Bft)
15.09.2016 15:27 20,9 C 20,9 C 67 % 1009,4 hPa 0,0 mm 4,6 km/h (1 Bft) W 281 0 min 0,000 mm 0,8 UV-I 100 W/m 14,5 C 6,4 km/h (2 Bft)
15.09.2016 15:28 20,8 C 20,9 C 67 % 1009,4 hPa 0,0 mm 3,1 km/h (1 Bft) W-NW 282 0 min 0,000 mm 0,8 UV-I 102 W/m 14,4 C 4,8 km/h (1 Bft)
15.09.2016 15:29 20,8 C 20,9 C 68 % 1009,4 hPa 0,0 mm 4,1 km/h (1 Bft) W-NW 286 0 min 0,000 mm 0,8 UV-I 104 W/m 14,7 C 4,8 km/h (1 Bft)
15.09.2016 15:30 20,8 C 20,9 C 69 % 1009,3 hPa 0,0 mm 4,8 km/h (1 Bft) W-NW 294 0 min 0,000 mm 0,9 UV-I 104 W/m 14,9 C 6,4 km/h (2 Bft)
15.09.2016 15:31 20,8 C 20,8 C 69 % 1009,3 hPa 0,0 mm 4,4 km/h (1 Bft) W-NW 288 0 min 0,000 mm 0,9 UV-I 105 W/m 14,9 C 6,4 km/h (2 Bft)
15.09.2016 15:32 20,8 C 20,8 C 69 % 1009,3 hPa 0,0 mm 4,2 km/h (1 Bft) W-NW 292 0 min 0,000 mm 0,9 UV-I 109 W/m 14,9 C 8,0 km/h (2 Bft)
15.09.2016 15:33 20,8 C 20,8 C 68 % 1009,3 hPa 0,0 mm 4,2 km/h (1 Bft) W-NW 294 0 min 0,000 mm 0,9 UV-I 113 W/m 14,7 C 6,4 km/h (2 Bft)
15.09.2016 15:34 20,8 C 20,8 C 69 % 1009,3 hPa 0,0 mm 4,0 km/h (1 Bft) W 265 0 min 0,000 mm 0,9 UV-I 120 W/m 14,9 C 4,8 km/h (1 Bft)
15.09.2016 15:35 20,8 C 20,8 C 67 % 1009,3 hPa 0,0 mm 3,8 km/h (1 Bft) W 275 0 min 0,000 mm 1,0 UV-I 125 W/m 14,4 C 6,4 km/h (2 Bft)
15.09.2016 15:36 20,8 C 20,8 C 69 % 1009,3 hPa 0,0 mm 2,9 km/h (1 Bft) W-NW 298 0 min 0,000 mm 1,0 UV-I 127 W/m 14,9 C 4,8 km/h (1 Bft)
15.09.2016 15:37 20,8 C 20,8 C 68 % 1009,3 hPa 0,0 mm 3,6 km/h (1 Bft) W-NW 298 0 min 0,000 mm 1,0 UV-I 130 W/m 14,7 C 4,8 km/h (1 Bft)
15.09.2016 15:38 20,9 C 20,9 C 69 % 1009,3 hPa 0,0 mm 2,3 km/h (1 Bft) W-NW 286 0 min 0,000 mm 1,0 UV-I 132 W/m 15,0 C 3,2 km/h (1 Bft)
15.09.2016 15:39 20,8 C 20,9 C 69 % 1009,4 hPa 0,0 mm 3,0 km/h (1 Bft) W-NW 290 0 min 0,000 mm 1,1 UV-I 134 W/m 14,9 C 4,8 km/h (1 Bft)
15.09.2016 15:40 20,8 C 20,8 C 69 % 1009,4 hPa 0,0 mm 5,0 km/h (1 Bft) W-NW 286 0 min 0,000 mm 1,1 UV-I 135 W/m 14,9 C 6,4 km/h (2 Bft)
15.09.2016 15:41 20,8 C 20,8 C 70 % 1009,5 hPa 0,0 mm 3,2 km/h (1 Bft) W 281 0 min 0,000 mm 1,1 UV-I 137 W/m 15,1 C 4,8 km/h (1 Bft)
15.09.2016 15:42 20,8 C 20,8 C 69 % 1009,5 hPa 0,0 mm 2,5 km/h (1 Bft) W 277 0 min 0,000 mm 1,1 UV-I 139 W/m 14,9 C 4,8 km/h (1 Bft)
15.09.2016 15:43 20,8 C 20,8 C 70 % 1009,5 hPa 0,0 mm 2,4 km/h (1 Bft) W 277 0 min 0,000 mm 1,1 UV-I 142 W/m 15,1 C 3,2 km/h (1 Bft)
15.09.2016 15:44 20,8 C 20,8 C 70 % 1009,5 hPa 0,0 mm 3,1 km/h (1 Bft) W-NW 287 0 min 0,000 mm 1,1 UV-I 146 W/m 15,1 C 4,8 km/h (1 Bft)
15.09.2016 15:45 20,8 C 20,8 C 70 % 1009,5 hPa 0,0 mm 3,8 km/h (1 Bft) W-NW 286 0 min 0,000 mm 1,1 UV-I 149 W/m 15,1 C 6,4 km/h (2 Bft)
15.09.2016 15:46 20,8 C 20,8 C 71 % 1009,5 hPa 0,0 mm 2,5 km/h (1 Bft) W-NW 286 0 min 0,000 mm 1,2 UV-I 158 W/m 15,3 C 3,2 km/h (1 Bft)
15.09.2016 15:47 20,8 C 20,8 C 70 % 1009,5 hPa 0,0 mm 2,0 km/h (1 Bft) W 281 0 min 0,000 mm 1,2 UV-I 167 W/m 15,1 C 3,2 km/h (1 Bft)
15.09.2016 15:48 20,8 C 20,8 C 71 % 1009,5 hPa 0,0 mm 3,4 km/h (1 Bft) W 281 0 min 0,000 mm 1,3 UV-I 172 W/m 15,3 C 4,8 km/h (1 Bft)
15.09.2016 15:49 20,8 C 20,8 C 73 % 1009,5 hPa 0,0 mm 1,9 km/h (1 Bft) W 273 0 min 0,000 mm 1,3 UV-I 178 W/m 15,8 C 3,2 km/h (1 Bft)
15.09.2016 15:50 20,9 C 20,9 C 70 % 1009,5 hPa 0,0 mm 3,0 km/h (1 Bft) W 278 0 min 0,000 mm 1,3 UV-I 183 W/m 15,2 C 4,8 km/h (1 Bft)
15.09.2016 15:51 20,9 C 20,9 C 71 % 1009,5 hPa 0,0 mm 2,3 km/h (1 Bft) W 278 0 min 0,000 mm 1,3 UV-I 188 W/m 15,4 C 3,2 km/h (1 Bft)
15.09.2016 15:52 20,9 C 20,9 C 72 % 1009,5 hPa 0,0 mm 2,8 km/h (1 Bft) NW 306 0 min 0,000 mm 1,4 UV-I 213 W/m 15,7 C 4,8 km/h (1 Bft)
15.09.2016 15:53 21,0 C 21,0 C 71 % 1009,5 hPa 0,0 mm 3,0 km/h (1 Bft) NW 305 0 min 0,000 mm 1,4 UV-I 218 W/m 15,5 C 4,8 km/h (1 Bft)
15.09.2016 15:54 21,1 C 21,1 C 72 % 1009,5 hPa 0,0 mm 4,3 km/h (1 Bft) W-NW 294 0 min 0,000 mm 1,4 UV-I 218 W/m 15,8 C 9,7 km/h (2 Bft)
15.09.2016 15:55 21,1 C 21,1 C 71 % 1009,5 hPa 0,0 mm 5,9 km/h (2 Bft) W 279 0 min 0,000 mm 1,4 UV-I 209 W/m 15,6 C 9,7 km/h (2 Bft)
15.09.2016 15:56 21,1 C 21,1 C 70 % 1009,5 hPa 0,0 mm 2,9 km/h (1 Bft) W 277 0 min 0,000 mm 1,4 UV-I 206 W/m 15,4 C 6,4 km/h (2 Bft)
15.09.2016 15:57 21,2 C 21,2 C 72 % 1009,5 hPa 0,0 mm 4,3 km/h (1 Bft) W-NW 290 0 min 0,000 mm 1,5 UV-I 209 W/m 15,9 C 6,4 km/h (2 Bft)
15.09.2016 15:58 21,2 C 21,2 C 71 % 1009,5 hPa 0,0 mm 4,3 km/h (1 Bft) W-SW 242 0 min 0,000 mm 1,5 UV-I 211 W/m 15,7 C 6,4 km/h (2 Bft)
15.09.2016 15:59 21,2 C 21,2 C 70 % 1009,5 hPa 0,0 mm 7,2 km/h (2 Bft) W-NW 292 0 min 0,000 mm 1,5 UV-I 213 W/m 15,5 C 12,9 km/h (3 Bft)
15.09.2016 16:00 21,1 C 21,2 C 71 % 1009,5 hPa 0,0 mm 6,0 km/h (2 Bft) W-NW 292 0 min 0,000 mm 1,5 UV-I 214 W/m 15,6 C 9,7 km/h (2 Bft)
15.09.2016 16:01 21,2 C 21,2 C 71 % 1009,5 hPa 0,0 mm 6,2 km/h (2 Bft) W-NW 290 0 min 0,102 mm 1,5 UV-I 216 W/m 15,7 C 9,7 km/h (2 Bft)
15.09.2016 16:02 21,1 C 21,2 C 71 % 1009,5 hPa 0,0 mm 5,7 km/h (1 Bft) NW 317 0 min 0,000 mm 1,5 UV-I 216 W/m 15,6 C 9,7 km/h (2 Bft)
15.09.2016 16:03 21,1 C 21,2 C 71 % 1009,5 hPa 0,0 mm 3,2 km/h (1 Bft) W-NW 292 0 min 0,000 mm 1,5 UV-I 216 W/m 15,6 C 6,4 km/h (2 Bft)
15.09.2016 16:04 21,1 C 21,1 C 71 % 1009,5 hPa 0,0 mm 3,6 km/h (1 Bft) W-NW 296 0 min 0,000 mm 1,5 UV-I 218 W/m 15,6 C 6,4 km/h (2 Bft)
15.09.2016 16:05 21,1 C 21,1 C 71 % 1009,5 hPa 0,0 mm 4,2 km/h (1 Bft) W-NW 282 0 min 0,000 mm 1,6 UV-I 220 W/m 15,6 C 6,4 km/h (2 Bft)
15.09.2016 16:06 21,1 C 21,1 C 72 % 1009,5 hPa 0,0 mm 7,9 km/h (2 Bft) W 269 0 min 0,000 mm 1,6 UV-I 223 W/m 15,8 C 9,7 km/h (2 Bft)
15.09.2016 16:07 21,1 C 21,1 C 70 % 1009,5 hPa 0,0 mm 3,8 km/h (1 Bft) W-NW 294 0 min 0,000 mm 1,6 UV-I 223 W/m 15,4 C 6,4 km/h (2 Bft)
15.09.2016 16:08 21,1 C 21,1 C 71 % 1009,5 hPa 0,0 mm 3,1 km/h (1 Bft) W-NW 293 0 min 0,000 mm 1,6 UV-I 234 W/m 15,6 C 4,8 km/h (1 Bft)
15.09.2016 16:09 21,1 C 21,1 C 72 % 1009,6 hPa 0,0 mm 4,0 km/h (1 Bft) W-NW 298 0 min 0,000 mm 1,7 UV-I 258 W/m 15,8 C 4,8 km/h (1 Bft)
15.09.2016 16:10 21,1 C 21,1 C 70 % 1009,6 hPa 0,0 mm 3,6 km/h (1 Bft) NW 315 0 min 0,000 mm 1,8 UV-I 274 W/m 15,4 C 4,8 km/h (1 Bft)
15.09.2016 16:11 21,1 C 21,1 C 70 % 1009,6 hPa 0,0 mm 2,4 km/h (1 Bft) W-NW 295 0 min 0,000 mm 1,9 UV-I 274 W/m 15,4 C 4,8 km/h (1 Bft)
15.09.2016 16:12 21,1 C 21,1 C 72 % 1009,6 hPa 0,0 mm 6,1 km/h (2 Bft) NW 315 0 min 0,000 mm 1,9 UV-I 274 W/m 15,8 C 9,7 km/h (2 Bft)
15.09.2016 16:13 21,1 C 21,2 C 71 % 1009,6 hPa 0,0 mm 5,0 km/h (1 Bft) W 273 1 min 0,000 mm 1,9 UV-I 297 W/m 15,6 C 6,4 km/h (2 Bft)
15.09.2016 16:14 21,2 C 21,2 C 69 % 1009,6 hPa 0,0 mm 3,5 km/h (1 Bft) W 281 1 min 0,000 mm 2,0 UV-I 297 W/m 15,3 C 6,4 km/h (2 Bft)
15.09.2016 16:15 21,2 C 21,2 C 70 % 1009,6 hPa 0,0 mm 4,4 km/h (1 Bft) W-NW 299 1 min 0,000 mm 2,0 UV-I 299 W/m 15,5 C 9,7 km/h (2 Bft)
15.09.2016 16:16 21,2 C 21,2 C 71 % 1009,5 hPa 0,0 mm 3,3 km/h (1 Bft) W-NW 296 1 min 0,000 mm 2,1 UV-I 315 W/m 15,7 C 4,8 km/h (1 Bft)
15.09.2016 16:17 21,3 C 21,3 C 70 % 1009,6 hPa 0,0 mm 3,0 km/h (1 Bft) W 276 1 min 0,000 mm 2,1 UV-I 332 W/m 15,6 C 6,4 km/h (2 Bft)
15.09.2016 16:18 21,3 C 21,3 C 70 % 1009,6 hPa 0,0 mm 3,1 km/h (1 Bft) W 273 1 min 0,000 mm 2,2 UV-I 348 W/m 15,6 C 4,8 km/h (1 Bft)
15.09.2016 16:19 21,3 C 21,3 C 70 % 1009,5 hPa 0,0 mm 5,7 km/h (1 Bft) W-NW 296 1 min 0,000 mm 2,3 UV-I 373 W/m 15,6 C 11,3 km/h (2 Bft)
15.09.2016 16:20 21,3 C 21,3 C 69 % 1009,6 hPa 0,0 mm 5,9 km/h (2 Bft) W 273 1 min 0,000 mm 2,3 UV-I 388 W/m 15,4 C 9,7 km/h (2 Bft)
15.09.2016 16:21 21,3 C 21,3 C 70 % 1009,6 hPa 0,0 mm 7,0 km/h (2 Bft) W 259 1 min 0,000 mm 2,3 UV-I 396 W/m 15,6 C 11,3 km/h (2 Bft)
15.09.2016 16:22 21,3 C 21,3 C 68 % 1009,7 hPa 0,0 mm 3,0 km/h (1 Bft) W-NW 285 1 min 0,000 mm 2,3 UV-I 383 W/m 15,1 C 4,8 km/h (1 Bft)
15.09.2016 16:23 21,3 C 21,3 C 67 % 1009,6 hPa 0,0 mm 3,3 km/h (1 Bft) W-NW 286 1 min 0,000 mm 2,3 UV-I 397 W/m 14,9 C 6,4 km/h (2 Bft)
15.09.2016 16:24 21,4 C 21,4 C 68 % 1009,7 hPa 0,0 mm 4,5 km/h (1 Bft) W-NW 285 1 min 0,000 mm 2,3 UV-I 394 W/m 15,2 C 6,4 km/h (2 Bft)
15.09.2016 16:25 21,4 C 21,4 C 69 % 1009,7 hPa 0,0 mm 3,3 km/h (1 Bft) W-NW 291 1 min 0,000 mm 2,3 UV-I 378 W/m 15,5 C 4,8 km/h (1 Bft)
15.09.2016 16:26 21,5 C 21,5 C 68 % 1009,6 hPa 0,0 mm 3,4 km/h (1 Bft) W-NW 292 1 min 0,000 mm 2,3 UV-I 378 W/m 15,3 C 4,8 km/h (1 Bft)
15.09.2016 16:27 21,6 C 21,6 C 70 % 1009,6 hPa 0,0 mm 4,6 km/h (1 Bft) NW 306 1 min 0,000 mm 2,3 UV-I 357 W/m 15,9 C 6,4 km/h (2 Bft)
15.09.2016 16:28 21,7 C 21,7 C 70 % 1009,6 hPa 0,0 mm 5,8 km/h (2 Bft) NW 310 1 min 0,000 mm 2,2 UV-I 294 W/m 16,0 C 8,0 km/h (2 Bft)
15.09.2016 16:29 21,7 C 21,7 C 68 % 1009,6 hPa 0,0 mm 5,7 km/h (1 Bft) NW 317 1 min 0,000 mm 2,1 UV-I 269 W/m 15,5 C 8,0 km/h (2 Bft)
15.09.2016 16:30 21,7 C 21,7 C 65 % 1009,6 hPa 0,0 mm 4,3 km/h (1 Bft) W-NW 300 1 min 0,000 mm 2,0 UV-I 262 W/m 14,8 C 6,4 km/h (2 Bft)
15.09.2016 16:31 21,7 C 21,7 C 67 % 1009,6 hPa 0,0 mm 3,0 km/h (1 Bft) NW 322 0 min 0,000 mm 2,0 UV-I 229 W/m 15,3 C 4,8 km/h (1 Bft)
15.09.2016 16:32 21,7 C 21,7 C 67 % 1009,6 hPa 0,0 mm 4,0 km/h (1 Bft) NW 317 0 min 0,000 mm 1,9 UV-I 220 W/m 15,3 C 6,4 km/h (2 Bft)
15.09.2016 16:33 21,7 C 21,7 C 68 % 1009,6 hPa 0,0 mm 1,7 km/h (1 Bft) NW 317 0 min 0,000 mm 1,9 UV-I 213 W/m 15,5 C 3,2 km/h (1 Bft)
15.09.2016 16:34 21,7 C 21,7 C 68 % 1009,6 hPa 0,0 mm 2,5 km/h (1 Bft) NW 317 0 min 0,000 mm 1,8 UV-I 190 W/m 15,5 C 4,8 km/h (1 Bft)
15.09.2016 16:35 21,7 C 21,7 C 68 % 1009,5 hPa 0,0 mm 2,5 km/h (1 Bft) W 278 0 min 0,000 mm 1,8 UV-I 190 W/m 15,5 C 6,4 km/h (2 Bft)
15.09.2016 16:36 21,7 C 21,7 C 67 % 1009,6 hPa 0,0 mm 4,2 km/h (1 Bft) W 279 0 min 0,000 mm 1,8 UV-I 183 W/m 15,3 C 6,4 km/h (2 Bft)
15.09.2016 16:37 21,7 C 21,7 C 63 % 1009,5 hPa 0,0 mm 4,2 km/h (1 Bft) W-SW 248 0 min 0,000 mm 1,7 UV-I 165 W/m 14,3 C 6,4 km/h (2 Bft)
15.09.2016 16:38 21,6 C 21,7 C 63 % 1009,6 hPa 0,0 mm 5,8 km/h (2 Bft) W-SW 252 0 min 0,000 mm 1,6 UV-I 185 W/m 14,2 C 9,7 km/h (2 Bft)
15.09.2016 16:39 21,6 C 21,6 C 66 % 1009,6 hPa 0,0 mm 6,1 km/h (2 Bft) W-SW 243 0 min 0,000 mm 1,6 UV-I 183 W/m 15,0 C 12,9 km/h (3 Bft)
15.09.2016 16:40 21,6 C 21,6 C 66 % 1009,6 hPa 0,0 mm 5,7 km/h (1 Bft) W 279 0 min 0,000 mm 1,5 UV-I 142 W/m 15,0 C 11,3 km/h (2 Bft)
15.09.2016 16:41 21,5 C 21,6 C 63 % 1009,5 hPa 0,0 mm 5,1 km/h (1 Bft) W-NW 287 0 min 0,000 mm 1,4 UV-I 109 W/m 14,2 C 9,7 km/h (2 Bft)
15.09.2016 16:42 21,5 C 21,5 C 62 % 1009,6 hPa 0,0 mm 5,3 km/h (1 Bft) W 259 0 min 0,000 mm 1,4 UV-I 102 W/m 13,9 C 11,3 km/h (2 Bft)
15.09.2016 16:43 21,4 C 21,5 C 63 % 1009,6 hPa 0,0 mm 7,2 km/h (2 Bft) W 264 0 min 0,000 mm 1,4 UV-I 100 W/m 14,1 C 11,3 km/h (2 Bft)
15.09.2016 16:44 21,3 C 21,4 C 64 % 1009,5 hPa 0,0 mm 2,1 km/h (1 Bft) W 263 0 min 0,000 mm 1,3 UV-I 93 W/m 14,2 C 4,8 km/h (1 Bft)
15.09.2016 16:45 21,3 C 21,3 C 64 % 1009,5 hPa 0,0 mm 1,9 km/h (1 Bft) W-SW 252 0 min 0,000 mm 1,3 UV-I 93 W/m 14,2 C 4,8 km/h (1 Bft)
15.09.2016 16:46 21,2 C 21,3 C 63 % 1009,6 hPa 0,0 mm 2,9 km/h (1 Bft) W 271 0 min 0,000 mm 1,3 UV-I 98 W/m 13,9 C 4,8 km/h (1 Bft)
15.09.2016 16:47 21,2 C 21,2 C 67 % 1009,6 hPa 0,0 mm 2,0 km/h (1 Bft) W-SW 256 0 min 0,000 mm 1,3 UV-I 104 W/m 14,8 C 3,2 km/h (1 Bft)
15.09.2016 16:48 21,1 C 21,2 C 66 % 1009,7 hPa 0,0 mm 2,9 km/h (1 Bft) W 277 0 min 0,000 mm 1,3 UV-I 105 W/m 14,5 C 4,8 km/h (1 Bft)
15.09.2016 16:49 21,1 C 21,1 C 66 % 1009,6 hPa 0,0 mm 2,7 km/h (1 Bft) W-NW 282 0 min 0,000 mm 1,3 UV-I 109 W/m 14,5 C 3,2 km/h (1 Bft)
15.09.2016 16:50 21,1 C 21,1 C 66 % 1009,6 hPa 0,0 mm 2,1 km/h (1 Bft) W 281 0 min 0,000 mm 1,3 UV-I 118 W/m 14,5 C 3,2 km/h (1 Bft)
15.09.2016 16:51 21,2 C 21,2 C 66 % 1009,7 hPa 0,0 mm 3,0 km/h (1 Bft) W 259 0 min 0,000 mm 1,3 UV-I 120 W/m 14,6 C 4,8 km/h (1 Bft)
15.09.2016 16:52 21,2 C 21,2 C 67 % 1009,5 hPa 0,0 mm 2,4 km/h (1 Bft) W 279 0 min 0,000 mm 1,3 UV-I 120 W/m 14,8 C 4,8 km/h (1 Bft)
15.09.2016 16:53 21,2 C 21,2 C 66 % 1009,5 hPa 0,0 mm 5,0 km/h (1 Bft) W-NW 303 0 min 0,000 mm 1,3 UV-I 118 W/m 14,6 C 8,0 km/h (2 Bft)
15.09.2016 16:54 21,3 C 21,3 C 66 % 1009,5 hPa 0,0 mm 4,0 km/h (1 Bft) W-NW 286 0 min 0,000 mm 1,3 UV-I 118 W/m 14,7 C 6,4 km/h (2 Bft)
15.09.2016 16:55 21,3 C 21,4 C 65 % 1009,5 hPa 0,0 mm 3,2 km/h (1 Bft) W-NW 292 0 min 0,000 mm 1,3 UV-I 116 W/m 14,4 C 4,8 km/h (1 Bft)
15.09.2016 16:56 21,4 C 21,4 C 66 % 1009,4 hPa 0,0 mm 4,3 km/h (1 Bft) W-NW 290 0 min 0,000 mm 1,3 UV-I 120 W/m 14,8 C 6,4 km/h (2 Bft)
15.09.2016 16:57 21,4 C 21,4 C 66 % 1009,4 hPa 0,0 mm 2,8 km/h (1 Bft) W-NW 292 0 min 0,000 mm 1,3 UV-I 123 W/m 14,8 C 3,2 km/h (1 Bft)
15.09.2016 16:58 21,4 C 21,4 C 67 % 1009,4 hPa 0,0 mm 2,1 km/h (1 Bft) W-NW 292 0 min 0,000 mm 1,2 UV-I 123 W/m 15,0 C 3,2 km/h (1 Bft)
15.09.2016 16:59 21,4 C 21,4 C 65 % 1009,4 hPa 0,0 mm 1,1 km/h (1 Bft) W-NW 292 0 min 0,000 mm 1,2 UV-I 125 W/m 14,5 C 1,6 km/h (1 Bft)
15.09.2016 17:00 21,3 C 21,4 C 65 % 1009,4 hPa 0,0 mm 2,7 km/h (1 Bft) W 267 0 min 0,000 mm 1,2 UV-I 127 W/m 14,4 C 4,8 km/h (1 Bft)
15.09.2016 17:01 21,3 C 21,3 C 65 % 1009,4 hPa 0,0 mm 2,0 km/h (1 Bft) W 267 0 min 0,152 mm 1,2 UV-I 127 W/m 14,4 C 3,2 km/h (1 Bft)
15.09.2016 17:02 21,3 C 21,3 C 66 % 1009,3 hPa 0,0 mm 3,7 km/h (1 Bft) W-SW 249 0 min 0,000 mm 1,2 UV-I 127 W/m 14,7 C 4,8 km/h (1 Bft)
15.09.2016 17:03 21,3 C 21,3 C 64 % 1009,4 hPa 0,0 mm 3,0 km/h (1 Bft) W-SW 249 0 min 0,000 mm 1,2 UV-I 127 W/m 14,2 C 4,8 km/h (1 Bft)
15.09.2016 17:04 21,3 C 21,3 C 65 % 1009,4 hPa 0,0 mm 2,2 km/h (1 Bft) W-SW 250 0 min 0,000 mm 1,2 UV-I 128 W/m 14,4 C 3,2 km/h (1 Bft)
15.09.2016 17:05 21,3 C 21,3 C 66 % 1009,3 hPa 0,0 mm 2,3 km/h (1 Bft) W-SW 250 0 min 0,000 mm 1,1 UV-I 130 W/m 14,7 C 3,2 km/h (1 Bft)
15.09.2016 17:06 21,3 C 21,3 C 69 % 1009,3 hPa 0,0 mm 1,0 km/h (0 Bft) W-SW 250 0 min 0,000 mm 1,1 UV-I 132 W/m 15,4 C 3,2 km/h (1 Bft)
15.09.2016 17:07 21,3 C 21,3 C 69 % 1009,3 hPa 0,0 mm 2,0 km/h (1 Bft) W-SW 250 0 min 0,000 mm 1,1 UV-I 132 W/m 15,4 C 3,2 km/h (1 Bft)
15.09.2016 17:08 21,2 C 21,3 C 71 % 1009,3 hPa 0,0 mm 2,1 km/h (1 Bft) W-SW 250 0 min 0,000 mm 1,1 UV-I 134 W/m 15,7 C 3,2 km/h (1 Bft)
15.09.2016 17:09 21,2 C 21,2 C 72 % 1009,3 hPa 0,0 mm 1,6 km/h (1 Bft) W-SW 250 0 min 0,000 mm 1,1 UV-I 134 W/m 15,9 C 3,2 km/h (1 Bft)
15.09.2016 17:10 21,2 C 21,2 C 68 % 1009,3 hPa 0,0 mm 0,3 km/h (0 Bft) W-SW 250 0 min 0,000 mm 1,1 UV-I 135 W/m 15,1 C 1,6 km/h (1 Bft)
15.09.2016 17:11 21,2 C 21,2 C 68 % 1009,3 hPa 0,0 mm 2,2 km/h (1 Bft) W-SW 250 0 min 0,000 mm 1,1 UV-I 134 W/m 15,1 C 3,2 km/h (1 Bft)
15.09.2016 17:12 21,2 C 21,2 C 70 % 1009,3 hPa 0,0 mm 1,8 km/h (1 Bft) W-SW 250 0 min 0,000 mm 1,1 UV-I 134 W/m 15,5 C 3,2 km/h (1 Bft)
15.09.2016 17:13 21,2 C 21,2 C 70 % 1009,2 hPa 0,0 mm 0,3 km/h (0 Bft) W-SW 250 0 min 0,000 mm 1,1 UV-I 132 W/m 15,5 C 1,6 km/h (1 Bft)
15.09.2016 17:14 21,2 C 21,2 C 73 % 1009,2 hPa 0,0 mm 0,3 km/h (0 Bft) W-SW 250 0 min 0,000 mm 1,0 UV-I 130 W/m 16,2 C 1,6 km/h (1 Bft)
15.09.2016 17:15 21,1 C 21,2 C 71 % 1009,3 hPa 0,0 mm 2,1 km/h (1 Bft) W-SW 250 0 min 0,000 mm 1,0 UV-I 128 W/m 15,6 C 3,2 km/h (1 Bft)
15.09.2016 17:16 21,1 C 21,1 C 69 % 1009,2 hPa 0,0 mm 2,9 km/h (1 Bft) W 269 0 min 0,000 mm 1,0 UV-I 125 W/m 15,2 C 4,8 km/h (1 Bft)
15.09.2016 17:17 21,1 C 21,1 C 66 % 1009,2 hPa 0,0 mm 1,9 km/h (1 Bft) W 269 0 min 0,000 mm 1,0 UV-I 123 W/m 14,5 C 3,2 km/h (1 Bft)
15.09.2016 17:18 21,2 C 21,2 C 66 % 1009,2 hPa 0,0 mm 3,1 km/h (1 Bft) W-NW 302 0 min 0,000 mm 1,0 UV-I 121 W/m 14,6 C 4,8 km/h (1 Bft)
15.09.2016 17:19 21,2 C 21,2 C 65 % 1009,1 hPa 0,0 mm 2,9 km/h (1 Bft) NW 304 0 min 0,000 mm 1,0 UV-I 120 W/m 14,4 C 4,8 km/h (1 Bft)
15.09.2016 17:20 21,2 C 21,2 C 63 % 1009,2 hPa 0,0 mm 3,7 km/h (1 Bft) NW 317 0 min 0,000 mm 0,9 UV-I 118 W/m 13,9 C 4,8 km/h (1 Bft)
15.09.2016 17:21 21,3 C 21,3 C 63 % 1009,2 hPa 0,0 mm 3,2 km/h (1 Bft) NW 315 0 min 0,000 mm 0,9 UV-I 118 W/m 14,0 C 4,8 km/h (1 Bft)
15.09.2016 17:22 21,2 C 21,3 C 62 % 1009,2 hPa 0,0 mm 3,6 km/h (1 Bft) NW 313 0 min 0,000 mm 0,9 UV-I 118 W/m 13,6 C 4,8 km/h (1 Bft)
15.09.2016 17:23 21,2 C 21,3 C 63 % 1009,1 hPa 0,0 mm 2,1 km/h (1 Bft) NW 313 0 min 0,000 mm 0,9 UV-I 116 W/m 13,9 C 4,8 km/h (1 Bft)
15.09.2016 17:24 21,2 C 21,3 C 63 % 1009,1 hPa 0,0 mm 1,4 km/h (1 Bft) NW 313 0 min 0,000 mm 0,9 UV-I 116 W/m 13,9 C 3,2 km/h (1 Bft)
15.09.2016 17:25 21,2 C 21,2 C 65 % 1009,0 hPa 0,0 mm 0,9 km/h (0 Bft) NW 313 0 min 0,000 mm 0,9 UV-I 113 W/m 14,4 C 1,6 km/h (1 Bft)
15.09.2016 17:26 21,2 C 21,2 C 65 % 1009,0 hPa 0,0 mm 0,7 km/h (0 Bft) NW 321 0 min 0,000 mm 0,9 UV-I 111 W/m 14,4 C 3,2 km/h (1 Bft)
15.09.2016 17:27 21,2 C 21,2 C 64 % 1009,0 hPa 0,0 mm 0,5 km/h (0 Bft) NW 321 0 min 0,000 mm 0,8 UV-I 109 W/m 14,1 C 1,6 km/h (1 Bft)
15.09.2016 17:28 21,2 C 21,2 C 64 % 1009,0 hPa 0,0 mm 1,8 km/h (1 Bft) NW 321 0 min 0,000 mm 0,8 UV-I 107 W/m 14,1 C 3,2 km/h (1 Bft)
15.09.2016 17:29 21,1 C 21,2 C 65 % 1009,0 hPa 0,0 mm 3,0 km/h (1 Bft) NW 321 0 min 0,000 mm 0,8 UV-I 105 W/m 14,3 C 4,8 km/h (1 Bft)
15.09.2016 17:30 21,1 C 21,1 C 65 % 1009,0 hPa 0,0 mm 1,9 km/h (1 Bft) NW 321 0 min 0,000 mm 0,8 UV-I 104 W/m 14,3 C 3,2 km/h (1 Bft)
15.09.2016 17:31 21,1 C 21,1 C 65 % 1009,0 hPa 0,0 mm 1,6 km/h (1 Bft) NW 321 0 min 0,000 mm 0,8 UV-I 102 W/m 14,3 C 3,2 km/h (1 Bft)
15.09.2016 17:32 21,1 C 21,1 C 65 % 1008,9 hPa 0,0 mm 1,1 km/h (1 Bft) N-NW 348 0 min 0,000 mm 0,8 UV-I 102 W/m 14,3 C 4,8 km/h (1 Bft)
15.09.2016 17:33 21,1 C 21,1 C 65 % 1008,9 hPa 0,0 mm 1,6 km/h (1 Bft) N-NW 348 0 min 0,000 mm 0,8 UV-I 104 W/m 14,3 C 3,2 km/h (1 Bft)
15.09.2016 17:34 21,1 C 21,1 C 67 % 1008,9 hPa 0,0 mm 2,7 km/h (1 Bft) N-NW 327 0 min 0,000 mm 0,8 UV-I 105 W/m 14,7 C 4,8 km/h (1 Bft)
15.09.2016 17:35 21,1 C 21,1 C 67 % 1008,9 hPa 0,0 mm 2,2 km/h (1 Bft) N-NW 332 0 min 0,000 mm 0,8 UV-I 107 W/m 14,7 C 3,2 km/h (1 Bft)
15.09.2016 17:36 21,0 C 21,1 C 67 % 1008,9 hPa 0,0 mm 1,9 km/h (1 Bft) N-NW 331 0 min 0,000 mm 0,8 UV-I 107 W/m 14,6 C 3,2 km/h (1 Bft)
15.09.2016 17:37 21,0 C 21,0 C 66 % 1008,9 hPa 0,0 mm 1,5 km/h (1 Bft) N-NW 331 0 min 0,000 mm 0,8 UV-I 107 W/m 14,4 C 3,2 km/h (1 Bft)
15.09.2016 17:38 21,0 C 21,0 C 66 % 1008,9 hPa 0,0 mm 1,0 km/h (0 Bft) N-NW 331 0 min 0,000 mm 0,8 UV-I 105 W/m 14,4 C 3,2 km/h (1 Bft)
15.09.2016 17:39 21,0 C 21,0 C 64 % 1009,0 hPa 0,0 mm 2,2 km/h (1 Bft) N-NW 331 0 min 0,000 mm 0,8 UV-I 104 W/m 13,9 C 3,2 km/h (1 Bft)
15.09.2016 17:40 20,9 C 21,0 C 69 % 1009,0 hPa 0,0 mm 0,6 km/h (0 Bft) N-NW 331 0 min 0,000 mm 0,7 UV-I 100 W/m 15,0 C 1,6 km/h (1 Bft)
15.09.2016 17:41 20,9 C 20,9 C 64 % 1009,1 hPa 0,0 mm 0,6 km/h (0 Bft) N-NW 331 0 min 0,000 mm 0,7 UV-I 98 W/m 13,8 C 1,6 km/h (1 Bft)
15.09.2016 17:42 20,9 C 20,9 C 66 % 1009,1 hPa 0,0 mm 1,0 km/h (0 Bft) N-NW 331 0 min 0,000 mm 0,7 UV-I 95 W/m 14,3 C 1,6 km/h (1 Bft)
15.09.2016 17:43 20,9 C 20,9 C 69 % 1009,1 hPa 0,0 mm 0,0 km/h (0 Bft) N-NW 331 0 min 0,000 mm 0,7 UV-I 91 W/m 15,0 C 0,0 km/h (0 Bft)
15.09.2016 17:44 20,8 C 20,9 C 65 % 1009,1 hPa 0,0 mm 0,8 km/h (0 Bft) N-NW 331 0 min 0,000 mm 0,7 UV-I 91 W/m 14,0 C 1,6 km/h (1 Bft)
15.09.2016 17:45 20,8 C 20,8 C 64 % 1009,1 hPa 0,0 mm 1,4 km/h (1 Bft) N-NW 331 0 min 0,000 mm 0,7 UV-I 90 W/m 13,7 C 1,6 km/h (1 Bft)
15.09.2016 17:46 20,8 C 20,8 C 65 % 1009,2 hPa 0,0 mm 1,3 km/h (1 Bft) N-NW 331 0 min 0,000 mm 0,7 UV-I 90 W/m 14,0 C 3,2 km/h (1 Bft)
15.09.2016 17:47 20,8 C 20,8 C 64 % 1009,1 hPa 0,0 mm 1,3 km/h (1 Bft) N-NW 331 0 min 0,000 mm 0,7 UV-I 90 W/m 13,7 C 3,2 km/h (1 Bft)
15.09.2016 17:48 20,8 C 20,8 C 67 % 1009,1 hPa 0,0 mm 0,1 km/h (0 Bft) N-NW 331 0 min 0,000 mm 0,7 UV-I 90 W/m 14,4 C 1,6 km/h (1 Bft)
15.09.2016 17:49 20,8 C 20,8 C 64 % 1009,1 hPa 0,0 mm 0,1 km/h (0 Bft) N-NW 331 0 min 0,000 mm 0,7 UV-I 90 W/m 13,7 C 1,6 km/h (1 Bft)
15.09.2016 17:50 20,8 C 20,8 C 67 % 1009,1 hPa 0,0 mm 0,3 km/h (0 Bft) N-NW 331 0 min 0,000 mm 0,7 UV-I 88 W/m 14,4 C 1,6 km/h (1 Bft)
15.09.2016 17:51 20,8 C 20,8 C 67 % 1009,1 hPa 0,0 mm 0,0 km/h (0 Bft) N-NW 331 0 min 0,000 mm 0,7 UV-I 86 W/m 14,4 C 0,0 km/h (0 Bft)
15.09.2016 17:52 20,7 C 20,8 C 69 % 1009,1 hPa 0,0 mm 0,5 km/h (0 Bft) N-NW 331 0 min 0,000 mm 0,7 UV-I 83 W/m 14,8 C 1,6 km/h (1 Bft)
15.09.2016 17:53 20,7 C 20,7 C 67 % 1009,1 hPa 0,0 mm 0,9 km/h (0 Bft) N-NW 331 0 min 0,000 mm 0,7 UV-I 81 W/m 14,3 C 1,6 km/h (1 Bft)
15.09.2016 17:54 20,6 C 20,7 C 68 % 1009,1 hPa 0,0 mm 0,9 km/h (0 Bft) N-NW 331 0 min 0,000 mm 0,7 UV-I 77 W/m 14,5 C 1,6 km/h (1 Bft)
15.09.2016 17:55 20,6 C 20,6 C 69 % 1009,1 hPa 0,0 mm 0,1 km/h (0 Bft) N-NW 331 0 min 0,000 mm 0,6 UV-I 76 W/m 14,7 C 1,6 km/h (1 Bft)
15.09.2016 17:56 20,5 C 20,6 C 68 % 1009,1 hPa 0,0 mm 0,0 km/h (0 Bft) N-NW 331 0 min 0,000 mm 0,6 UV-I 74 W/m 14,4 C 0,0 km/h (0 Bft)
15.09.2016 17:57 20,6 C 20,6 C 67 % 1009,1 hPa 0,0 mm 0,1 km/h (0 Bft) N-NW 331 0 min 0,000 mm 0,6 UV-I 72 W/m 14,3 C 1,6 km/h (1 Bft)
15.09.2016 17:58 20,7 C 20,7 C 66 % 1009,1 hPa 0,0 mm 0,1 km/h (0 Bft) N-NW 331 0 min 0,000 mm 0,6 UV-I 70 W/m 14,1 C 1,6 km/h (1 Bft)
15.09.2016 17:59 20,7 C 20,7 C 70 % 1009,2 hPa 0,0 mm 0,0 km/h (0 Bft) N-NW 331 0 min 0,000 mm 0,6 UV-I 69 W/m 15,0 C 0,0 km/h (0 Bft)
15.09.2016 18:00 20,6 C 20,7 C 68 % 1009,1 hPa 0,0 mm 0,0 km/h (0 Bft) N-NW 331 0 min 0,076 mm 0,6 UV-I 63 W/m 14,5 C 0,0 km/h (0 Bft)
15.09.2016 18:01 20,5 C 20,6 C 70 % 1009,1 hPa 0,0 mm 0,0 km/h (0 Bft) N-NW 331 0 min 0,000 mm 0,6 UV-I 62 W/m 14,8 C 0,0 km/h (0 Bft)
15.09.2016 18:02 20,4 C 20,5 C 67 % 1009,1 hPa 0,0 mm 0,0 km/h (0 Bft) N-NW 331 0 min 0,000 mm 0,6 UV-I 62 W/m 14,1 C 0,0 km/h (0 Bft)
15.09.2016 18:03 20,4 C 20,4 C 67 % 1009,1 hPa 0,0 mm 0,0 km/h (0 Bft) N-NW 331 0 min 0,000 mm 0,6 UV-I 60 W/m 14,1 C 0,0 km/h (0 Bft)
15.09.2016 18:04 20,3 C 20,4 C 68 % 1009,1 hPa 0,0 mm 0,3 km/h (0 Bft) N-NW 331 0 min 0,000 mm 0,5 UV-I 60 W/m 14,2 C 1,6 km/h (1 Bft)
15.09.2016 18:05 20,3 C 20,3 C 68 % 1009,2 hPa 0,0 mm 0,3 km/h (0 Bft) N-NW 331 0 min 0,000 mm 0,5 UV-I 58 W/m 14,2 C 1,6 km/h (1 Bft)
15.09.2016 18:06 20,2 C 20,3 C 69 % 1009,2 hPa 0,0 mm 0,0 km/h (0 Bft) N-NW 331 0 min 0,000 mm 0,5 UV-I 54 W/m 14,3 C 0,0 km/h (0 Bft)
15.09.2016 18:07 20,2 C 20,2 C 70 % 1009,1 hPa 0,0 mm 0,2 km/h (0 Bft) N-NW 331 0 min 0,000 mm 0,0 UV-I 54 W/m 14,5 C 1,6 km/h (1 Bft)
15.09.2016 18:08 20,2 C 20,2 C 70 % 1009,2 hPa 0,0 mm 0,0 km/h (0 Bft) N-NW 331 0 min 0,000 mm 0,0 UV-I 53 W/m 14,5 C 0,0 km/h (0 Bft)
15.09.2016 18:09 20,2 C 20,2 C 72 % 1009,2 hPa 0,0 mm 0,4 km/h (0 Bft) N-NW 331 0 min 0,000 mm 0,0 UV-I 53 W/m 15,0 C 1,6 km/h (1 Bft)
15.09.2016 18:10 20,1 C 20,2 C 71 % 1009,2 hPa 0,0 mm 0,4 km/h (0 Bft) N-NW 331 0 min 0,000 mm 0,0 UV-I 53 W/m 14,7 C 1,6 km/h (1 Bft)
15.09.2016 18:11 20,1 C 20,1 C 71 % 1009,2 hPa 0,0 mm 0,2 km/h (0 Bft) N-NW 331 0 min 0,000 mm 0,0 UV-I 51 W/m 14,7 C 1,6 km/h (1 Bft)
15.09.2016 18:12 20,0 C 20,1 C 70 % 1009,2 hPa 0,0 mm 0,1 km/h (0 Bft) N-NW 331 0 min 0,000 mm 0,0 UV-I 51 W/m 14,4 C 1,6 km/h (1 Bft)
15.09.2016 18:13 20,0 C 20,0 C 70 % 1009,2 hPa 0,0 mm 0,0 km/h (0 Bft) N-NW 331 0 min 0,000 mm 0,0 UV-I 51 W/m 14,4 C 0,0 km/h (0 Bft)
15.09.2016 18:14 20,0 C 20,0 C 69 % 1009,2 hPa 0,0 mm 0,0 km/h (0 Bft) N-NW 331 0 min 0,000 mm 0,0 UV-I 51 W/m 14,1 C 0,0 km/h (0 Bft)
15.09.2016 18:15 20,1 C 20,1 C 69 % 1009,2 hPa 0,0 mm 0,1 km/h (0 Bft) N-NW 331 0 min 0,000 mm 0,0 UV-I 51 W/m 14,2 C 1,6 km/h (1 Bft)
15.09.2016 18:16 20,0 C 20,1 C 69 % 1009,1 hPa 0,0 mm 0,0 km/h (0 Bft) N-NW 331 0 min 0,000 mm 0,0 UV-I 49 W/m 14,1 C 0,0 km/h (0 Bft)
15.09.2016 18:17 20,1 C 20,1 C 67 % 1009,1 hPa 0,0 mm 0,3 km/h (0 Bft) N-NW 331 0 min 0,000 mm 0,0 UV-I 49 W/m 13,8 C 1,6 km/h (1 Bft)
15.09.2016 18:18 20,2 C 20,2 C 67 % 1009,1 hPa 0,0 mm 0,6 km/h (0 Bft) N-NW 331 0 min 0,000 mm 0,0 UV-I 46 W/m 13,9 C 1,6 km/h (1 Bft)
15.09.2016 18:19 20,2 C 20,2 C 67 % 1009,1 hPa 0,0 mm 1,3 km/h (1 Bft) N-NW 331 0 min 0,000 mm 0,0 UV-I 44 W/m 13,9 C 1,6 km/h (1 Bft)
15.09.2016 18:20 20,2 C 20,2 C 68 % 1009,1 hPa 0,0 mm 1,5 km/h (1 Bft) N-NW 331 0 min 0,000 mm 0,0 UV-I 42 W/m 14,1 C 3,2 km/h (1 Bft)
15.09.2016 18:21 20,2 C 20,2 C 68 % 1009,2 hPa 0,0 mm 0,2 km/h (0 Bft) N-NW 331 0 min 0,000 mm 0,0 UV-I 40 W/m 14,1 C 1,6 km/h (1 Bft)
15.09.2016 18:22 20,2 C 20,2 C 66 % 1009,1 hPa 0,0 mm 0,1 km/h (0 Bft) N-NW 331 0 min 0,000 mm 0,0 UV-I 40 W/m 13,6 C 1,6 km/h (1 Bft)
15.09.2016 18:23 20,2 C 20,2 C 66 % 1009,2 hPa 0,0 mm 0,1 km/h (0 Bft) N-NW 331 0 min 0,000 mm 0,0 UV-I 40 W/m 13,6 C 1,6 km/h (1 Bft)
15.09.2016 18:24 20,2 C 20,2 C 68 % 1009,1 hPa 0,0 mm 0,3 km/h (0 Bft) N-NW 331 0 min 0,000 mm 0,0 UV-I 40 W/m 14,1 C 1,6 km/h (1 Bft)
15.09.2016 18:25 20,1 C 20,2 C 69 % 1009,2 hPa 0,0 mm 1,2 km/h (1 Bft) N-NW 331 0 min 0,000 mm 0,0 UV-I 40 W/m 14,2 C 1,6 km/h (1 Bft)
15.09.2016 18:26 20,0 C 20,1 C 68 % 1009,2 hPa 0,0 mm 0,3 km/h (0 Bft) N-NW 331 0 min 0,000 mm 0,0 UV-I 40 W/m 13,9 C 1,6 km/h (1 Bft)
15.09.2016 18:27 19,9 C 20,0 C 68 % 1009,2 hPa 0,0 mm 1,5 km/h (1 Bft) N-NW 331 0 min 0,000 mm 0,0 UV-I 40 W/m 13,8 C 3,2 km/h (1 Bft)
15.09.2016 18:28 19,9 C 19,9 C 68 % 1009,3 hPa 0,0 mm 1,5 km/h (1 Bft) N-NW 331 0 min 0,000 mm 0,0 UV-I 40 W/m 13,8 C 3,2 km/h (1 Bft)
15.09.2016 18:29 19,8 C 19,9 C 68 % 1009,3 hPa 0,0 mm 2,3 km/h (1 Bft) N-NW 331 0 min 0,000 mm 0,0 UV-I 40 W/m 13,7 C 3,2 km/h (1 Bft)
15.09.2016 18:30 19,8 C 19,9 C 68 % 1009,4 hPa 0,0 mm 1,9 km/h (1 Bft) N-NW 331 0 min 0,000 mm 0,0 UV-I 39 W/m 13,7 C 3,2 km/h (1 Bft)
15.09.2016 18:31 19,8 C 19,9 C 68 % 1009,4 hPa 0,0 mm 0,9 km/h (0 Bft) N-NW 331 0 min 0,000 mm 0,0 UV-I 37 W/m 13,7 C 1,6 km/h (1 Bft)
15.09.2016 18:32 19,8 C 19,9 C 68 % 1009,5 hPa 0,0 mm 2,5 km/h (1 Bft) N-NW 330 0 min 0,000 mm 0,0 UV-I 35 W/m 13,7 C 4,8 km/h (1 Bft)
15.09.2016 18:33 19,8 C 19,9 C 67 % 1009,5 hPa 0,0 mm 1,7 km/h (1 Bft) NW 318 0 min 0,000 mm 0,0 UV-I 35 W/m 13,5 C 3,2 km/h (1 Bft)
15.09.2016 18:34 19,9 C 19,9 C 69 % 1009,5 hPa 0,0 mm 1,5 km/h (1 Bft) NW 318 0 min 0,000 mm 0,0 UV-I 33 W/m 14,0 C 3,2 km/h (1 Bft)
15.09.2016 18:35 19,8 C 19,9 C 69 % 1009,5 hPa 0,0 mm 0,9 km/h (0 Bft) NW 318 0 min 0,000 mm 0,0 UV-I 33 W/m 13,9 C 1,6 km/h (1 Bft)
15.09.2016 18:36 19,8 C 19,8 C 69 % 1009,5 hPa 0,0 mm 0,3 km/h (0 Bft) NW 318 0 min 0,000 mm 0,0 UV-I 30 W/m 13,9 C 1,6 km/h (1 Bft)
15.09.2016 18:37 19,7 C 19,8 C 71 % 1009,5 hPa 0,0 mm 0,4 km/h (0 Bft) NW 318 0 min 0,000 mm 0,0 UV-I 30 W/m 14,3 C 1,6 km/h (1 Bft)
15.09.2016 18:38 19,6 C 19,7 C 71 % 1009,5 hPa 0,0 mm 0,1 km/h (0 Bft) NW 318 0 min 0,000 mm 0,0 UV-I 28 W/m 14,2 C 1,6 km/h (1 Bft)
15.09.2016 18:39 19,4 C 19,6 C 73 % 1009,5 hPa 0,0 mm 0,9 km/h (0 Bft) NW 318 0 min 0,000 mm 0,0 UV-I 26 W/m 14,4 C 3,2 km/h (1 Bft)
15.09.2016 18:40 19,3 C 19,4 C 73 % 1009,5 hPa 0,0 mm 1,5 km/h (1 Bft) NW 318 0 min 0,000 mm 0,0 UV-I 25 W/m 14,3 C 3,2 km/h (1 Bft)
15.09.2016 18:41 19,2 C 19,3 C 74 % 1009,6 hPa 0,0 mm 0,9 km/h (0 Bft) NW 318 0 min 0,000 mm 0,0 UV-I 23 W/m 14,4 C 3,2 km/h (1 Bft)
15.09.2016 18:42 18,9 C 19,2 C 75 % 1009,6 hPa 0,0 mm 1,9 km/h (1 Bft) NW 318 0 min 0,000 mm 0,0 UV-I 21 W/m 14,4 C 3,2 km/h (1 Bft)
15.09.2016 18:43 18,8 C 18,9 C 74 % 1009,7 hPa 0,0 mm 1,9 km/h (1 Bft) NW 318 0 min 0,000 mm 0,0 UV-I 19 W/m 14,1 C 3,2 km/h (1 Bft)
15.09.2016 18:44 18,8 C 18,8 C 74 % 1009,7 hPa 0,0 mm 1,3 km/h (1 Bft) NW 318 0 min 0,000 mm 0,0 UV-I 18 W/m 14,1 C 1,6 km/h (1 Bft)
15.09.2016 18:45 18,7 C 18,8 C 74 % 1009,8 hPa 0,0 mm 1,7 km/h (1 Bft) NW 318 0 min 0,000 mm 0,0 UV-I 18 W/m 14,0 C 3,2 km/h (1 Bft)
15.09.2016 18:46 18,7 C 18,7 C 74 % 1009,7 hPa 0,0 mm 1,7 km/h (1 Bft) NW 318 0 min 0,000 mm 0,0 UV-I 16 W/m 14,0 C 3,2 km/h (1 Bft)
15.09.2016 18:47 18,7 C 18,7 C 75 % 1009,8 hPa 0,0 mm 1,0 km/h (0 Bft) NW 318 0 min 0,000 mm 0,0 UV-I 16 W/m 14,2 C 1,6 km/h (1 Bft)
15.09.2016 18:48 18,6 C 18,7 C 75 % 1009,8 hPa 0,0 mm 1,5 km/h (1 Bft) NW 318 0 min 0,000 mm 0,0 UV-I 14 W/m 14,1 C 1,6 km/h (1 Bft)
15.09.2016 18:49 18,5 C 18,6 C 75 % 1009,7 hPa 0,0 mm 1,5 km/h (1 Bft) NW 318 0 min 0,000 mm 0,0 UV-I 14 W/m 14,0 C 3,2 km/h (1 Bft)
15.09.2016 18:50 18,4 C 18,5 C 75 % 1009,8 hPa 0,0 mm 0,9 km/h (0 Bft) NW 318 0 min 0,000 mm 0,0 UV-I 12 W/m 13,9 C 1,6 km/h (1 Bft)
15.09.2016 18:51 18,4 C 18,4 C 74 % 1009,7 hPa 0,0 mm 1,0 km/h (0 Bft) NW 318 0 min 0,000 mm 0,0 UV-I 12 W/m 13,7 C 1,6 km/h (1 Bft)
15.09.2016 18:52 18,3 C 18,4 C 75 % 1009,8 hPa 0,0 mm 1,1 km/h (1 Bft) NW 318 0 min 0,000 mm 0,0 UV-I 12 W/m 13,8 C 3,2 km/h (1 Bft)
15.09.2016 18:53 18,3 C 18,3 C 74 % 1009,8 hPa 0,0 mm 0,7 km/h (0 Bft) NW 318 0 min 0,000 mm 0,0 UV-I 11 W/m 13,6 C 1,6 km/h (1 Bft)
15.09.2016 18:54 18,3 C 18,3 C 73 % 1009,8 hPa 0,0 mm 1,5 km/h (1 Bft) NW 318 0 min 0,000 mm 0,0 UV-I 11 W/m 13,4 C 1,6 km/h (1 Bft)
15.09.2016 18:55 18,4 C 18,4 C 74 % 1009,8 hPa 0,0 mm 0,7 km/h (0 Bft) NW 318 0 min 0,000 mm 0,0 UV-I 11 W/m 13,7 C 1,6 km/h (1 Bft)
15.09.2016 18:56 18,4 C 18,4 C 73 % 1009,8 hPa 0,0 mm 1,5 km/h (1 Bft) NW 318 0 min 0,000 mm 0,0 UV-I 11 W/m 13,5 C 3,2 km/h (1 Bft)
15.09.2016 18:57 18,5 C 18,5 C 73 % 1009,8 hPa 0,0 mm 1,3 km/h (1 Bft) NW 318 0 min 0,000 mm 0,0 UV-I 11 W/m 13,6 C 1,6 km/h (1 Bft)
15.09.2016 18:58 18,5 C 18,5 C 72 % 1009,8 hPa 0,0 mm 1,5 km/h (1 Bft) NW 318 0 min 0,000 mm 0,0 UV-I 11 W/m 13,4 C 3,2 km/h (1 Bft)
15.09.2016 18:59 18,5 C 18,5 C 73 % 1009,8 hPa 0,0 mm 1,0 km/h (0 Bft) NW 318 0 min 0,000 mm 0,0 UV-I 11 W/m 13,6 C 3,2 km/h (1 Bft)
15.09.2016 19:00 18,4 C 18,5 C 74 % 1009,8 hPa 0,0 mm 0,2 km/h (0 Bft) NW 318 0 min 0,000 mm 0,0 UV-I 11 W/m 13,7 C 1,6 km/h (1 Bft)
15.09.2016 19:01 18,3 C 18,4 C 74 % 1009,8 hPa 0,0 mm 0,3 km/h (0 Bft) NW 318 0 min 0,025 mm 0,0 UV-I 11 W/m 13,6 C 1,6 km/h (1 Bft)
15.09.2016 19:02 18,2 C 18,3 C 74 % 1009,8 hPa 0,0 mm 0,7 km/h (0 Bft) NW 318 0 min 0,001 mm 0,0 UV-I 11 W/m 13,5 C 1,6 km/h (1 Bft)
15.09.2016 19:03 18,2 C 18,2 C 73 % 1009,8 hPa 0,0 mm 1,0 km/h (0 Bft) NW 318 0 min 0,000 mm 0,0 UV-I 11 W/m 13,3 C 1,6 km/h (1 Bft)
15.09.2016 19:04 18,2 C 18,2 C 75 % 1009,8 hPa 0,0 mm 1,3 km/h (1 Bft) NW 318 0 min 0,000 mm 0,0 UV-I 9 W/m 13,7 C 3,2 km/h (1 Bft)
15.09.2016 19:05 18,2 C 18,2 C 73 % 1009,8 hPa 0,0 mm 2,3 km/h (1 Bft) W-SW 248 0 min 0,000 mm 0,0 UV-I 9 W/m 13,3 C 4,8 km/h (1 Bft)
15.09.2016 19:06 18,2 C 18,2 C 74 % 1009,8 hPa 0,0 mm 2,1 km/h (1 Bft) SW 225 0 min 0,000 mm 0,0 UV-I 9 W/m 13,5 C 3,2 km/h (1 Bft)
15.09.2016 19:07 18,2 C 18,2 C 74 % 1009,9 hPa 0,0 mm 2,1 km/h (1 Bft) SW 225 0 min 0,000 mm 0,0 UV-I 7 W/m 13,5 C 3,2 km/h (1 Bft)
15.09.2016 19:08 18,0 C 18,2 C 76 % 1009,9 hPa 0,0 mm 2,3 km/h (1 Bft) SW 225 0 min 0,000 mm 0,0 UV-I 7 W/m 13,7 C 4,8 km/h (1 Bft)
15.09.2016 19:09 17,8 C 18,0 C 77 % 1009,9 hPa 0,0 mm 2,6 km/h (1 Bft) SW 225 0 min 0,000 mm 0,0 UV-I 7 W/m 13,7 C 3,2 km/h (1 Bft)
15.09.2016 19:10 17,6 C 17,8 C 77 % 1009,9 hPa 0,0 mm 1,9 km/h (1 Bft) SW 225 0 min 0,000 mm 0,0 UV-I 7 W/m 13,5 C 3,2 km/h (1 Bft)
15.09.2016 19:11 17,4 C 17,6 C 77 % 1009,9 hPa 0,0 mm 1,6 km/h (1 Bft) SW 225 0 min 0,000 mm 0,0 UV-I 7 W/m 13,3 C 3,2 km/h (1 Bft)
15.09.2016 19:12 17,5 C 17,5 C 77 % 1009,8 hPa 0,0 mm 1,3 km/h (1 Bft) SW 225 0 min 0,000 mm 0,0 UV-I 5 W/m 13,4 C 1,6 km/h (1 Bft)
15.09.2016 19:13 17,6 C 17,6 C 77 % 1009,8 hPa 0,0 mm 0,1 km/h (0 Bft) SW 225 0 min 0,000 mm 0,0 UV-I 5 W/m 13,5 C 1,6 km/h (1 Bft)
15.09.2016 19:14 17,6 C 17,6 C 77 % 1009,8 hPa 0,0 mm 0,3 km/h (0 Bft) SW 225 0 min 0,000 mm 0,0 UV-I 5 W/m 13,5 C 1,6 km/h (1 Bft)
15.09.2016 19:15 17,6 C 17,6 C 77 % 1009,9 hPa 0,0 mm 0,5 km/h (0 Bft) SW 225 0 min 0,000 mm 0,0 UV-I 5 W/m 13,5 C 1,6 km/h (1 Bft)
15.09.2016 19:16 17,5 C 17,6 C 78 % 1009,9 hPa 0,0 mm 0,0 km/h (0 Bft) SW 225 0 min 0,000 mm 0,0 UV-I 5 W/m 13,6 C 0,0 km/h (0 Bft)
15.09.2016 19:17 17,4 C 17,5 C 78 % 1009,9 hPa 0,0 mm 0,0 km/h (0 Bft) SW 225 0 min 0,000 mm 0,0 UV-I 5 W/m 13,5 C 0,0 km/h (0 Bft)
15.09.2016 19:18 17,3 C 17,4 C 78 % 1009,9 hPa 0,0 mm 0,0 km/h (0 Bft) SW 225 0 min 0,000 mm 0,0 UV-I 5 W/m 13,4 C 0,0 km/h (0 Bft)
15.09.2016 19:19 17,2 C 17,3 C 78 % 1009,8 hPa 0,0 mm 0,0 km/h (0 Bft) SW 225 0 min 0,000 mm 0,0 UV-I 0 W/m 13,3 C 0,0 km/h (0 Bft)
15.09.2016 19:20 17,2 C 17,2 C 78 % 1009,9 hPa 0,0 mm 0,1 km/h (0 Bft) SW 225 0 min 0,000 mm 0,0 UV-I 0 W/m 13,3 C 1,6 km/h (1 Bft)
15.09.2016 19:21 17,2 C 17,2 C 79 % 1009,9 hPa 0,0 mm 0,0 km/h (0 Bft) SW 225 0 min 0,000 mm 0,0 UV-I 0 W/m 13,5 C 0,0 km/h (0 Bft)
15.09.2016 19:22 17,2 C 17,2 C 77 % 1009,9 hPa 0,0 mm 0,6 km/h (0 Bft) SW 225 0 min 0,000 mm 0,0 UV-I 0 W/m 13,1 C 1,6 km/h (1 Bft)
15.09.2016 19:23 17,2 C 17,2 C 76 % 1009,9 hPa 0,0 mm 1,1 km/h (1 Bft) SW 225 0 min 0,000 mm 0,0 UV-I 0 W/m 12,9 C 3,2 km/h (1 Bft)
15.09.2016 19:24 17,3 C 17,3 C 76 % 1009,8 hPa 0,0 mm 1,5 km/h (1 Bft) SW 225 0 min 0,000 mm 0,0 UV-I 0 W/m 13,0 C 3,2 km/h (1 Bft)
15.09.2016 19:25 17,4 C 17,4 C 75 % 1009,8 hPa 0,0 mm 1,2 km/h (1 Bft) SW 225 0 min 0,000 mm 0,0 UV-I 0 W/m 12,9 C 1,6 km/h (1 Bft)
15.09.2016 19:26 17,5 C 17,5 C 76 % 1009,8 hPa 0,0 mm 1,1 km/h (1 Bft) SW 225 0 min 0,000 mm 0,0 UV-I 0 W/m 13,2 C 1,6 km/h (1 Bft)
15.09.2016 19:27 17,5 C 17,5 C 75 % 1009,8 hPa 0,0 mm 1,4 km/h (1 Bft) SW 225 0 min 0,000 mm 0,0 UV-I 0 W/m 13,0 C 3,2 km/h (1 Bft)
15.09.2016 19:28 17,4 C 17,5 C 75 % 1009,8 hPa 0,0 mm 0,3 km/h (0 Bft) SW 225 0 min 0,000 mm 0,0 UV-I 0 W/m 12,9 C 1,6 km/h (1 Bft)
15.09.2016 19:29 17,4 C 17,4 C 75 % 1009,8 hPa 0,0 mm 0,0 km/h (0 Bft) SW 225 0 min 0,000 mm 0,0 UV-I 0 W/m 12,9 C 0,0 km/h (0 Bft)
15.09.2016 19:30 17,4 C 17,4 C 75 % 1009,9 hPa 0,0 mm 0,0 km/h (0 Bft) SW 225 0 min 0,000 mm 0,0 UV-I 0 W/m 12,9 C 0,0 km/h (0 Bft)
15.09.2016 19:31 17,3 C 17,4 C 76 % 1009,9 hPa 0,0 mm 1,7 km/h (1 Bft) S-SW 213 0 min 0,000 mm 0,0 UV-I 0 W/m 13,0 C 3,2 km/h (1 Bft)
15.09.2016 19:32 17,3 C 17,3 C 76 % 1009,9 hPa 0,0 mm 2,9 km/h (1 Bft) S-SW 211 0 min 0,000 mm 0,0 UV-I 0 W/m 13,0 C 4,8 km/h (1 Bft)
15.09.2016 19:33 17,2 C 17,3 C 75 % 1009,9 hPa 0,0 mm 3,0 km/h (1 Bft) S-SW 205 0 min 0,000 mm 0,0 UV-I 0 W/m 12,7 C 4,8 km/h (1 Bft)
15.09.2016 19:34 17,2 C 17,2 C 76 % 1009,9 hPa 0,0 mm 1,7 km/h (1 Bft) S-SW 205 0 min 0,000 mm 0,0 UV-I 0 W/m 12,9 C 3,2 km/h (1 Bft)
15.09.2016 19:35 17,1 C 17,2 C 77 % 1009,9 hPa 0,0 mm 2,4 km/h (1 Bft) S-SW 198 0 min 0,000 mm 0,0 UV-I 0 W/m 13,0 C 4,8 km/h (1 Bft)
15.09.2016 19:36 17,1 C 17,1 C 76 % 1009,9 hPa 0,0 mm 2,1 km/h (1 Bft) S-SW 196 0 min 0,000 mm 0,0 UV-I 0 W/m 12,8 C 3,2 km/h (1 Bft)
15.09.2016 19:37 17,0 C 17,1 C 77 % 1009,9 hPa 0,0 mm 0,1 km/h (0 Bft) S-SW 196 0 min 0,000 mm 0,0 UV-I 0 W/m 12,9 C 1,6 km/h (1 Bft)
15.09.2016 19:38 16,9 C 17,0 C 78 % 1009,9 hPa 0,0 mm 0,3 km/h (0 Bft) S-SW 196 0 min 0,000 mm 0,0 UV-I 0 W/m 13,0 C 1,6 km/h (1 Bft)
15.09.2016 19:39 16,8 C 16,9 C 79 % 1009,9 hPa 0,0 mm 0,0 km/h (0 Bft) S-SW 196 0 min 0,000 mm 0,0 UV-I 0 W/m 13,1 C 0,0 km/h (0 Bft)
15.09.2016 19:40 16,6 C 16,8 C 79 % 1009,9 hPa 0,0 mm 0,1 km/h (0 Bft) S-SW 196 0 min 0,000 mm 0,0 UV-I 0 W/m 12,9 C 1,6 km/h (1 Bft)
15.09.2016 19:41 16,6 C 16,6 C 79 % 1009,8 hPa 0,0 mm 0,0 km/h (0 Bft) S-SW 196 0 min 0,000 mm 0,0 UV-I 0 W/m 12,9 C 0,0 km/h (0 Bft)
15.09.2016 19:42 16,5 C 16,6 C 80 % 1009,9 hPa 0,0 mm 0,0 km/h (0 Bft) S-SW 196 0 min 0,000 mm 0,0 UV-I 0 W/m 13,0 C 0,0 km/h (0 Bft)
15.09.2016 19:43 16,4 C 16,5 C 80 % 1009,9 hPa 0,0 mm 0,0 km/h (0 Bft) S-SW 196 0 min 0,000 mm 0,0 UV-I 0 W/m 12,9 C 0,0 km/h (0 Bft)
15.09.2016 19:44 16,4 C 16,4 C 79 % 1009,8 hPa 0,0 mm 0,0 km/h (0 Bft) S-SW 196 0 min 0,000 mm 0,0 UV-I 0 W/m 12,7 C 0,0 km/h (0 Bft)
15.09.2016 19:45 16,4 C 16,4 C 79 % 1009,9 hPa 0,0 mm 0,0 km/h (0 Bft) S-SW 196 0 min 0,000 mm 0,0 UV-I 0 W/m 12,7 C 0,0 km/h (0 Bft)
15.09.2016 19:46 16,4 C 16,4 C 78 % 1009,9 hPa 0,0 mm 0,0 km/h (0 Bft) S-SW 196 0 min 0,000 mm 0,0 UV-I 0 W/m 12,6 C 0,0 km/h (0 Bft)
15.09.2016 19:47 16,4 C 16,4 C 78 % 1009,9 hPa 0,0 mm 0,1 km/h (0 Bft) S-SW 196 0 min 0,000 mm 0,0 UV-I 0 W/m 12,6 C 1,6 km/h (1 Bft)
15.09.2016 19:48 16,6 C 16,6 C 78 % 1009,9 hPa 0,0 mm 0,7 km/h (0 Bft) S-SW 196 0 min 0,000 mm 0,0 UV-I 0 W/m 12,7 C 1,6 km/h (1 Bft)
15.09.2016 19:49 16,7 C 16,7 C 77 % 1009,9 hPa 0,0 mm 1,1 km/h (1 Bft) S-SW 196 0 min 0,000 mm 0,0 UV-I 0 W/m 12,6 C 1,6 km/h (1 Bft)
15.09.2016 19:50 16,7 C 16,7 C 77 % 1009,9 hPa 0,0 mm 1,0 km/h (0 Bft) S-SW 196 0 min 0,000 mm 0,0 UV-I 0 W/m 12,6 C 1,6 km/h (1 Bft)
15.09.2016 19:51 16,7 C 16,7 C 77 % 1009,9 hPa 0,0 mm 0,9 km/h (0 Bft) S-SW 196 0 min 0,000 mm 0,0 UV-I 0 W/m 12,6 C 1,6 km/h (1 Bft)
15.09.2016 19:52 16,7 C 16,7 C 77 % 1009,9 hPa 0,0 mm 0,2 km/h (0 Bft) S-SW 196 0 min 0,000 mm 0,0 UV-I 0 W/m 12,6 C 1,6 km/h (1 Bft)
15.09.2016 19:53 16,7 C 16,7 C 77 % 1009,9 hPa 0,0 mm 0,0 km/h (0 Bft) S-SW 196 0 min 0,000 mm 0,0 UV-I 0 W/m 12,6 C 0,0 km/h (0 Bft)
15.09.2016 19:54 16,6 C 16,7 C 77 % 1009,9 hPa 0,0 mm 0,0 km/h (0 Bft) S-SW 196 0 min 0,000 mm 0,0 UV-I 0 W/m 12,5 C 0,0 km/h (0 Bft)
15.09.2016 19:55 16,4 C 16,6 C 79 % 1009,8 hPa 0,0 mm 0,1 km/h (0 Bft) S-SW 196 0 min 0,000 mm 0,0 UV-I 0 W/m 12,7 C 1,6 km/h (1 Bft)
15.09.2016 19:56 16,3 C 16,4 C 79 % 1009,9 hPa 0,0 mm 0,0 km/h (0 Bft) S-SW 196 0 min 0,000 mm 0,0 UV-I 0 W/m 12,6 C 0,0 km/h (0 Bft)
15.09.2016 19:57 16,2 C 16,3 C 80 % 1010,0 hPa 0,0 mm 0,1 km/h (0 Bft) S-SW 196 0 min 0,000 mm 0,0 UV-I 0 W/m 12,7 C 1,6 km/h (1 Bft)
15.09.2016 19:58 16,0 C 16,2 C 79 % 1010,0 hPa 0,0 mm 2,4 km/h (1 Bft) S-SW 196 0 min 0,000 mm 0,0 UV-I 0 W/m 12,4 C 4,8 km/h (1 Bft)
15.09.2016 19:59 15,9 C 16,0 C 80 % 1009,9 hPa 0,0 mm 1,6 km/h (1 Bft) S-SW 196 0 min 0,000 mm 0,0 UV-I 0 W/m 12,5 C 3,2 km/h (1 Bft)
15.09.2016 20:00 15,8 C 15,9 C 80 % 1009,9 hPa 0,0 mm 1,1 km/h (1 Bft) S-SW 196 0 min 0,000 mm 0,0 UV-I 0 W/m 12,4 C 1,6 km/h (1 Bft)
15.09.2016 20:01 15,8 C 15,8 C 80 % 1009,9 hPa 0,0 mm 1,3 km/h (1 Bft) S-SW 196 0 min 0,000 mm 0,0 UV-I 0 W/m 12,4 C 3,2 km/h (1 Bft)
15.09.2016 20:02 15,7 C 15,8 C 80 % 1010,0 hPa 0,0 mm 0,9 km/h (0 Bft) S-SW 196 0 min 0,000 mm 0,0 UV-I 0 W/m 12,3 C 1,6 km/h (1 Bft)
15.09.2016 20:03 15,7 C 15,7 C 81 % 1010,0 hPa 0,0 mm 0,3 km/h (0 Bft) S-SW 196 0 min 0,000 mm 0,0 UV-I 0 W/m 12,4 C 1,6 km/h (1 Bft)
15.09.2016 20:04 15,6 C 15,7 C 81 % 1010,0 hPa 0,0 mm 0,0 km/h (0 Bft) S-SW 196 0 min 0,000 mm 0,0 UV-I 0 W/m 12,3 C 0,0 km/h (0 Bft)
15.09.2016 20:05 15,7 C 15,7 C 81 % 1010,0 hPa 0,0 mm 0,0 km/h (0 Bft) S-SW 196 0 min 0,000 mm 0,0 UV-I 0 W/m 12,4 C 0,0 km/h (0 Bft)
15.09.2016 20:06 15,7 C 15,7 C 81 % 1010,0 hPa 0,0 mm 1,0 km/h (0 Bft) S-SW 196 0 min 0,000 mm 0,0 UV-I 0 W/m 12,4 C 3,2 km/h (1 Bft)
15.09.2016 20:07 15,7 C 15,7 C 81 % 1010,0 hPa 0,0 mm 1,5 km/h (1 Bft) S-SW 196 0 min 0,000 mm 0,0 UV-I 0 W/m 12,4 C 3,2 km/h (1 Bft)
15.09.2016 20:08 15,7 C 15,7 C 81 % 1010,0 hPa 0,0 mm 2,1 km/h (1 Bft) S-SW 196 0 min 0,000 mm 0,0 UV-I 0 W/m 12,4 C 3,2 km/h (1 Bft)
15.09.2016 20:09 15,7 C 15,8 C 81 % 1010,0 hPa 0,0 mm 3,4 km/h (1 Bft) S-SW 196 0 min 0,000 mm 0,0 UV-I 0 W/m 12,4 C 4,8 km/h (1 Bft)
15.09.2016 20:10 15,7 C 15,7 C 81 % 1010,1 hPa 0,0 mm 3,0 km/h (1 Bft) S-SW 196 0 min 0,000 mm 0,0 UV-I 0 W/m 12,4 C 4,8 km/h (1 Bft)
15.09.2016 20:11 15,6 C 15,7 C 81 % 1010,1 hPa 0,0 mm 2,2 km/h (1 Bft) S-SW 196 0 min 0,000 mm 0,0 UV-I 0 W/m 12,3 C 4,8 km/h (1 Bft)
15.09.2016 20:12 15,4 C 15,6 C 82 % 1010,1 hPa 0,0 mm 0,8 km/h (0 Bft) S-SW 196 0 min 0,000 mm 0,0 UV-I 0 W/m 12,3 C 1,6 km/h (1 Bft)
15.09.2016 20:13 15,4 C 15,4 C 82 % 1010,1 hPa 0,0 mm 1,3 km/h (1 Bft) S-SW 196 0 min 0,000 mm 0,0 UV-I 0 W/m 12,3 C 3,2 km/h (1 Bft)
15.09.2016 20:14 15,3 C 15,4 C 83 % 1010,2 hPa 0,0 mm 0,2 km/h (0 Bft) S-SW 196 0 min 0,000 mm 0,0 UV-I 0 W/m 12,4 C 1,6 km/h (1 Bft)
15.09.2016 20:15 15,2 C 15,3 C 83 % 1010,2 hPa 0,0 mm 0,0 km/h (0 Bft) S-SW 196 0 min 0,000 mm 0,0 UV-I 0 W/m 12,3 C 0,0 km/h (0 Bft)
15.09.2016 20:16 15,2 C 15,2 C 84 % 1010,1 hPa 0,0 mm 0,0 km/h (0 Bft) S-SW 196 0 min 0,000 mm 0,0 UV-I 0 W/m 12,5 C 0,0 km/h (0 Bft)
15.09.2016 20:17 15,2 C 15,2 C 84 % 1010,2 hPa 0,0 mm 0,0 km/h (0 Bft) S-SW 196 0 min 0,000 mm 0,0 UV-I 0 W/m 12,5 C 0,0 km/h (0 Bft)
15.09.2016 20:18 15,2 C 15,3 C 84 % 1010,1 hPa 0,0 mm 0,0 km/h (0 Bft) S-SW 196 0 min 0,000 mm 0,0 UV-I 0 W/m 12,5 C 0,0 km/h (0 Bft)
15.09.2016 20:19 15,3 C 15,3 C 84 % 1010,2 hPa 0,0 mm 0,0 km/h (0 Bft) S-SW 196 0 min 0,000 mm 0,0 UV-I 0 W/m 12,6 C 0,0 km/h (0 Bft)
15.09.2016 20:20 15,3 C 15,3 C 84 % 1010,2 hPa 0,0 mm 0,0 km/h (0 Bft) S-SW 196 0 min 0,000 mm 0,0 UV-I 0 W/m 12,6 C 0,0 km/h (0 Bft)
15.09.2016 20:21 15,3 C 15,4 C 83 % 1010,2 hPa 0,0 mm 0,0 km/h (0 Bft) S-SW 196 0 min 0,000 mm 0,0 UV-I 0 W/m 12,4 C 0,0 km/h (0 Bft)
15.09.2016 20:22 15,4 C 15,4 C 83 % 1010,2 hPa 0,0 mm 0,0 km/h (0 Bft) S-SW 196 0 min 0,000 mm 0,0 UV-I 0 W/m 12,5 C 0,0 km/h (0 Bft)
15.09.2016 20:23 15,4 C 15,4 C 83 % 1010,2 hPa 0,0 mm 0,0 km/h (0 Bft) S-SW 196 0 min 0,000 mm 0,0 UV-I 0 W/m 12,5 C 0,0 km/h (0 Bft)
15.09.2016 20:24 15,4 C 15,4 C 83 % 1010,2 hPa 0,0 mm 0,0 km/h (0 Bft) S-SW 196 0 min 0,000 mm 0,0 UV-I 0 W/m 12,5 C 0,0 km/h (0 Bft)
15.09.2016 20:25 15,3 C 15,4 C 83 % 1010,2 hPa 0,0 mm 0,0 km/h (0 Bft) S-SW 196 0 min 0,000 mm 0,0 UV-I 0 W/m 12,4 C 0,0 km/h (0 Bft)
15.09.2016 20:26 15,3 C 15,3 C 84 % 1010,3 hPa 0,0 mm 0,0 km/h (0 Bft) S-SW 196 0 min 0,000 mm 0,0 UV-I 0 W/m 12,6 C 0,0 km/h (0 Bft)
15.09.2016 20:27 15,2 C 15,3 C 84 % 1010,3 hPa 0,0 mm 0,0 km/h (0 Bft) S-SW 196 0 min 0,000 mm 0,0 UV-I 0 W/m 12,5 C 0,0 km/h (0 Bft)
15.09.2016 20:28 15,2 C 15,2 C 84 % 1010,3 hPa 0,0 mm 0,0 km/h (0 Bft) S-SW 196 0 min 0,000 mm 0,0 UV-I 0 W/m 12,5 C 0,0 km/h (0 Bft)
15.09.2016 20:29 15,1 C 15,2 C 84 % 1010,4 hPa 0,0 mm 0,4 km/h (0 Bft) S-SW 196 0 min 0,000 mm 0,0 UV-I 0 W/m 12,4 C 1,6 km/h (1 Bft)
15.09.2016 20:30 15,1 C 15,1 C 84 % 1010,3 hPa 0,0 mm 0,8 km/h (0 Bft) S-SW 196 0 min 0,000 mm 0,0 UV-I 0 W/m 12,4 C 3,2 km/h (1 Bft)
15.09.2016 20:31 14,9 C 15,1 C 84 % 1010,3 hPa 0,0 mm 1,2 km/h (1 Bft) S-SW 196 0 min 0,000 mm 0,0 UV-I 0 W/m 12,2 C 3,2 km/h (1 Bft)
15.09.2016 20:32 14,9 C 14,9 C 84 % 1010,3 hPa 0,0 mm 2,0 km/h (1 Bft) S-SW 196 0 min 0,000 mm 0,0 UV-I 0 W/m 12,2 C 3,2 km/h (1 Bft)
15.09.2016 20:33 14,8 C 14,9 C 84 % 1010,4 hPa 0,0 mm 2,4 km/h (1 Bft) S-SW 196 0 min 0,000 mm 0,0 UV-I 0 W/m 12,1 C 3,2 km/h (1 Bft)
15.09.2016 20:34 14,7 C 14,8 C 84 % 1010,4 hPa 0,0 mm 2,1 km/h (1 Bft) S-SW 196 0 min 0,000 mm 0,0 UV-I 0 W/m 12,0 C 3,2 km/h (1 Bft)
15.09.2016 20:35 14,6 C 14,7 C 85 % 1010,4 hPa 0,0 mm 2,1 km/h (1 Bft) S 181 0 min 0,000 mm 0,0 UV-I 0 W/m 12,1 C 3,2 km/h (1 Bft)
15.09.2016 20:36 14,6 C 14,7 C 86 % 1010,4 hPa 0,0 mm 4,4 km/h (1 Bft) S 187 0 min 0,000 mm 0,0 UV-I 0 W/m 12,3 C 8,0 km/h (2 Bft)
15.09.2016 20:37 14,7 C 14,7 C 85 % 1010,5 hPa 0,0 mm 1,9 km/h (1 Bft) S 186 0 min 0,000 mm 0,0 UV-I 0 W/m 12,2 C 3,2 km/h (1 Bft)
15.09.2016 20:38 14,8 C 14,8 C 86 % 1010,5 hPa 0,0 mm 2,9 km/h (1 Bft) S 186 0 min 0,000 mm 0,0 UV-I 0 W/m 12,5 C 3,2 km/h (1 Bft)
15.09.2016 20:39 14,9 C 14,9 C 86 % 1010,5 hPa 0,0 mm 2,5 km/h (1 Bft) S 186 0 min 0,000 mm 0,0 UV-I 0 W/m 12,6 C 4,8 km/h (1 Bft)
15.09.2016 20:40 14,9 C 14,9 C 85 % 1010,5 hPa 0,0 mm 3,0 km/h (1 Bft) S 186 0 min 0,000 mm 0,0 UV-I 0 W/m 12,4 C 4,8 km/h (1 Bft)
15.09.2016 20:41 14,9 C 14,9 C 84 % 1010,4 hPa 0,0 mm 1,9 km/h (1 Bft) S-SW 198 0 min 0,000 mm 0,0 UV-I 0 W/m 12,2 C 4,8 km/h (1 Bft)
15.09.2016 20:42 14,9 C 14,9 C 85 % 1010,5 hPa 0,0 mm 3,6 km/h (1 Bft) S 188 0 min 0,000 mm 0,0 UV-I 0 W/m 12,4 C 4,8 km/h (1 Bft)
15.09.2016 20:43 14,9 C 14,9 C 85 % 1010,4 hPa 0,0 mm 3,0 km/h (1 Bft) S 188 0 min 0,000 mm 0,0 UV-I 0 W/m 12,4 C 4,8 km/h (1 Bft)
15.09.2016 20:44 14,9 C 14,9 C 85 % 1010,5 hPa 0,0 mm 1,9 km/h (1 Bft) S 188 0 min 0,000 mm 0,0 UV-I 0 W/m 12,4 C 3,2 km/h (1 Bft)
15.09.2016 20:45 14,9 C 14,9 C 85 % 1010,5 hPa 0,0 mm 2,3 km/h (1 Bft) S 188 0 min 0,000 mm 0,0 UV-I 0 W/m 12,4 C 3,2 km/h (1 Bft)
15.09.2016 20:46 15,0 C 15,0 C 85 % 1010,5 hPa 0,0 mm 1,8 km/h (1 Bft) S 188 0 min 0,000 mm 0,0 UV-I 0 W/m 12,5 C 3,2 km/h (1 Bft)
15.09.2016 20:47 15,1 C 15,1 C 84 % 1010,5 hPa 0,0 mm 1,4 km/h (1 Bft) S 188 0 min 0,000 mm 0,0 UV-I 0 W/m 12,4 C 3,2 km/h (1 Bft)
15.09.2016 20:48 15,1 C 15,1 C 84 % 1010,5 hPa 0,0 mm 2,2 km/h (1 Bft) S 188 0 min 0,000 mm 0,0 UV-I 0 W/m 12,4 C 3,2 km/h (1 Bft)
15.09.2016 20:49 15,1 C 15,1 C 84 % 1010,5 hPa 0,0 mm 2,7 km/h (1 Bft) S 188 0 min 0,000 mm 0,0 UV-I 0 W/m 12,4 C 4,8 km/h (1 Bft)
15.09.2016 20:50 15,1 C 15,1 C 84 % 1010,5 hPa 0,0 mm 2,5 km/h (1 Bft) S 188 0 min 0,000 mm 0,0 UV-I 0 W/m 12,4 C 3,2 km/h (1 Bft)
15.09.2016 20:51 15,1 C 15,1 C 84 % 1010,5 hPa 0,0 mm 2,2 km/h (1 Bft) S 188 0 min 0,000 mm 0,0 UV-I 0 W/m 12,4 C 3,2 km/h (1 Bft)
15.09.2016 20:52 15,0 C 15,1 C 84 % 1010,5 hPa 0,0 mm 1,7 km/h (1 Bft) S 188 0 min 0,000 mm 0,0 UV-I 0 W/m 12,3 C 3,2 km/h (1 Bft)
15.09.2016 20:53 15,1 C 15,1 C 84 % 1010,6 hPa 0,0 mm 4,9 km/h (1 Bft) SW 225 0 min 0,000 mm 0,0 UV-I 0 W/m 12,4 C 8,0 km/h (2 Bft)
15.09.2016 20:54 15,1 C 15,1 C 84 % 1010,5 hPa 0,0 mm 5,6 km/h (1 Bft) S 191 0 min 0,000 mm 0,0 UV-I 0 W/m 12,4 C 8,0 km/h (2 Bft)
15.09.2016 20:55 15,0 C 15,1 C 85 % 1010,6 hPa 0,0 mm 3,6 km/h (1 Bft) S 182 0 min 0,000 mm 0,0 UV-I 0 W/m 12,5 C 6,4 km/h (2 Bft)
15.09.2016 20:56 15,0 C 15,1 C 85 % 1010,6 hPa 0,0 mm 3,1 km/h (1 Bft) S 182 0 min 0,000 mm 0,0 UV-I 0 W/m 12,5 C 4,8 km/h (1 Bft)
15.09.2016 20:57 15,1 C 15,1 C 85 % 1010,5 hPa 0,0 mm 2,5 km/h (1 Bft) S 182 0 min 0,000 mm 0,0 UV-I 0 W/m 12,6 C 3,2 km/h (1 Bft)
15.09.2016 20:58 15,1 C 15,1 C 85 % 1010,6 hPa 0,0 mm 2,1 km/h (1 Bft) S 182 0 min 0,000 mm 0,0 UV-I 0 W/m 12,6 C 3,2 km/h (1 Bft)
15.09.2016 20:59 15,2 C 15,2 C 85 % 1010,6 hPa 0,0 mm 1,4 km/h (1 Bft) S 182 0 min 0,000 mm 0,0 UV-I 0 W/m 12,7 C 3,2 km/h (1 Bft)
15.09.2016 21:00 15,1 C 15,2 C 84 % 1010,6 hPa 0,0 mm 1,3 km/h (1 Bft) S 182 0 min 0,000 mm 0,0 UV-I 0 W/m 12,4 C 3,2 km/h (1 Bft)
15.09.2016 21:01 15,0 C 15,1 C 84 % 1010,6 hPa 0,0 mm 0,8 km/h (0 Bft) S 182 0 min 0,025 mm 0,0 UV-I 0 W/m 12,3 C 1,6 km/h (1 Bft)
15.09.2016 21:02 14,9 C 15,0 C 85 % 1010,6 hPa 0,0 mm 0,6 km/h (0 Bft) S 182 0 min 0,000 mm 0,0 UV-I 0 W/m 12,4 C 1,6 km/h (1 Bft)
15.09.2016 21:03 14,9 C 14,9 C 85 % 1010,6 hPa 0,0 mm 0,5 km/h (0 Bft) S 182 0 min 0,000 mm 0,0 UV-I 0 W/m 12,4 C 1,6 km/h (1 Bft)
15.09.2016 21:04 14,9 C 14,9 C 85 % 1010,6 hPa 0,0 mm 1,5 km/h (1 Bft) S 182 0 min 0,000 mm 0,0 UV-I 0 W/m 12,4 C 3,2 km/h (1 Bft)
15.09.2016 21:05 14,9 C 14,9 C 85 % 1010,6 hPa 0,0 mm 1,8 km/h (1 Bft) S 182 0 min 0,000 mm 0,0 UV-I 0 W/m 12,4 C 3,2 km/h (1 Bft)
15.09.2016 21:06 14,9 C 14,9 C 85 % 1010,6 hPa 0,0 mm 3,0 km/h (1 Bft) S-SW 194 0 min 0,000 mm 0,0 UV-I 0 W/m 12,4 C 4,8 km/h (1 Bft)
15.09.2016 21:07 15,0 C 15,0 C 85 % 1010,6 hPa 0,0 mm 4,2 km/h (1 Bft) S 182 0 min 0,000 mm 0,0 UV-I 0 W/m 12,5 C 8,0 km/h (2 Bft)
15.09.2016 21:08 15,1 C 15,1 C 85 % 1010,6 hPa 0,0 mm 2,1 km/h (1 Bft) S 182 0 min 0,000 mm 0,0 UV-I 0 W/m 12,6 C 4,8 km/h (1 Bft)
15.09.2016 21:09 15,1 C 15,1 C 85 % 1010,6 hPa 0,0 mm 2,2 km/h (1 Bft) S 182 0 min 0,000 mm 0,0 UV-I 0 W/m 12,6 C 3,2 km/h (1 Bft)
15.09.2016 21:10 15,1 C 15,1 C 85 % 1010,6 hPa 0,0 mm 2,4 km/h (1 Bft) S 182 0 min 0,000 mm 0,0 UV-I 0 W/m 12,6 C 3,2 km/h (1 Bft)
15.09.2016 21:11 15,2 C 15,2 C 84 % 1010,6 hPa 0,0 mm 2,5 km/h (1 Bft) S 182 0 min 0,000 mm 0,0 UV-I 0 W/m 12,5 C 3,2 km/h (1 Bft)
15.09.2016 21:12 15,2 C 15,2 C 84 % 1010,7 hPa 0,0 mm 2,4 km/h (1 Bft) S 182 0 min 0,000 mm 0,0 UV-I 0 W/m 12,5 C 3,2 km/h (1 Bft)
15.09.2016 21:13 15,1 C 15,2 C 84 % 1010,6 hPa 0,0 mm 2,4 km/h (1 Bft) S 182 0 min 0,000 mm 0,0 UV-I 0 W/m 12,4 C 3,2 km/h (1 Bft)
15.09.2016 21:14 15,2 C 15,2 C 85 % 1010,7 hPa 0,0 mm 1,9 km/h (1 Bft) S 182 0 min 0,000 mm 0,0 UV-I 0 W/m 12,7 C 3,2 km/h (1 Bft)
15.09.2016 21:15 15,1 C 15,2 C 85 % 1010,7 hPa 0,0 mm 2,5 km/h (1 Bft) S 182 0 min 0,000 mm 0,0 UV-I 0 W/m 12,6 C 4,8 km/h (1 Bft)
15.09.2016 21:16 15,2 C 15,2 C 85 % 1010,7 hPa 0,0 mm 2,9 km/h (1 Bft) S 182 0 min 0,000 mm 0,0 UV-I 0 W/m 12,7 C 3,2 km/h (1 Bft)
15.09.2016 21:17 15,2 C 15,2 C 85 % 1010,7 hPa 0,0 mm 1,7 km/h (1 Bft) S 182 0 min 0,000 mm 0,0 UV-I 0 W/m 12,7 C 3,2 km/h (1 Bft)
15.09.2016 21:18 15,3 C 15,3 C 84 % 1010,7 hPa 0,0 mm 0,8 km/h (0 Bft) S 182 0 min 0,000 mm 0,0 UV-I 0 W/m 12,6 C 1,6 km/h (1 Bft)
15.09.2016 21:19 15,2 C 15,3 C 84 % 1010,7 hPa 0,0 mm 0,0 km/h (0 Bft) S 182 0 min 0,000 mm 0,0 UV-I 0 W/m 12,5 C 0,0 km/h (0 Bft)
15.09.2016 21:20 15,2 C 15,2 C 84 % 1010,7 hPa 0,0 mm 0,0 km/h (0 Bft) S 182 0 min 0,000 mm 0,0 UV-I 0 W/m 12,5 C 0,0 km/h (0 Bft)
15.09.2016 21:21 15,1 C 15,2 C 85 % 1010,6 hPa 0,0 mm 0,0 km/h (0 Bft) S 182 0 min 0,000 mm 0,0 UV-I 0 W/m 12,6 C 0,0 km/h (0 Bft)
15.09.2016 21:22 15,1 C 15,1 C 85 % 1010,6 hPa 0,0 mm 0,0 km/h (0 Bft) S 182 0 min 0,000 mm 0,0 UV-I 0 W/m 12,6 C 0,0 km/h (0 Bft)
15.09.2016 21:23 14,9 C 15,1 C 86 % 1010,6 hPa 0,0 mm 0,0 km/h (0 Bft) S 182 0 min 0,000 mm 0,0 UV-I 0 W/m 12,6 C 0,0 km/h (0 Bft)
15.09.2016 21:24 14,9 C 14,9 C 86 % 1010,6 hPa 0,0 mm 0,0 km/h (0 Bft) S 182 0 min 0,000 mm 0,0 UV-I 0 W/m 12,6 C 0,0 km/h (0 Bft)
15.09.2016 21:25 14,8 C 14,9 C 85 % 1010,6 hPa 0,0 mm 0,0 km/h (0 Bft) S 182 0 min 0,000 mm 0,0 UV-I 0 W/m 12,3 C 0,0 km/h (0 Bft)
15.09.2016 21:26 14,8 C 14,8 C 86 % 1010,6 hPa 0,0 mm 0,0 km/h (0 Bft) S 182 0 min 0,000 mm 0,0 UV-I 0 W/m 12,5 C 0,0 km/h (0 Bft)
15.09.2016 21:27 14,7 C 14,8 C 86 % 1010,6 hPa 0,0 mm 0,0 km/h (0 Bft) S 182 0 min 0,000 mm 0,0 UV-I 0 W/m 12,4 C 0,0 km/h (0 Bft)
15.09.2016 21:28 14,7 C 14,7 C 86 % 1010,6 hPa 0,0 mm 0,0 km/h (0 Bft) S 182 0 min 0,000 mm 0,0 UV-I 0 W/m 12,4 C 0,0 km/h (0 Bft)
15.09.2016 21:29 14,6 C 14,7 C 86 % 1010,7 hPa 0,0 mm 0,0 km/h (0 Bft) S 182 0 min 0,000 mm 0,0 UV-I 0 W/m 12,3 C 0,0 km/h (0 Bft)
15.09.2016 21:30 14,6 C 14,6 C 86 % 1010,6 hPa 0,0 mm 2,4 km/h (1 Bft) S 182 0 min 0,000 mm 0,0 UV-I 0 W/m 12,3 C 4,8 km/h (1 Bft)
15.09.2016 21:31 14,4 C 14,6 C 85 % 1010,7 hPa 0,0 mm 3,1 km/h (1 Bft) S 182 0 min 0,000 mm 0,0 UV-I 0 W/m 11,9 C 4,8 km/h (1 Bft)
15.09.2016 21:32 14,4 C 14,4 C 86 % 1010,7 hPa 0,0 mm 2,7 km/h (1 Bft) S 182 0 min 0,000 mm 0,0 UV-I 0 W/m 12,1 C 3,2 km/h (1 Bft)
15.09.2016 21:33 14,4 C 14,4 C 87 % 1010,6 hPa 0,0 mm 3,6 km/h (1 Bft) S 182 0 min 0,000 mm 0,0 UV-I 0 W/m 12,3 C 4,8 km/h (1 Bft)
15.09.2016 21:34 14,6 C 14,6 C 87 % 1010,7 hPa 0,0 mm 4,6 km/h (1 Bft) S 176 0 min 0,000 mm 0,0 UV-I 0 W/m 12,5 C 6,4 km/h (2 Bft)
15.09.2016 21:35 14,6 C 14,6 C 87 % 1010,7 hPa 0,0 mm 5,7 km/h (1 Bft) S-SO 162 0 min 0,000 mm 0,0 UV-I 0 W/m 12,5 C 8,0 km/h (2 Bft)
15.09.2016 21:36 14,7 C 14,7 C 87 % 1010,7 hPa 0,0 mm 6,2 km/h (2 Bft) S-SO 159 0 min 0,000 mm 0,0 UV-I 0 W/m 12,6 C 8,0 km/h (2 Bft)
15.09.2016 21:37 14,7 C 14,7 C 86 % 1010,7 hPa 0,0 mm 4,6 km/h (1 Bft) S-SO 159 0 min 0,000 mm 0,0 UV-I 0 W/m 12,4 C 6,4 km/h (2 Bft)
15.09.2016 21:38 14,8 C 14,8 C 86 % 1010,6 hPa 0,0 mm 3,1 km/h (1 Bft) S-SO 159 0 min 0,000 mm 0,0 UV-I 0 W/m 12,5 C 6,4 km/h (2 Bft)
15.09.2016 21:39 14,7 C 14,8 C 85 % 1010,7 hPa 0,0 mm 2,4 km/h (1 Bft) S-SO 160 0 min 0,000 mm 0,0 UV-I 0 W/m 12,2 C 3,2 km/h (1 Bft)
15.09.2016 21:40 14,7 C 14,7 C 85 % 1010,6 hPa 0,0 mm 2,5 km/h (1 Bft) S-SO 160 0 min 0,000 mm 0,0 UV-I 0 W/m 12,2 C 3,2 km/h (1 Bft)
15.09.2016 21:41 14,6 C 14,7 C 85 % 1010,7 hPa 0,0 mm 3,6 km/h (1 Bft) S-SO 162 0 min 0,000 mm 0,0 UV-I 0 W/m 12,1 C 6,4 km/h (2 Bft)
15.09.2016 21:42 14,6 C 14,6 C 86 % 1010,7 hPa 0,0 mm 3,8 km/h (1 Bft) S 180 0 min 0,000 mm 0,0 UV-I 0 W/m 12,3 C 6,4 km/h (2 Bft)
15.09.2016 21:43 14,5 C 14,6 C 86 % 1010,7 hPa 0,0 mm 5,3 km/h (1 Bft) S 189 0 min 0,000 mm 0,0 UV-I 0 W/m 12,2 C 6,4 km/h (2 Bft)
15.09.2016 21:44 14,4 C 14,6 C 85 % 1010,8 hPa 0,0 mm 4,6 km/h (1 Bft) S-SW 194 0 min 0,000 mm 0,0 UV-I 0 W/m 11,9 C 8,0 km/h (2 Bft)
15.09.2016 21:45 14,4 C 14,4 C 86 % 1010,8 hPa 0,0 mm 7,0 km/h (2 Bft) S 184 0 min 0,000 mm 0,0 UV-I 0 W/m 12,1 C 11,3 km/h (2 Bft)
15.09.2016 21:46 14,4 C 14,4 C 86 % 1010,8 hPa 0,0 mm 8,0 km/h (2 Bft) S 185 0 min 0,000 mm 0,0 UV-I 0 W/m 12,1 C 11,3 km/h (2 Bft)
15.09.2016 21:47 14,3 C 14,4 C 86 % 1010,8 hPa 0,0 mm 5,3 km/h (1 Bft) S-SO 163 0 min 0,000 mm 0,0 UV-I 0 W/m 12,0 C 8,0 km/h (2 Bft)
15.09.2016 21:48 14,3 C 14,3 C 87 % 1010,8 hPa 0,0 mm 3,4 km/h (1 Bft) S-SO 163 0 min 0,000 mm 0,0 UV-I 0 W/m 12,2 C 6,4 km/h (2 Bft)
15.09.2016 21:49 14,4 C 14,4 C 87 % 1010,8 hPa 0,0 mm 4,3 km/h (1 Bft) S-SO 163 0 min 0,000 mm 0,0 UV-I 0 W/m 12,3 C 6,4 km/h (2 Bft)
15.09.2016 21:50 14,4 C 14,4 C 87 % 1010,8 hPa 0,0 mm 4,0 km/h (1 Bft) S-SO 163 0 min 0,000 mm 0,0 UV-I 0 W/m 12,3 C 6,4 km/h (2 Bft)
15.09.2016 21:51 14,5 C 14,5 C 86 % 1010,8 hPa 0,0 mm 3,0 km/h (1 Bft) S-SO 163 0 min 0,000 mm 0,0 UV-I 0 W/m 12,2 C 6,4 km/h (2 Bft)
15.09.2016 21:52 14,5 C 14,6 C 86 % 1010,7 hPa 0,0 mm 3,0 km/h (1 Bft) S-SO 163 0 min 0,000 mm 0,0 UV-I 0 W/m 12,2 C 6,4 km/h (2 Bft)
15.09.2016 21:53 14,4 C 14,5 C 86 % 1010,8 hPa 0,0 mm 1,9 km/h (1 Bft) S-SO 163 0 min 0,000 mm 0,0 UV-I 0 W/m 12,1 C 3,2 km/h (1 Bft)
15.09.2016 21:54 14,3 C 14,4 C 86 % 1010,8 hPa 0,0 mm 1,7 km/h (1 Bft) S-SO 163 0 min 0,000 mm 0,0 UV-I 0 W/m 12,0 C 3,2 km/h (1 Bft)
15.09.2016 21:55 14,3 C 14,3 C 86 % 1010,8 hPa 0,0 mm 0,6 km/h (0 Bft) S-SO 163 0 min 0,000 mm 0,0 UV-I 0 W/m 12,0 C 1,6 km/h (1 Bft)
15.09.2016 21:56 14,2 C 14,3 C 86 % 1010,8 hPa 0,0 mm 0,2 km/h (0 Bft) S-SO 163 0 min 0,000 mm 0,0 UV-I 0 W/m 11,9 C 1,6 km/h (1 Bft)
15.09.2016 21:57 14,2 C 14,3 C 86 % 1010,8 hPa 0,0 mm 0,0 km/h (0 Bft) S-SO 163 0 min 0,000 mm 0,0 UV-I 0 W/m 11,9 C 0,0 km/h (0 Bft)
15.09.2016 21:58 14,2 C 14,2 C 87 % 1010,8 hPa 0,0 mm 0,0 km/h (0 Bft) S-SO 163 0 min 0,000 mm 0,0 UV-I 0 W/m 12,1 C 0,0 km/h (0 Bft)
15.09.2016 21:59 14,2 C 14,2 C 87 % 1010,8 hPa 0,0 mm 0,0 km/h (0 Bft) S-SO 163 0 min 0,000 mm 0,0 UV-I 0 W/m 12,1 C 0,0 km/h (0 Bft)
15.09.2016 22:00 14,2 C 14,2 C 87 % 1010,8 hPa 0,0 mm 0,0 km/h (0 Bft) S-SO 163 0 min 0,000 mm 0,0 UV-I 0 W/m 12,1 C 0,0 km/h (0 Bft)
15.09.2016 22:01 14,2 C 14,2 C 87 % 1010,9 hPa 0,0 mm 0,7 km/h (0 Bft) S-SO 163 0 min 0,025 mm 0,0 UV-I 0 W/m 12,1 C 1,6 km/h (1 Bft)
15.09.2016 22:02 14,2 C 14,2 C 87 % 1010,8 hPa 0,0 mm 0,8 km/h (0 Bft) S-SO 163 0 min 0,001 mm 0,0 UV-I 0 W/m 12,1 C 1,6 km/h (1 Bft)
15.09.2016 22:03 14,2 C 14,2 C 87 % 1010,9 hPa 0,0 mm 1,0 km/h (0 Bft) S-SO 163 0 min 0,000 mm 0,0 UV-I 0 W/m 12,1 C 1,6 km/h (1 Bft)
15.09.2016 22:04 14,2 C 14,2 C 87 % 1010,8 hPa 0,0 mm 1,2 km/h (1 Bft) S-SO 163 0 min 0,000 mm 0,0 UV-I 0 W/m 12,1 C 1,6 km/h (1 Bft)
15.09.2016 22:05 14,2 C 14,2 C 87 % 1010,8 hPa 0,0 mm 0,4 km/h (0 Bft) S-SO 163 0 min 0,000 mm 0,0 UV-I 0 W/m 12,1 C 1,6 km/h (1 Bft)
15.09.2016 22:06 14,3 C 14,3 C 87 % 1010,8 hPa 0,0 mm 0,0 km/h (0 Bft) S-SO 163 0 min 0,000 mm 0,0 UV-I 0 W/m 12,2 C 0,0 km/h (0 Bft)
15.09.2016 22:07 14,2 C 14,3 C 87 % 1010,8 hPa 0,0 mm 0,0 km/h (0 Bft) S-SO 163 0 min 0,000 mm 0,0 UV-I 0 W/m 12,1 C 0,0 km/h (0 Bft)
15.09.2016 22:08 14,2 C 14,3 C 87 % 1010,8 hPa 0,0 mm 1,7 km/h (1 Bft) S-SO 163 0 min 0,000 mm 0,0 UV-I 0 W/m 12,1 C 3,2 km/h (1 Bft)
15.09.2016 22:09 14,2 C 14,2 C 87 % 1010,9 hPa 0,0 mm 1,1 km/h (1 Bft) S-SO 163 0 min 0,000 mm 0,0 UV-I 0 W/m 12,1 C 1,6 km/h (1 Bft)
15.09.2016 22:10 14,1 C 14,2 C 87 % 1010,9 hPa 0,0 mm 0,3 km/h (0 Bft) S-SO 163 0 min 0,000 mm 0,0 UV-I 0 W/m 12,0 C 1,6 km/h (1 Bft)
15.09.2016 22:11 14,1 C 14,1 C 87 % 1010,9 hPa 0,0 mm 0,1 km/h (0 Bft) S-SO 163 0 min 0,000 mm 0,0 UV-I 0 W/m 12,0 C 1,6 km/h (1 Bft)
15.09.2016 22:12 14,0 C 14,1 C 87 % 1010,9 hPa 0,0 mm 1,4 km/h (1 Bft) S-SO 163 0 min 0,000 mm 0,0 UV-I 0 W/m 11,9 C 3,2 km/h (1 Bft)
15.09.2016 22:13 14,0 C 14,0 C 88 % 1010,9 hPa 0,0 mm 2,4 km/h (1 Bft) S-SO 163 0 min 0,000 mm 0,0 UV-I 0 W/m 12,0 C 3,2 km/h (1 Bft)
15.09.2016 22:14 14,0 C 14,0 C 88 % 1010,9 hPa 0,0 mm 3,0 km/h (1 Bft) S-SO 163 0 min 0,000 mm 0,0 UV-I 0 W/m 12,0 C 3,2 km/h (1 Bft)
15.09.2016 22:15 14,1 C 14,1 C 88 % 1010,9 hPa 0,0 mm 1,6 km/h (1 Bft) S-SO 163 0 min 0,000 mm 0,0 UV-I 0 W/m 12,1 C 1,6 km/h (1 Bft)
15.09.2016 22:16 14,1 C 14,1 C 87 % 1010,9 hPa 0,0 mm 0,2 km/h (0 Bft) S-SO 163 0 min 0,000 mm 0,0 UV-I 0 W/m 12,0 C 1,6 km/h (1 Bft)
15.09.2016 22:17 14,1 C 14,1 C 87 % 1010,9 hPa 0,0 mm 0,1 km/h (0 Bft) S-SO 163 0 min 0,000 mm 0,0 UV-I 0 W/m 12,0 C 1,6 km/h (1 Bft)
15.09.2016 22:18 14,1 C 14,1 C 87 % 1010,9 hPa 0,0 mm 0,1 km/h (0 Bft) S-SO 163 0 min 0,000 mm 0,0 UV-I 0 W/m 12,0 C 1,6 km/h (1 Bft)
15.09.2016 22:19 14,0 C 14,1 C 87 % 1010,9 hPa 0,0 mm 0,0 km/h (0 Bft) S-SO 163 0 min 0,000 mm 0,0 UV-I 0 W/m 11,9 C 0,0 km/h (0 Bft)
15.09.2016 22:20 13,9 C 14,0 C 87 % 1010,9 hPa 0,0 mm 0,1 km/h (0 Bft) S-SO 163 0 min 0,000 mm 0,0 UV-I 0 W/m 11,8 C 1,6 km/h (1 Bft)
15.09.2016 22:21 13,8 C 13,9 C 88 % 1010,9 hPa 0,0 mm 0,0 km/h (0 Bft) S-SO 163 0 min 0,000 mm 0,0 UV-I 0 W/m 11,8 C 0,0 km/h (0 Bft)
15.09.2016 22:22 13,8 C 13,8 C 87 % 1010,9 hPa 0,0 mm 0,0 km/h (0 Bft) S-SO 163 0 min 0,000 mm 0,0 UV-I 0 W/m 11,7 C 0,0 km/h (0 Bft)
15.09.2016 22:23 13,7 C 13,8 C 88 % 1010,9 hPa 0,0 mm 0,9 km/h (0 Bft) S-SO 163 0 min 0,000 mm 0,0 UV-I 0 W/m 11,7 C 3,2 km/h (1 Bft)
15.09.2016 22:24 13,7 C 13,7 C 87 % 1010,9 hPa 0,0 mm 2,3 km/h (1 Bft) S-SO 163 0 min 0,000 mm 0,0 UV-I 0 W/m 11,6 C 3,2 km/h (1 Bft)
15.09.2016 22:25 13,7 C 13,7 C 87 % 1011,0 hPa 0,0 mm 2,2 km/h (1 Bft) S-SO 163 0 min 0,000 mm 0,0 UV-I 0 W/m 11,6 C 3,2 km/h (1 Bft)
15.09.2016 22:26 13,7 C 13,7 C 88 % 1011,0 hPa 0,0 mm 1,5 km/h (1 Bft) S-SW 202 0 min 0,000 mm 0,0 UV-I 0 W/m 11,7 C 3,2 km/h (1 Bft)
15.09.2016 22:27 13,7 C 13,7 C 88 % 1011,0 hPa 0,0 mm 3,2 km/h (1 Bft) S-SW 196 0 min 0,000 mm 0,0 UV-I 0 W/m 11,7 C 6,4 km/h (2 Bft)
15.09.2016 22:28 13,7 C 13,7 C 88 % 1011,0 hPa 0,0 mm 1,6 km/h (1 Bft) S-SW 196 0 min 0,000 mm 0,0 UV-I 0 W/m 11,7 C 4,8 km/h (1 Bft)
15.09.2016 22:29 13,8 C 13,8 C 88 % 1011,1 hPa 0,0 mm 0,5 km/h (0 Bft) S-SW 196 0 min 0,000 mm 0,0 UV-I 0 W/m 11,8 C 1,6 km/h (1 Bft)
15.09.2016 22:30 13,9 C 13,9 C 88 % 1011,1 hPa 0,0 mm 0,2 km/h (0 Bft) S-SW 196 0 min 0,000 mm 0,0 UV-I 0 W/m 11,9 C 1,6 km/h (1 Bft)
15.09.2016 22:31 14,1 C 14,1 C 88 % 1011,2 hPa 0,0 mm 0,3 km/h (0 Bft) S-SW 196 0 min 0,000 mm 0,0 UV-I 0 W/m 12,1 C 3,2 km/h (1 Bft)
15.09.2016 22:32 14,2 C 14,2 C 87 % 1011,2 hPa 0,0 mm 6,2 km/h (2 Bft) S-SW 199 0 min 0,000 mm 0,0 UV-I 0 W/m 12,1 C 9,7 km/h (2 Bft)
15.09.2016 22:33 14,2 C 14,2 C 87 % 1011,2 hPa 0,0 mm 5,4 km/h (1 Bft) S-SW 192 0 min 0,000 mm 0,0 UV-I 0 W/m 12,1 C 8,0 km/h (2 Bft)
15.09.2016 22:34 14,3 C 14,3 C 87 % 1011,2 hPa 0,0 mm 5,1 km/h (1 Bft) S 188 0 min 0,000 mm 0,0 UV-I 0 W/m 12,2 C 8,0 km/h (2 Bft)
15.09.2016 22:35 14,3 C 14,3 C 86 % 1011,2 hPa 0,0 mm 3,6 km/h (1 Bft) S 188 0 min 0,000 mm 0,0 UV-I 0 W/m 12,0 C 4,8 km/h (1 Bft)
15.09.2016 22:36 14,3 C 14,3 C 86 % 1011,2 hPa 0,0 mm 2,7 km/h (1 Bft) S 188 0 min 0,000 mm 0,0 UV-I 0 W/m 12,0 C 3,2 km/h (1 Bft)
15.09.2016 22:37 14,3 C 14,3 C 86 % 1011,2 hPa 0,0 mm 3,2 km/h (1 Bft) S 188 0 min 0,000 mm 0,0 UV-I 0 W/m 12,0 C 4,8 km/h (1 Bft)
15.09.2016 22:38 14,3 C 14,3 C 86 % 1011,2 hPa 0,0 mm 2,6 km/h (1 Bft) S 188 0 min 0,000 mm 0,0 UV-I 0 W/m 12,0 C 3,2 km/h (1 Bft)
15.09.2016 22:39 14,3 C 14,3 C 86 % 1011,2 hPa 0,0 mm 1,4 km/h (1 Bft) S 188 0 min 0,000 mm 0,0 UV-I 0 W/m 12,0 C 3,2 km/h (1 Bft)
15.09.2016 22:40 14,3 C 14,3 C 86 % 1011,2 hPa 0,0 mm 0,3 km/h (0 Bft) S 188 0 min 0,000 mm 0,0 UV-I 0 W/m 12,0 C 1,6 km/h (1 Bft)
15.09.2016 22:41 14,2 C 14,3 C 86 % 1011,2 hPa 0,0 mm 0,1 km/h (0 Bft) S 188 0 min 0,000 mm 0,0 UV-I 0 W/m 11,9 C 1,6 km/h (1 Bft)
15.09.2016 22:42 14,1 C 14,2 C 86 % 1011,3 hPa 0,0 mm 1,1 km/h (1 Bft) S 188 0 min 0,000 mm 0,0 UV-I 0 W/m 11,8 C 1,6 km/h (1 Bft)
15.09.2016 22:43 13,8 C 14,1 C 86 % 1011,3 hPa 0,0 mm 0,1 km/h (0 Bft) S 188 0 min 0,000 mm 0,0 UV-I 0 W/m 11,5 C 1,6 km/h (1 Bft)
15.09.2016 22:44 13,7 C 13,8 C 87 % 1011,3 hPa 0,0 mm 0,0 km/h (0 Bft) S 188 0 min 0,000 mm 0,0 UV-I 0 W/m 11,6 C 0,0 km/h (0 Bft)
15.09.2016 22:45 13,7 C 13,7 C 88 % 1011,3 hPa 0,0 mm 1,2 km/h (1 Bft) S 188 0 min 0,000 mm 0,0 UV-I 0 W/m 11,7 C 3,2 km/h (1 Bft)
15.09.2016 22:46 13,7 C 13,7 C 88 % 1011,3 hPa 0,0 mm 2,1 km/h (1 Bft) S 188 0 min 0,000 mm 0,0 UV-I 0 W/m 11,7 C 3,2 km/h (1 Bft)
15.09.2016 22:47 13,7 C 13,7 C 88 % 1011,3 hPa 0,0 mm 2,5 km/h (1 Bft) S 188 0 min 0,000 mm 0,0 UV-I 0 W/m 11,7 C 3,2 km/h (1 Bft)
15.09.2016 22:48 13,7 C 13,7 C 88 % 1011,3 hPa 0,0 mm 2,2 km/h (1 Bft) S 188 0 min 0,000 mm 0,0 UV-I 0 W/m 11,7 C 3,2 km/h (1 Bft)
15.09.2016 22:49 13,7 C 13,7 C 88 % 1011,3 hPa 0,0 mm 1,3 km/h (1 Bft) S 188 0 min 0,000 mm 0,0 UV-I 0 W/m 11,7 C 1,6 km/h (1 Bft)
15.09.2016 22:50 13,7 C 13,7 C 88 % 1011,3 hPa 0,0 mm 0,7 km/h (0 Bft) S 188 0 min 0,000 mm 0,0 UV-I 0 W/m 11,7 C 1,6 km/h (1 Bft)
15.09.2016 22:51 13,7 C 13,7 C 88 % 1011,3 hPa 0,0 mm 0,0 km/h (0 Bft) S 188 0 min 0,000 mm 0,0 UV-I 0 W/m 11,7 C 0,0 km/h (0 Bft)
15.09.2016 22:52 13,7 C 13,7 C 88 % 1011,3 hPa 0,0 mm 1,8 km/h (1 Bft) S 188 0 min 0,000 mm 0,0 UV-I 0 W/m 11,7 C 3,2 km/h (1 Bft)
15.09.2016 22:53 13,8 C 13,8 C 88 % 1011,3 hPa 0,0 mm 2,3 km/h (1 Bft) S 188 0 min 0,000 mm 0,0 UV-I 0 W/m 11,8 C 3,2 km/h (1 Bft)
15.09.2016 22:54 13,7 C 13,8 C 88 % 1011,3 hPa 0,0 mm 1,9 km/h (1 Bft) S 188 0 min 0,000 mm 0,0 UV-I 0 W/m 11,7 C 3,2 km/h (1 Bft)
15.09.2016 22:55 13,7 C 13,8 C 88 % 1011,3 hPa 0,0 mm 2,3 km/h (1 Bft) S 188 0 min 0,000 mm 0,0 UV-I 0 W/m 11,7 C 3,2 km/h (1 Bft)
15.09.2016 22:56 13,7 C 13,7 C 87 % 1011,3 hPa 0,0 mm 3,6 km/h (1 Bft) S 188 0 min 0,000 mm 0,0 UV-I 0 W/m 11,6 C 4,8 km/h (1 Bft)
15.09.2016 22:57 13,7 C 13,7 C 87 % 1011,3 hPa 0,0 mm 2,0 km/h (1 Bft) S 188 0 min 0,000 mm 0,0 UV-I 0 W/m 11,6 C 4,8 km/h (1 Bft)
15.09.2016 22:58 13,7 C 13,7 C 88 % 1011,3 hPa 0,0 mm 2,3 km/h (1 Bft) S 188 0 min 0,000 mm 0,0 UV-I 0 W/m 11,7 C 3,2 km/h (1 Bft)
15.09.2016 22:59 13,7 C 13,7 C 88 % 1011,3 hPa 0,0 mm 2,4 km/h (1 Bft) S 188 0 min 0,000 mm 0,0 UV-I 0 W/m 11,7 C 3,2 km/h (1 Bft)
15.09.2016 23:00 13,7 C 13,7 C 87 % 1011,3 hPa 0,0 mm 2,7 km/h (1 Bft) S 188 0 min 0,000 mm 0,0 UV-I 0 W/m 11,6 C 3,2 km/h (1 Bft)
15.09.2016 23:01 13,7 C 13,7 C 87 % 1011,3 hPa 0,0 mm 2,6 km/h (1 Bft) S 188 0 min 0,000 mm 0,0 UV-I 0 W/m 11,6 C 3,2 km/h (1 Bft)
15.09.2016 23:02 13,7 C 13,7 C 87 % 1011,3 hPa 0,0 mm 2,5 km/h (1 Bft) S 188 0 min 0,000 mm 0,0 UV-I 0 W/m 11,6 C 3,2 km/h (1 Bft)
15.09.2016 23:03 13,7 C 13,7 C 87 % 1011,3 hPa 0,0 mm 2,7 km/h (1 Bft) S 188 0 min 0,000 mm 0,0 UV-I 0 W/m 11,6 C 4,8 km/h (1 Bft)
15.09.2016 23:04 13,7 C 13,7 C 87 % 1011,3 hPa 0,0 mm 1,1 km/h (1 Bft) S 188 0 min 0,000 mm 0,0 UV-I 0 W/m 11,6 C 3,2 km/h (1 Bft)
15.09.2016 23:05 13,7 C 13,8 C 87 % 1011,3 hPa 0,0 mm 1,8 km/h (1 Bft) S 188 0 min 0,000 mm 0,0 UV-I 0 W/m 11,6 C 3,2 km/h (1 Bft)
15.09.2016 23:06 13,6 C 13,7 C 86 % 1011,4 hPa 0,0 mm 1,6 km/h (1 Bft) S 188 0 min 0,000 mm 0,0 UV-I 0 W/m 11,3 C 1,6 km/h (1 Bft)
15.09.2016 23:07 13,6 C 13,6 C 87 % 1011,4 hPa 0,0 mm 0,0 km/h (0 Bft) S 188 0 min 0,000 mm 0,0 UV-I 0 W/m 11,5 C 0,0 km/h (0 Bft)
15.09.2016 23:08 13,4 C 13,6 C 87 % 1011,4 hPa 0,0 mm 1,6 km/h (1 Bft) S 188 0 min 0,000 mm 0,0 UV-I 0 W/m 11,3 C 3,2 km/h (1 Bft)
15.09.2016 23:09 13,2 C 13,4 C 88 % 1011,4 hPa 0,0 mm 0,1 km/h (0 Bft) S 188 0 min 0,000 mm 0,0 UV-I 0 W/m 11,3 C 1,6 km/h (1 Bft)
15.09.2016 23:10 13,1 C 13,2 C 88 % 1011,4 hPa 0,0 mm 0,5 km/h (0 Bft) S 188 0 min 0,000 mm 0,0 UV-I 0 W/m 11,2 C 1,6 km/h (1 Bft)
15.09.2016 23:11 12,9 C 13,1 C 89 % 1011,4 hPa 0,0 mm 1,4 km/h (1 Bft) S 188 0 min 0,000 mm 0,0 UV-I 0 W/m 11,1 C 3,2 km/h (1 Bft)
15.09.2016 23:12 12,8 C 12,9 C 89 % 1011,4 hPa 0,0 mm 2,3 km/h (1 Bft) S 188 0 min 0,000 mm 0,0 UV-I 0 W/m 11,0 C 3,2 km/h (1 Bft)
15.09.2016 23:13 12,8 C 12,9 C 90 % 1011,4 hPa 0,0 mm 2,6 km/h (1 Bft) S 188 0 min 0,000 mm 0,0 UV-I 0 W/m 11,2 C 3,2 km/h (1 Bft)
15.09.2016 23:14 12,9 C 12,9 C 90 % 1011,4 hPa 0,0 mm 2,0 km/h (1 Bft) S 188 0 min 0,000 mm 0,0 UV-I 0 W/m 11,3 C 3,2 km/h (1 Bft)
15.09.2016 23:15 12,9 C 12,9 C 90 % 1011,4 hPa 0,0 mm 1,0 km/h (0 Bft) S 188 0 min 0,000 mm 0,0 UV-I 0 W/m 11,3 C 1,6 km/h (1 Bft)
15.09.2016 23:16 12,9 C 13,0 C 89 % 1011,4 hPa 0,0 mm 0,0 km/h (0 Bft) S 188 0 min 0,000 mm 0,0 UV-I 0 W/m 11,1 C 0,0 km/h (0 Bft)
15.09.2016 23:17 12,9 C 12,9 C 89 % 1011,5 hPa 0,0 mm 0,5 km/h (0 Bft) S 188 0 min 0,000 mm 0,0 UV-I 0 W/m 11,1 C 1,6 km/h (1 Bft)
15.09.2016 23:18 12,8 C 12,9 C 89 % 1011,5 hPa 0,0 mm 0,0 km/h (0 Bft) S 188 0 min 0,000 mm 0,0 UV-I 0 W/m 11,0 C 0,0 km/h (0 Bft)
15.09.2016 23:19 12,8 C 12,8 C 89 % 1011,5 hPa 0,0 mm 0,7 km/h (0 Bft) S 188 0 min 0,000 mm 0,0 UV-I 0 W/m 11,0 C 1,6 km/h (1 Bft)
15.09.2016 23:20 12,8 C 12,8 C 90 % 1011,6 hPa 0,0 mm 0,8 km/h (0 Bft) S 188 0 min 0,000 mm 0,0 UV-I 0 W/m 11,2 C 1,6 km/h (1 Bft)
15.09.2016 23:21 12,7 C 12,8 C 90 % 1011,5 hPa 0,0 mm 0,9 km/h (0 Bft) S 188 0 min 0,000 mm 0,0 UV-I 0 W/m 11,1 C 1,6 km/h (1 Bft)
15.09.2016 23:22 12,8 C 12,8 C 90 % 1011,6 hPa 0,0 mm 1,9 km/h (1 Bft) S 188 0 min 0,000 mm 0,0 UV-I 0 W/m 11,2 C 3,2 km/h (1 Bft)
15.09.2016 23:23 12,8 C 12,8 C 90 % 1011,6 hPa 0,0 mm 1,2 km/h (1 Bft) S 188 0 min 0,000 mm 0,0 UV-I 0 W/m 11,2 C 1,6 km/h (1 Bft)
15.09.2016 23:24 12,9 C 12,9 C 90 % 1011,6 hPa 0,0 mm 0,6 km/h (0 Bft) S 188 0 min 0,000 mm 0,0 UV-I 0 W/m 11,3 C 1,6 km/h (1 Bft)
15.09.2016 23:25 12,9 C 12,9 C 90 % 1011,6 hPa 0,0 mm 0,6 km/h (0 Bft) S 188 0 min 0,000 mm 0,0 UV-I 0 W/m 11,3 C 1,6 km/h (1 Bft)
15.09.2016 23:26 12,9 C 12,9 C 89 % 1011,7 hPa 0,0 mm 1,9 km/h (1 Bft) S 189 0 min 0,000 mm 0,0 UV-I 0 W/m 11,1 C 3,2 km/h (1 Bft)
15.09.2016 23:27 12,9 C 12,9 C 89 % 1011,7 hPa 0,0 mm 1,7 km/h (1 Bft) S 189 0 min 0,000 mm 0,0 UV-I 0 W/m 11,1 C 3,2 km/h (1 Bft)
15.09.2016 23:28 12,8 C 12,9 C 89 % 1011,8 hPa 0,0 mm 0,1 km/h (0 Bft) S 189 0 min 0,000 mm 0,0 UV-I 0 W/m 11,0 C 1,6 km/h (1 Bft)
15.09.2016 23:29 12,7 C 12,8 C 89 % 1011,8 hPa 0,0 mm 0,0 km/h (0 Bft) S 189 0 min 0,000 mm 0,0 UV-I 0 W/m 10,9 C 0,0 km/h (0 Bft)
15.09.2016 23:30 12,7 C 12,7 C 90 % 1011,9 hPa 0,0 mm 0,0 km/h (0 Bft) S 189 0 min 0,000 mm 0,0 UV-I 0 W/m 11,1 C 0,0 km/h (0 Bft)
15.09.2016 23:31 12,7 C 12,7 C 90 % 1011,9 hPa 0,0 mm 1,4 km/h (1 Bft) S 189 0 min 0,000 mm 0,0 UV-I 0 W/m 11,1 C 3,2 km/h (1 Bft)
15.09.2016 23:32 12,7 C 12,7 C 90 % 1011,9 hPa 0,0 mm 0,8 km/h (0 Bft) S 189 0 min 0,000 mm 0,0 UV-I 0 W/m 11,1 C 1,6 km/h (1 Bft)
15.09.2016 23:33 12,7 C 12,7 C 90 % 1011,9 hPa 0,0 mm 0,0 km/h (0 Bft) S 189 0 min 0,000 mm 0,0 UV-I 0 W/m 11,1 C 0,0 km/h (0 Bft)
15.09.2016 23:34 12,8 C 12,8 C 90 % 1011,9 hPa 0,0 mm 0,0 km/h (0 Bft) S 189 0 min 0,000 mm 0,0 UV-I 0 W/m 11,2 C 0,0 km/h (0 Bft)
15.09.2016 23:35 12,8 C 12,8 C 90 % 1011,9 hPa 0,0 mm 0,0 km/h (0 Bft) S 189 0 min 0,000 mm 0,0 UV-I 0 W/m 11,2 C 0,0 km/h (0 Bft)
15.09.2016 23:36 12,9 C 12,9 C 90 % 1011,9 hPa 0,0 mm 1,8 km/h (1 Bft) S 180 0 min 0,000 mm 0,0 UV-I 0 W/m 11,3 C 4,8 km/h (1 Bft)
15.09.2016 23:37 12,9 C 12,9 C 90 % 1011,9 hPa 0,0 mm 2,5 km/h (1 Bft) S 176 0 min 0,000 mm 0,0 UV-I 0 W/m 11,3 C 3,2 km/h (1 Bft)
15.09.2016 23:38 12,9 C 13,0 C 89 % 1011,9 hPa 0,0 mm 1,4 km/h (1 Bft) S 176 0 min 0,000 mm 0,0 UV-I 0 W/m 11,1 C 3,2 km/h (1 Bft)
15.09.2016 23:39 13,0 C 13,0 C 89 % 1011,9 hPa 0,0 mm 2,0 km/h (1 Bft) S 176 0 min 0,000 mm 0,0 UV-I 0 W/m 11,2 C 3,2 km/h (1 Bft)
15.09.2016 23:40 12,9 C 13,0 C 89 % 1011,9 hPa 0,0 mm 3,8 km/h (1 Bft) N-NO 13 0 min 0,000 mm 0,0 UV-I 0 W/m 11,1 C 6,4 km/h (2 Bft)
15.09.2016 23:41 12,9 C 12,9 C 89 % 1011,9 hPa 0,0 mm 0,3 km/h (0 Bft) N-NO 13 0 min 0,000 mm 0,0 UV-I 0 W/m 11,1 C 1,6 km/h (1 Bft)
15.09.2016 23:42 12,8 C 12,9 C 89 % 1012,0 hPa 0,0 mm 2,0 km/h (1 Bft) O-NO 67 0 min 0,000 mm 0,0 UV-I 0 W/m 11,0 C 3,2 km/h (1 Bft)
15.09.2016 23:43 12,8 C 12,8 C 90 % 1012,0 hPa 0,0 mm 3,2 km/h (1 Bft) O-SO 109 0 min 0,000 mm 0,0 UV-I 0 W/m 11,2 C 4,8 km/h (1 Bft)
15.09.2016 23:44 12,8 C 12,8 C 90 % 1012,0 hPa 0,0 mm 2,7 km/h (1 Bft) O-SO 109 0 min 0,000 mm 0,0 UV-I 0 W/m 11,2 C 3,2 km/h (1 Bft)
15.09.2016 23:45 12,7 C 12,8 C 90 % 1012,0 hPa 0,0 mm 3,5 km/h (1 Bft) S-SO 167 0 min 0,000 mm 0,0 UV-I 0 W/m 11,1 C 8,0 km/h (2 Bft)
15.09.2016 23:46 12,8 C 12,8 C 90 % 1012,0 hPa 0,0 mm 4,6 km/h (1 Bft) S-SO 167 0 min 0,000 mm 0,0 UV-I 0 W/m 11,2 C 6,4 km/h (2 Bft)
15.09.2016 23:47 12,9 C 12,9 C 91 % 1012,0 hPa 0,0 mm 4,6 km/h (1 Bft) S-SO 150 0 min 0,000 mm 0,0 UV-I 0 W/m 11,5 C 6,4 km/h (2 Bft)
15.09.2016 23:48 13,2 C 13,2 C 92 % 1012,0 hPa 0,0 mm 3,0 km/h (1 Bft) S-SO 150 0 min 0,000 mm 0,0 UV-I 0 W/m 11,9 C 4,8 km/h (1 Bft)
15.09.2016 23:49 13,4 C 13,4 C 92 % 1012,0 hPa 0,0 mm 3,3 km/h (1 Bft) S 169 0 min 0,000 mm 0,0 UV-I 0 W/m 12,1 C 6,4 km/h (2 Bft)
15.09.2016 23:50 13,7 C 13,7 C 92 % 1012,0 hPa 0,0 mm 3,0 km/h (1 Bft) S 171 0 min 0,000 mm 0,0 UV-I 0 W/m 12,4 C 3,2 km/h (1 Bft)
15.09.2016 23:51 13,9 C 13,9 C 91 % 1012,0 hPa 0,0 mm 3,4 km/h (1 Bft) S 173 0 min 0,000 mm 0,0 UV-I 0 W/m 12,5 C 6,4 km/h (2 Bft)
15.09.2016 23:52 14,1 C 14,1 C 91 % 1012,0 hPa 0,0 mm 4,0 km/h (1 Bft) W-NW 296 0 min 0,000 mm 0,0 UV-I 0 W/m 12,7 C 4,8 km/h (1 Bft)
15.09.2016 23:53 14,2 C 14,2 C 90 % 1012,1 hPa 0,0 mm 2,5 km/h (1 Bft) W-NW 296 0 min 0,000 mm 0,0 UV-I 0 W/m 12,6 C 4,8 km/h (1 Bft)
15.09.2016 23:54 14,0 C 14,2 C 87 % 1012,1 hPa 0,0 mm 0,5 km/h (0 Bft) W-NW 296 0 min 0,000 mm 0,0 UV-I 0 W/m 11,9 C 1,6 km/h (1 Bft)
15.09.2016 23:55 13,9 C 14,0 C 88 % 1012,1 hPa 0,0 mm 0,1 km/h (0 Bft) W-NW 296 0 min 0,000 mm 0,0 UV-I 0 W/m 11,9 C 1,6 km/h (1 Bft)
15.09.2016 23:56 13,9 C 13,9 C 90 % 1012,1 hPa 0,0 mm 3,1 km/h (1 Bft) S 190 0 min 0,000 mm 0,0 UV-I 0 W/m 12,3 C 4,8 km/h (1 Bft)
15.09.2016 23:57 14,1 C 14,1 C 90 % 1012,1 hPa 0,0 mm 2,9 km/h (1 Bft) S-SO 163 0 min 0,000 mm 0,0 UV-I 0 W/m 12,5 C 4,8 km/h (1 Bft)
15.09.2016 23:58 14,2 C 14,2 C 90 % 1012,1 hPa 0,0 mm 3,4 km/h (1 Bft) S 190 0 min 0,000 mm 0,0 UV-I 0 W/m 12,6 C 6,4 km/h (2 Bft)
15.09.2016 23:59 14,4 C 14,4 C 90 % 1012,0 hPa 0,0 mm 2,7 km/h (1 Bft) S-SW 199 0 min 0,000 mm 0,0 UV-I 0 W/m 12,8 C 4,8 km/h (1 Bft)
_ Min-Zeit 03:21 06:44 14:17 08:33 - 23:35 - - - - - - 07:12 23:35
Minimum _ 11,6 C 11,7 C 37 % 1007,8 hPa - 0,0 km/h (0 Bft) - - - - - - 8,9 C 0,0 km/h (0 Bft)
_ Max-Zeit 12:08 12:09 03:28 23:58 23:59 14:42 - - 16:30 12:00 13:40 13:40 13:12 14:39
Maximum _ 26,3 C 26,3 C 95 % 1012,1 hPa 0,0 mm 15,0 km/h
W-NW (3 Bft)
- - 1 min 0,381 mm 5,3 UV-I 784 W/m 16,4 C 20,9 km/h
W-SW (4 Bft)
Durchschnitt _ 17,5 C 17,6 C 73 % 1009,1 hPa #0,0 mm 1,9 km/h (1 Bft) S - #5:11 h #2,388 mm 2,4 UV-I 138 W/m 12,1 C 3,4 km/h (1 Bft)